GFSSGP_prec_radar_000.txt.gz
Reflectivity
-20 -20 -20 -20 -20 -20 -20 -20 -20 -20 -20 -20 -20 -20 -20 -20 -20 -20 -20 -20 -20 -20 -20 -6 -20 -20 -3 -20 -20 -20 -20 -20 -20 -20 -20 -20 -20 -20 -19 -20 -17 -20 -20 -20 -20 -20 -20 -20 -20
-20 -20 -20 -20 -20 -20 -20 -20 -20 -20 -20 -20 -20 -20 -20 -20 -20 -20 -20 -20 -20 -20 -20 -20 -20 -20 -20 -20 -20 -20 -20 -20 -20 -20 -20 -12 -20 10 13 17 -13 -20 -20 -20 -20 -20 -20 -20 -20
-20 -20 -20 -20 -20 -20 -20 -20 -20 -20 -20 -20 -20 -20 -20 -20 -20 -20 -20 -20 -20 -20 -20 -20 -20 -20 7 -20 -20 -20 -20 -20 -20 -20 -20 -10 8 -11 7 9 -20 -20 -20 -20 -20 -20 -20 -20 -20
-20 -20 -20 -20 -20 -20 -20 -20 -20 -20 -20 -20 -20 -20 -20 -20 -20 -20 -20 -20 -20 -20 -20 -20 -20 -20 -14 -20 -20 -20 -20 -20 -20 -20 -20 -20 13 5 16 -4 -20 -20 -20 -20 -20 -20 -20 -20 -20
-20 -20 -20 -20 -20 -20 -20 -20 -20 -20 -20 -20 -20 -20 -20 -20 -20 -20 -20 -20 -20 -20 -20 -20 -20 -20 -20 -20 -20 -20 -20 -20 -20 -20 -20 -20 -20 -2 -11 -13 -20 -20 -20 -20 -20 -20 -20 -20 -20
-20 -20 -20 -20 -20 -20 -20 -20 -20 -20 -20 -20 -20 -20 -20 -20 -20 -20 -20 -20 -20 -20 -20 -20 -20 -20 -20 -20 -20 -20 -20 -20 -20 -20 -20 -20 -20 -20 -20 -20 -20 -20 -20 -20 -20 -20 -20 -20 -20
-20 -20 -20 -20 -20 -20 -20 -20 -20 -20 -20 -20 -20 -20 -20 -20 -20 -20 -20 -20 -20 -20 -20 -20 -20 -20 -20 -20 -20 -10 2 2 -20 -20 -20 -20 -20 -20 -20 -20 -20 -20 -20 -20 -20 -20 -20 -20 -20
-20 -20 -20 -20 -20 -20 -20 -20 -20 -20 -20 -20 -20 -20 -20 -20 -20 -20 -20 -20 -20 -20 -20 -20 -20 -20 -20 -20 -20 -20 -20 -20 -20 -20 -20 -20 -20 -20 -20 -20 -20 -20 -20 -20 -20 -20 -20 -20 -20
-20 -20 -20 -20 -20 -20 -20 -20 -20 -20 -20 -20 -20 -20 -20 -20 -20 -20 -20 -20 -20 -20 -20 -20 -20 -20 -20 -20 -20 -20 -20 -20 -20 -20 -20 -20 -20 -20 -20 -20 -20 -20 -20 -20 -20 -20 -20 -20 -20
-20 -20 -20 -20 -20 -20 -20 -20 -20 -20 -20 -20 -20 -20 -20 -20 -20 -20 -20 -20 -20 -20 -20 -20 -20 -20 -20 -20 -20 -20 -20 -20 -20 -20 -20 -20 -20 -20 -20 -20 -20 -20 -20 -20 -20 -20 -18 -5 -20
-20 -20 -20 -20 -20 -20 -20 -20 -20 -20 -20 -20 -20 -20 -20 -20 -20 -20 -20 -20 -20 -20 -20 -20 -20 -20 -20 -20 -20 -20 -20 -20 -20 -20 -20 -20 -20 -20 -20 -20 -20 -20 -20 -20 -20 -20 -20 -20 -20
-20 -20 -20 -20 -20 -20 -20 -20 -20 -20 -20 -20 -20 -20 -20 -20 -20 -20 -20 -20 -20 -20 -20 -20 -20 -20 -20 -20 -20 -20 -20 -20 -20 -20 -20 -20 -20 -20 -20 -20 -18 -20 -20 -20 -20 -20 -20 -20 -20
-20 -20 -20 -20 -20 -20 -20 -20 -20 -20 -20 -20 -20 -20 -20 -20 -20 -20 -20 -20 -20 -20 -20 -20 -20 -20 -20 -20 -20 -20 -20 -20 -20 -20 -20 -20 -20 -20 -20 -20 -20 -20 -20 -16 -20 -20 -20 -20 -20
-20 -20 -20 -20 -20 -20 -20 -20 -20 -20 -20 -20 -20 -20 -20 -20 -20 -20 -20 -20 -20 -20 -20 -20 -20 -20 -20 -20 -20 -20 -20 -20 -20 -20 -20 -20 -20 -20 -20 -11 -3 -10 -20 -20 -20 -20 -20 -20 -20
-20 -20 -20 -20 -20 -20 -20 -20 -20 -20 -20 -20 -20 -20 -20 -20 -20 -20 -20 -20 -20 -20 -20 -20 -20 -20 -20 -20 -20 -20 -20 -20 -20 -20 -20 -0 4 -9 -0 -18 -19 -20 -20 -20 -20 -20 -20 -20 -20
-20 -19 -13 -20 -20 -20 -8 -20 -20 -20 -20 -20 -20 -20 -20 -20 -20 -20 -20 -20 -20 -20 -20 -20 -20 -20 -20 -20 -20 -20 -17 11 12 1 -19 -18 -20 -20 -20 -20 -20 -20 -20 -20 -20 -20 -20 -20 -20
-18 -20 -20 -20 -20 -20 -8 -20 -20 -20 -20 -20 -20 -20 -20 -20 -20 -20 -20 -20 -20 -20 -20 -20 -20 -20 -20 -20 -15 1 4 -0 3 -19 -20 -20 -20 -20 -20 -20 -20 -20 -20 -20 -20 -20 -20 -20 -20
-20 -10 -20 -18 -19 -16 -20 -20 -20 -20 -20 -20 -20 -20 -20 -20 -20 -20 -20 -20 -20 -20 -20 -20 -20 -20 -20 -20 -6 -0 10 -20 -20 -20 -20 -20 -20 -20 -20 -20 -20 -20 -20 -20 -20 -20 -20 -20 -20
-20 -20 -20 -20 -20 -20 -20 -20 -20 -20 -20 -20 -20 -20 -20 -20 -20 -20 -20 -20 -20 -20 -20 -20 -20 -20 -20 -20 -20 -20 -19 -20 -20 -20 -20 -20 -20 -20 -20 -20 -20 -20 -20 -20 -20 -20 -20 -20 -20
-20 -13 -20 -20 -20 -13 -17 -20 -20 -20 -20 -20 -20 -20 -20 -20 -20 -20 -20 -20 -20 -20 -20 -20 -20 -20 -20 -20 -20 -20 -20 -20 -20 -20 -20 -20 -20 -20 -20 -20 -20 -20 -20 -20 -20 -20 -20 -20 -20
-20 -20 -20 -20 -20 -20 -20 -20 -20 -20 -20 -20 -20 -20 -20 -20 -20 -20 -20 -20 -20 -20 -20 -20 -20 -20 -20 -20 -20 -20 -20 -20 -20 -20 -20 -20 -20 -20 -20 -20 -20 -20 -20 -20 -20 -20 -20 -20 -20
-20 -20 -20 -20 7 -20 25 19 -20 -20 -20 -20 -20 -20 -20 -20 -20 -20 -20 -20 -20 -20 -20 -20 -20 -20 -20 -20 -20 -20 -20 -20 -20 -20 -20 -20 -20 -20 -20 -20 -20 -20 -20 -20 -20 -20 -20 -20 -20
-20 -20 -20 -11 -0 13 -20 -2 -20 -20 -20 -20 -20 -20 -20 -20 -20 -20 -20 -20 -20 -20 -20 -20 -20 -20 -20 -20 -20 -20 -20 -20 -20 -20 -20 -20 -20 -20 -20 -20 -20 -20 -20 -20 -20 -20 -20 -20 -20
-4 7 -2 7 14 5 -20 1 -20 -20 -20 -20 -20 -20 -20 -20 -20 -20 -20 -20 -20 -20 -20 -20 -20 -20 -20 -20 -20 -20 -20 -20 -20 -20 -20 -20 -20 -20 -20 -20 -20 -20 -20 -20 -20 -20 -20 -20 -20
1 14 18 15 9 1 -20 -20 -20 -20 -20 -20 -20 -20 -20 -20 -20 -20 -20 -20 -20 -20 -20 -20 -20 -20 -20 -20 -20 -20 -20 -20 -20 -20 -20 -20 -20 -20 -20 -20 -20 -20 -20 -20 -20 -20 -20 -20 -20
-20 -16 1 -8 -20 -20 -20 -17 -20 -20 -20 -20 -20 -20 -20 -20 -20 -20 -20 -20 -20 -20 -20 -20 -20 -20 -20 -20 -20 -20 -20 -20 -20 -20 -20 -20 -20 -20 -20 -20 -20 -20 -20 -20 -20 -20 -20 -20 -20
-4 8 -10 10 -20 8 -20 -20 -20 -20 -4 -20 -20 -20 -20 -20 -20 -20 -20 -20 -20 -20 -20 -20 -20 -20 -20 -20 -20 -20 -20 -20 -20 -20 -20 -20 -20 -20 -20 -20 -20 -20 -20 -20 -20 -20 -20 -20 -20
-18 -20 -10 10 -7 -9 -20 -20 -20 -14 -19 -20 -20 -20 -20 -20 -20 -20 -20 -20 -20 -20 -20 -20 -20 -20 -20 -20 -20 -20 -20 -20 -20 -20 -20 -20 -20 -20 -20 -20 -20 -20 -20 -20 -20 -20 -20 -20 -20
9 17 9 -20 -9 -10 -14 -20 -11 2 3 -6 -20 -20 -20 -20 -20 -20 -20 -20 -20 -20 -20 -20 -20 -20 -20 -20 -20 -20 -20 -20 -20 -20 -20 -20 -20 -20 -20 -20 -20 -20 -20 -20 -20 -20 -20 -20 -20
-20 -20 -20 -13 -20 -16 20 -4 11 23 6 -20 0 -20 -20 -20 -20 -20 -20 -20 -20 -20 -20 -20 -20 -20 -20 -20 -20 -20 -20 -20 -20 -20 -20 -20 -20 -20 -20 -20 -20 -20 -20 -20 -20 -20 -20 -20 -20

GFSSGP_prec_radar_003.txt.gz
Reflectivity
-20 -20 -20 -20 -20 -20 -20 -20 -20 -20 -20 -20 -20 -20 -20 -20 -20 -20 -20 -20 -20 -20 -20 -20 -20 12 -20 -20 -20 -20 -20 -20 -20 -20 -20 -20 -7 -20 -16 -20 -16 -20 -20 -20 -20 -20 -20 -20 -20
-20 -20 -20 -20 -20 -20 -20 -20 -20 -20 -20 -20 -20 -20 -20 -20 -20 -20 -20 -20 -20 -20 -20 -20 -8 -20 -6 -16 -20 -20 -20 -20 -20 -20 -20 16 -11 17 17 13 -14 -20 -20 -20 -20 -20 -20 -20 -20
-20 -20 -20 -20 -20 -20 -20 -20 -20 -20 -20 -20 -20 -20 -20 -20 -20 -20 -20 -20 -20 -20 -20 -20 -20 -20 6 -20 -20 -20 -20 -20 -20 -20 -20 6 13 14 11 -0 -20 -20 -20 -20 -20 -20 -20 -20 -20
-20 -20 -20 -20 -20 -20 -20 -20 -20 -20 -20 -20 -20 -20 -20 -20 -20 -20 -20 -20 -20 -20 -20 -20 -20 -19 6 -20 -20 -20 -20 -20 -20 -20 -20 -15 2 15 13 9 -20 -20 -20 -20 -20 -20 -20 -20 -20
-20 -20 -20 -20 -20 -20 -20 -20 -20 -20 -20 -20 -20 -20 -20 -20 -20 -20 -20 -20 -20 -20 -20 -20 -3 -6 -20 -20 -20 -20 -20 -20 -20 -20 -20 -20 -7 13 16 11 -20 -20 -20 -20 -20 -20 -20 -20 -20
-20 -20 -20 -20 -20 -20 -20 -20 -20 -20 -20 -20 -20 -20 -20 -20 -20 -20 -20 -20 -20 -20 -20 -20 -6 -17 -20 -20 -20 -20 -20 -20 -20 -20 -20 -20 -20 -20 14 -6 -2 -20 -20 -20 -20 -20 -20 -20 -20
-20 -20 -20 -20 -20 -20 -20 -20 -20 -20 -20 -20 -20 -20 -20 -20 -20 -20 -20 -20 -20 -20 -20 -20 -20 -15 -20 -20 -20 -20 -20 -20 -20 -20 -20 -20 -20 -20 -20 2 -20 -20 -20 -20 -20 -20 -20 -20 -20
-20 -20 -20 -20 -20 -20 -20 -20 -20 -20 -20 -20 -20 -20 -20 -20 -20 -20 -20 -20 -20 -20 -20 -20 -20 -20 -20 -20 -20 -20 -19 -20 -20 -20 -20 -20 -20 -20 -20 -20 -20 -20 -20 -20 -20 -20 -20 -20 -20
-20 -20 -20 -20 -20 -20 -20 -20 -20 -20 -20 -20 -20 -20 -20 -20 -20 -20 -20 -20 -20 -17 -20 -20 -20 -20 -20 -20 -20 -20 -20 -20 -20 -20 -20 -20 -20 -20 -20 -20 -20 -20 -20 -20 -20 -11 -12 -7 9
-20 -20 -20 -20 -20 -20 -20 -20 -20 -20 -20 -20 -20 -20 -20 -20 -20 -20 -20 -20 -20 -20 -20 -20 -20 -20 -20 -20 -20 -20 -20 -20 -20 -20 -20 -20 -20 -20 -20 -20 -20 -20 -20 -20 -16 12 -5 -20 -20
-20 -20 -20 -20 -20 -20 -20 -20 -20 -20 -20 -20 -20 -20 -20 -20 -20 -20 -20 -20 -20 -20 -20 -20 -20 -20 -20 -20 -20 -20 -20 -20 -20 -20 -20 -20 -20 -20 -20 -20 -20 -20 -20 -20 -20 -20 -20 -20 -20
-20 -20 -20 -20 -20 -20 -20 -20 -20 -20 -20 -20 -20 -20 -20 -20 -20 -20 -20 -20 -20 -20 -20 -20 -20 -20 -20 -20 -20 -20 -20 -20 -20 -20 -20 -20 -20 -20 -20 -20 -20 -20 -20 -20 -20 -20 -20 -20 -20
-20 -20 -20 -20 -20 -20 -20 -20 -20 -20 -20 -20 -20 -20 -20 -20 -20 -20 -20 -20 -20 -20 -20 -20 -20 -20 -20 -20 -20 -20 -20 -20 -20 -20 -20 -20 -20 -20 -20 -15 9 -20 -20 -20 -20 -20 -20 -20 -20
-20 -20 -20 -20 -20 -20 -20 -20 -20 -20 -20 -20 -20 -20 -20 -20 -20 -20 -20 -20 -20 -20 -20 -20 -20 -20 -20 -20 -20 -20 -20 -20 -20 -20 -20 -20 -20 -20 -20 -20 -20 -20 -20 -20 -20 -20 -20 -20 -20
-20 -20 -20 -20 -20 -20 -20 -20 -20 -20 -20 -20 -20 -20 -20 -20 -20 -20 -20 -20 -20 -20 -20 -20 -20 -20 -20 -20 -20 -20 -20 -20 -20 -15 -20 4 8 -7 -20 -20 -20 -20 -20 -20 -20 -20 -20 -20 -20
0 -17 -20 -20 -20 -20 -20 -20 -20 -20 -20 -20 -20 -20 -20 -20 -20 -20 -20 -20 -20 -20 -20 -20 -20 -20 -20 -20 -20 15 -13 -9 -3 15 -1 12 -15 -20 -20 -20 -20 -20 -20 -20 -20 -20 -20 -20 -20
-18 -20 -20 -20 -20 -20 -14 -20 -20 -20 -20 -20 -20 -20 -20 -20 -20 -20 -20 -20 -20 -20 -20 -20 -20 -20 -20 -20 -20 10 13 12 3 7 -3 -20 -20 -13 -20 -20 -20 -20 -20 -20 -20 -20 -20 -20 -20
-19 -1 -12 -15 -20 -20 -20 -20 -20 -20 -20 -20 -20 -20 -20 -20 -20 -20 -20 -20 -20 -20 -20 -20 -20 -20 -20 -20 -1 9 13 15 9 9 7 -20 -20 -20 -20 -20 -20 -20 -20 -20 -20 -20 -20 -20 -20
5 -20 -20 -20 -20 -20 -20 -20 -20 -20 -20 -20 -20 -20 -20 -20 -20 -20 -20 -20 -20 -20 -20 -20 -20 -20 -20 -20 -20 14 16 7 5 0 -20 -20 -20 -20 -20 -20 -20 -20 -20 -20 -20 -20 -20 -20 -20
-20 6 4 -15 -20 -16 -20 -20 -20 -20 -20 -20 -20 -20 -20 -20 -20 -20 -20 -20 -20 -20 -20 -20 -20 -20 -20 -20 -20 -20 0 8 -15 -20 -20 -20 -20 -20 -20 -20 -20 -20 -20 -20 -20 -20 -20 -20 -20
-20 -20 -10 -6 -20 -20 -20 -20 -20 -20 -20 -20 -20 -20 -20 -20 -20 -20 -20 -20 -20 -20 -20 -20 -20 -20 -20 -20 -20 -20 -2 -20 -20 -20 -20 -20 -20 -20 -20 -20 -20 -20 -20 -20 -20 -20 -20 -20 -20
-7 -20 -20 -20 -8 -8 -11 -15 -20 -20 -20 -20 -20 -20 -20 -20 -20 -20 -20 -20 -20 -20 -20 -20 -20 -20 -20 -20 -20 -20 -20 -20 -20 -20 -20 -20 -20 -20 -20 -20 -20 -20 -20 -20 -20 -20 -20 -20 -20
-7 -20 -20 -0 12 8 -20 2 -20 -20 -20 -20 -20 -20 -20 -20 -20 -20 -20 -20 -20 -20 -20 -20 -20 -20 -20 -20 -20 -20 -20 -20 -20 -20 -20 -20 -20 -20 -20 -20 -20 -20 -20 -20 -20 -20 -20 -20 -20
-20 -9 -20 -20 -17 7 -20 -20 -20 -20 -20 -20 -20 -20 -20 -20 -20 -20 -20 -20 -20 -20 -20 -20 -20 -20 -20 -20 -20 -20 -20 -20 -20 -20 -20 -20 -20 -20 -20 -20 -20 -20 -20 -20 -20 -20 -20 -20 -20
-20 7 13 15 8 -0 -20 -20 -20 -20 -20 -20 -20 -20 -20 -20 -20 -20 -20 -20 -20 -20 -20 -20 -20 -20 -20 -20 -20 -20 -20 -20 -20 -20 -20 -20 -20 -20 -20 -20 -20 -20 -20 -20 -20 -20 -20 -20 -20
-20 -20 -14 -4 -19 -20 -20 -20 -20 -20 -20 -20 -20 -20 -20 -20 -20 -20 -20 -20 -20 -20 -20 -20 -20 -20 -20 -20 -20 -20 -20 -20 -20 -20 -20 -20 -20 -20 -20 -20 -20 -20 -20 -20 -20 -20 -20 -20 -20
20 11 0 -17 8 18 -20 -20 -20 -20 -20 -20 -20 -20 -20 -20 -20 -20 -20 -20 -20 -20 -20 -20 -20 -20 -20 -20 -20 -20 -20 -20 -20 -20 -20 -20 -20 -20 -20 -20 -20 -20 -20 -20 -20 -20 -20 -20 -20
-14 -10 13 23 14 20 -17 0 -20 -20 -20 -20 -20 -20 -20 -20 -20 -20 -20 -20 -20 -20 -20 -20 -20 -20 -20 -20 -20 -20 -20 -20 -20 -20 -20 -20 -20 -20 -20 -20 -20 -20 -20 -20 -20 -20 -20 -20 -20
-20 2 -17 -20 -20 -12 -10 -20 -20 -20 -20 -20 -20 -20 -20 -20 -20 -20 -20 -20 -20 -20 -20 -20 -20 -20 -20 -20 -20 -20 -20 -20 -20 -20 -20 -20 -20 -20 -20 -20 -20 -20 -20 -20 -20 -20 -20 -20 -20
-14 -20 -20 10 -20 -20 -1 -15 -18 -20 -20 -20 -20 -20 -4 4 -20 -20 -20 -20 -20 -20 -20 -20 -20 -20 -20 -20 -20 -20 -20 -20 -20 -20 -20 -20 -20 -20 -20 -20 -20 -20 -20 -20 -20 -20 -20 -20 -20

GFSSGP_prec_radar_006.txt.gz
Reflectivity
-20 -20 -20 -20 -20 -20 -20 -20 -20 -20 -20 -20 -20 -20 -16 -20 -20 -20 -20 -20 -20 -20 -20 -20 -13 -20 -20 -20 -20 -20 -20 -20 -20 -20 -6 -20 -8 -20 -18 -20 -16 -20 -20 -20 -20 -20 -20 -20 -20
-20 -20 -20 -20 -20 -20 -20 -20 -20 -20 -20 -20 -20 -20 -14 -20 -19 -20 -20 -20 -20 -20 -20 -20 13 -17 -20 -20 -20 -20 -20 -20 -20 -20 -20 5 -14 17 11 9 -15 -20 -20 -20 -20 -20 -20 -20 -20
-20 -20 -20 -20 -20 -20 -20 -20 -20 -20 -20 -20 -20 -20 -20 -20 -20 -20 -20 -20 -20 -20 -20 -20 14 -3 -11 -20 -20 -20 -20 -20 -20 -20 -20 1 16 -9 -20 -20 -20 -20 -20 -20 -20 -20 -20 -20 -20
-20 -20 -20 -20 -20 -20 -20 -20 -20 -20 -20 -20 -20 -20 -20 -20 -20 -20 -20 -20 -20 -20 -20 -20 -20 -20 4 -20 -20 -20 -20 -20 -20 -20 -20 -16 13 9 14 5 -20 -20 -20 -20 -20 -20 -20 -20 -20
-20 -20 -20 -20 -20 -20 -20 -20 -20 -20 -20 -20 -20 -20 -20 -20 -20 -20 -20 -20 -20 -20 -20 -20 -17 -20 -20 -20 -20 -20 -20 -20 -20 -20 -20 -15 13 14 18 15 -20 -20 -20 -20 -20 -20 -20 -20 -20
-20 -20 -20 -20 -20 -20 -20 -20 -20 -20 -20 -20 -20 -20 -20 -20 -20 -20 -20 -20 -20 -20 -20 -20 -14 -12 -17 -20 -20 -20 -20 -20 -20 -20 -20 -20 -20 -20 16 15 7 -20 -20 -20 -20 -20 -20 -20 -20
-20 -20 -20 -20 -20 -20 -20 -20 -20 -20 -20 -20 -20 -20 -20 -20 -20 -20 -20 -20 -20 -20 -20 -20 -12 -20 -20 -20 -20 -20 -20 -20 -20 -20 -20 -20 -20 -20 -20 -20 -20 -20 -20 -20 -20 -20 -20 -20 -20
-20 -20 -20 -20 -20 -20 -20 -20 -20 -20 -20 -20 -20 -20 -20 -20 -20 -20 -20 -20 -20 -20 -20 -20 1 4 -20 -20 -20 -20 -20 -20 -20 -20 -20 -20 -20 -20 -20 -20 -20 -20 -20 -20 -20 -20 -20 -20 -20
-20 -20 -20 -20 -20 -20 -20 -20 -20 -20 -20 -20 -20 -20 -20 -20 -20 -20 -20 -20 -20 -20 -19 -20 1 -20 -20 -20 -20 -20 -20 -20 -20 -20 -20 -20 -20 -20 -20 -20 -20 -20 -20 -20 -20 14 12 -20 -20
-20 -20 -20 -20 -20 -20 -20 -20 -20 -20 -20 -20 -20 -20 -20 -20 -20 -20 -20 -20 -20 -20 -20 -20 -20 -20 -20 -20 -20 -20 -20 -20 -20 -20 -20 -20 -20 -20 -20 -20 -20 -20 -20 -20 -20 -20 -20 -20 -20
-20 -20 -20 -20 -20 -20 -20 -20 -20 -20 -20 -20 -20 -20 -20 -20 -20 -20 -20 -20 -20 -20 -20 2 -2 -19 -20 -20 -20 -20 -20 -20 -20 -20 -20 -20 -20 -20 -20 -20 -20 -20 -20 -10 -20 -20 -20 -20 -20
-20 -20 -20 -20 -20 -20 -20 -20 -20 -20 -20 -20 -20 -20 -20 -20 -20 -20 -20 -20 -20 -20 -20 -20 -20 -20 -20 -20 -20 -20 -20 -20 -20 -20 -20 -20 -20 -20 -20 -20 -20 -20 2 -20 -20 -20 -20 -20 -20
-20 -20 -20 -20 -20 -20 -20 -20 -20 -20 -20 -20 -20 -20 -20 -20 -20 -20 -20 -20 -20 -20 -20 -20 -20 -20 -20 -20 -20 -20 -20 -20 -20 -20 -20 -20 -20 -20 -20 -11 -5 -5 -20 -20 -20 -20 -20 -20 -20
-20 -20 -20 -20 -20 -20 -20 -20 -20 -20 -20 -20 -20 -20 -20 -20 -20 -20 -20 -20 -20 -20 -20 -20 -20 -20 -20 -20 -20 -20 -20 -20 -20 -20 -20 -20 12 -10 -20 9 -20 -20 -20 -20 -20 -20 -20 -20 -20
-20 -20 -20 -20 -20 -20 -20 -20 -20 -20 -20 -20 -20 -20 -20 -20 -20 -20 -20 -20 -20 -20 -20 -20 -20 -20 -20 -20 -20 -20 -20 -20 -20 4 -20 10 12 13 -19 -20 -20 -20 -20 -20 -20 -20 -20 -20 -20
-17 -15 -20 -20 -20 -20 -20 -20 -20 -20 -20 -20 -20 -20 -20 -20 -20 -20 -20 -20 -20 -20 -20 -20 -20 -20 -20 -20 -20 -14 -20 22 8 8 16 13 10 -4 5 -20 -20 -20 -20 -20 -20 -20 -20 -20 -20
-20 -20 -20 -20 -20 -20 -20 -20 -20 -20 -20 -20 -20 -20 -20 -20 -20 -20 -20 -20 -20 -20 -20 -20 -20 -20 -20 -20 -20 14 -8 -0 9 8 14 10 -20 -20 -20 -20 -20 -20 -20 -20 -20 -20 -20 -20 -20
-20 -15 -20 -20 -20 -20 -20 -20 -20 -20 -20 -20 -20 -20 -20 -20 -20 -20 -20 -20 -20 -20 -20 -20 -20 -20 -20 -20 -20 13 8 -0 8 11 9 7 -18 -20 -20 -20 -20 -20 -20 -20 -20 -20 -20 -20 -20
-20 -20 -20 -20 -20 -20 -20 -20 -20 -20 -20 -20 -20 -20 -20 -20 -20 -20 -20 -20 -20 -20 -20 -20 -20 -20 -20 -20 -19 4 -4 8 2 12 8 7 -20 -20 -20 -20 -20 -20 -20 -20 -20 -20 -20 -20 -20
-2 -20 -11 -20 -20 -20 -20 -20 -20 -20 -20 -20 -20 -20 -20 -20 -20 -20 -20 -20 -20 -20 -20 -20 -20 -20 -18 -20 -20 -20 -17 3 -7 -8 -3 -20 -20 -20 -20 -20 -20 -20 -20 -20 -20 -20 -20 -20 -20
-20 -20 -20 -20 -20 -20 -20 -20 -20 -20 -20 -20 -20 -20 -20 -20 -20 -20 -20 -20 -20 -20 -20 -20 -20 -20 -16 -20 -20 -20 -15 -16 -15 -15 -20 -20 -20 -20 -20 -20 -20 -20 -20 -20 -20 -20 -20 -20 -20
-20 -20 -20 -20 -20 -20 -20 -20 -20 -20 -20 -20 -20 -20 -20 -20 -20 -20 -20 -20 -20 -20 -20 -20 -20 -20 -20 -6 -18 -20 -20 -20 -20 -20 -20 -20 -20 -20 -20 -20 -20 -20 -20 -20 -20 -20 -20 -20 -20
-5 -20 -20 -6 8 -12 -20 6 -20 -20 -20 -20 -20 -20 -20 -20 -20 -20 -20 -20 -20 -20 -20 -20 -20 -20 -20 2 -10 -20 -20 -20 -20 -20 -20 -20 -20 -20 -20 -20 -20 -20 -20 -20 -20 -20 -20 -20 -20
-20 -20 -20 -10 4 3 -20 -20 -20 -20 -20 -20 -20 -20 -20 -20 -20 -20 -20 -20 -20 -20 -20 -20 -20 -20 -2 1 -20 -20 -20 -20 -20 -20 -20 -20 -20 -20 -20 -20 -20 -20 -20 -20 -20 -20 -20 -20 -20
-3 7 0 14 8 -16 -20 -20 -20 -20 -20 -20 -20 -20 -20 -20 -20 -20 -20 -20 -20 -20 -20 -20 -20 -20 -2 -20 -20 -20 -20 -20 -20 -20 -20 -20 -20 -20 -20 -20 -20 -20 -20 -20 -20 -20 -20 -20 -20
-2 3 -18 -20 -20 -20 -20 -20 -20 -20 -20 -20 -20 -20 -20 -20 -20 -20 -20 -20 -20 -20 -20 -20 -20 -20 -20 -20 -20 -20 -20 -20 -20 -20 -20 -20 -20 -20 -20 -20 -20 -20 -20 -20 -20 -20 -20 -20 -20
26 16 -4 -0 -19 -6 -20 -20 -20 -20 -20 -20 -20 -20 -20 -20 -20 -20 -20 -20 -20 -20 -20 -20 -20 -20 -20 -20 -20 -20 -20 -20 -20 -20 -20 -20 -20 -20 -20 -20 -20 -20 -20 -20 -20 -20 -20 -20 -20
-11 11 19 13 2 -20 -20 -20 -20 -20 -20 -20 -20 -20 -20 -20 -20 -20 -20 -20 -20 -20 -20 -20 -20 -20 -20 -20 -20 -20 -20 -20 -20 -20 -20 -20 -20 -20 -20 -20 -20 -20 -20 -20 -20 -20 -20 -20 -20
-9 12 8 5 -19 -20 -20 -20 -20 -20 -20 -20 -20 -20 -20 -20 -20 -20 -20 -20 -20 -20 -20 -20 -20 -20 -20 -20 -20 -20 -20 -20 -20 -20 -20 -20 -20 -20 -20 -20 -20 -20 -20 -20 -20 -20 -20 -20 -20
-20 -20 -20 -11 -20 -20 -20 -20 -20 -20 -20 -20 -20 -20 -20 -20 -20 -20 -20 -20 -20 -20 -20 -20 -20 -20 -20 -20 -20 -20 -20 -20 -20 -20 -20 -20 -20 -20 -20 -20 -20 -20 -20 -20 -20 -20 -20 -20 -20

GFSSGP_prec_radar_009.txt.gz
Reflectivity
-20 -20 -20 -20 -20 -20 -20 -20 -20 -20 -20 -20 -20 -20 -20 -20 -20 -20 -20 -20 -20 -20 -20 -20 -3 -15 -20 -20 -20 -20 -20 -20 -20 -3 13 -20 -20 -20 -20 -20 -20 -20 -20 -20 -20 -20 -20 -20 -20
-20 -20 -20 -20 -20 -20 -20 -20 -20 -20 -20 -20 -20 -20 -20 -20 -20 -20 -20 -20 -20 -20 -20 -20 -2 -12 -20 -20 -20 -20 -20 -20 -20 -20 -20 -20 6 12 -7 -16 -20 -20 -20 -20 -20 -20 -20 -20 -20
-20 -20 -20 -20 -20 -20 -20 -20 -20 -20 -20 -20 -20 -20 -20 -20 5 -20 1 -20 -19 -20 -20 -20 12 -20 -17 -20 -20 -20 -20 -20 -20 -20 8 -9 -5 -3 -20 -20 -20 -20 -20 -20 -20 -20 -20 -20 -20
-20 -20 -20 -20 -20 -20 -20 -20 -20 -20 -20 -20 -20 -20 -20 -20 -20 -20 -20 -20 -20 -18 -20 -20 15 -20 -20 -20 -20 -20 -20 -20 -20 -20 -20 8 13 11 10 -20 -20 -20 -20 -20 -20 -20 -20 -20 -20
-20 -20 -20 -20 -20 -20 -20 -20 -20 -20 -20 -20 -20 -20 -20 -20 -20 -20 -20 -20 -20 -20 -20 -20 1 -16 7 -20 -20 -20 -20 -20 -20 -20 -20 -14 14 -2 15 -20 -20 -20 -20 -20 -20 -17 -15 -10 -20
-20 -20 -20 -20 -20 -20 -20 -20 -20 -20 -20 -20 -20 -20 -20 -20 -20 -20 -20 -20 -20 -20 -20 -20 -1 -20 -17 -20 -20 -20 -20 -20 -20 -20 -20 -20 -19 -20 -2 -20 -20 -20 -20 -20 -20 -20 -20 -20 -20
-20 -20 -20 -20 -20 -20 -20 -20 -20 -20 -20 -20 -20 -20 -20 -20 -20 -20 -20 -20 -20 -20 -20 -20 -16 -16 -15 -20 -20 -20 -20 -20 -20 -20 -20 -20 -20 -20 -13 -20 -20 -20 -20 -20 -20 -20 -20 -20 5
-20 -20 -20 -20 -20 -20 -20 -20 -20 -20 -20 -20 -20 -20 -20 -20 -20 -20 -20 -20 -20 -20 -20 -6 -20 -0 10 1 -20 -20 -20 -20 -20 -20 -20 -20 -20 -20 -20 -20 -20 -20 -20 -20 -20 8 8 -20 -20
-20 -20 -20 -20 -20 -20 -20 -20 -20 -20 -20 -20 -20 -20 -20 -20 -20 -20 -20 -20 -20 -20 -20 -20 -15 -6 5 -20 -20 -20 -20 -20 -20 -20 -20 -20 -20 -20 -20 -20 -20 -20 -20 -20 -20 -20 -20 -20 -20
-20 -20 -20 -20 -20 -20 -20 -20 -20 -20 -20 -20 -20 -20 -20 -20 -20 -20 -20 -20 -20 -20 -20 -3 -18 -7 -20 -4 -20 -20 -20 -20 -20 -20 -20 -20 -20 -20 -20 -20 -20 -20 -20 -20 -20 -20 -20 -20 -20
-20 -20 -20 -20 -20 -20 -20 -20 -20 -20 -20 -20 -20 -20 -20 -20 -20 -20 -20 -20 -20 -20 -20 -20 -20 -19 -5 -1 -20 -20 -20 -20 -20 -20 -20 -20 -20 -20 -20 -20 -20 -20 -20 -20 -20 -20 -20 -20 -20
-20 -20 -20 -20 -20 -20 -20 -20 -20 -20 -20 -20 -20 -20 -20 -20 -20 -20 -20 -20 -20 -20 -20 -20 -14 11 -10 -20 -20 -20 -20 -20 -20 -20 -20 -20 -20 -20 -20 -20 -20 -20 -20 -20 -20 -20 -20 -20 -20
-20 -20 -20 -20 -20 -20 -20 -20 -20 -20 -20 -20 -20 -20 -20 -20 -20 -20 -20 -20 -20 -20 -20 -20 -20 -20 -10 -20 -20 -20 -20 -20 -20 -20 -20 -20 -20 -20 -20 -13 -17 -20 -20 -20 -20 -20 -20 -20 -20
-20 -20 -20 -20 -20 -20 -20 -20 -20 -20 -20 -20 -20 -20 -20 -20 -20 -20 -20 -20 -20 -20 -20 -20 -20 -20 -20 -20 -20 -20 -20 -20 -20 -20 -20 -20 -20 -11 -16 -7 -13 -20 -20 -20 -20 -20 -20 -20 -20
-20 -20 -20 -20 -20 -20 -20 -20 -20 -20 -20 -20 -20 -20 -20 -20 -20 -20 -20 -20 -20 -20 -20 -20 -20 -20 -20 -20 -20 -20 -20 -20 -20 -20 -20 -20 -8 2 -9 -19 -20 -20 -20 -20 -20 -20 -20 -20 -20
-19 -20 -20 -20 -20 -20 -20 -20 -20 -20 -20 -20 -20 -20 -20 -20 -20 -20 -20 -20 -20 -20 -20 -20 -20 -20 -20 -20 -20 -20 -20 -20 -20 -6 6 -8 -6 -1 -12 -20 -20 -20 -20 -20 -20 -20 -20 -20 -20
-20 -20 -20 -20 -20 -20 -20 -20 -20 -20 -20 -20 -20 -20 -20 -20 -20 -20 -20 -20 -20 -20 -20 -20 -20 -20 -20 -20 -20 -20 -20 -12 -12 -4 2 -8 6 -20 -20 -20 -20 -20 -20 -20 -20 -20 -20 -20 -20
-20 -20 -20 -20 -20 -20 -20 -20 -20 -20 -20 -20 -20 -20 -20 -20 -20 -20 -20 -20 -20 -20 -20 -20 -20 -20 -20 -20 -20 3 15 -20 2 -14 11 -6 -2 -20 -20 -20 -20 -20 -20 -20 -20 -20 -20 -20 -20
-20 -20 -20 -20 -20 -20 -20 -20 -20 -20 -20 -20 -20 -20 -20 -20 -20 -20 -20 -20 -20 -20 -20 -20 -20 -20 -20 -20 -20 -20 -9 -1 11 10 4 2 -3 -20 -20 -20 -20 -20 -20 -20 -20 -20 -20 -20 -20
-20 -14 -16 -20 -20 -20 -20 -20 -20 -20 -20 -20 -20 -20 -20 -20 -20 -20 -20 -20 -20 -20 -20 -20 -20 -20 -20 -19 -20 -20 -20 5 1 10 14 2 -5 -20 -20 -20 -20 -20 -20 -20 -20 -20 -20 -20 -20
-12 -20 -20 -20 -20 -20 -20 -20 -20 -20 -20 -20 -20 -20 -20 -20 -20 -20 -20 -20 -20 -20 -20 -20 -20 -20 -20 -20 14 -20 4 9 4 15 11 -6 -20 -20 -20 -20 -20 -20 -20 -20 -20 -20 -20 -20 -20
-20 -20 -20 -20 1 -20 -20 -20 -20 -20 -20 -20 -20 -20 -20 -20 -20 -20 -20 -20 -20 -20 -20 -20 -20 -20 18 -20 -14 -20 -20 -20 -20 -20 6 -20 -20 -20 -20 -20 -20 -20 -20 -20 -20 -20 -20 -20 -20
-20 -20 -20 -20 3 1 -10 11 -20 -20 -20 -20 -20 -20 -20 -20 -20 -20 -20 -20 -20 -20 -20 -20 -20 -20 -20 -20 -20 -20 -19 -20 -20 0 -20 -20 -20 -20 -20 -20 -20 -20 -20 -20 -20 -20 -20 -20 -20
-20 0 -20 -20 -17 12 -20 -20 -20 -20 -20 -20 -20 -20 -20 -20 -20 -20 -20 -20 -20 -20 -20 -20 -20 -20 -20 -20 -12 -4 -13 -20 -20 -20 -20 -20 -20 -20 -20 -20 -20 -20 -20 -20 -20 -20 -20 -20 -20
-20 13 -1 14 15 -10 -20 -20 -20 -20 -20 -20 -20 -20 -20 -20 -20 -20 -20 -20 -20 -20 -20 -20 -20 -20 -20 -20 -20 12 -20 -20 -20 -20 -20 -20 -20 -20 -20 -20 -20 -20 -20 -20 -20 -20 -20 -20 -20
-20 -20 -17 -7 -20 -20 -20 -20 -20 -20 -20 -20 -20 -20 -20 -20 -20 -20 -20 -20 -20 -20 -20 -20 -20 -20 -20 -20 4 -6 -19 -20 -20 -20 -20 -20 -20 -20 -20 -20 -20 -20 -20 -20 -20 -20 -20 -20 -20
1 -5 -20 19 13 19 -10 -20 -20 -20 -20 -20 -20 -20 -20 -20 -20 -20 -20 -20 -20 -20 -20 -20 -20 -20 -20 -10 1 6 -2 -20 -20 -20 -20 -20 -20 -20 -20 -20 -20 -20 -20 -20 -20 -20 -20 -20 -20
-12 -7 -6 4 9 9 -20 -20 -20 -20 -20 -20 -20 -20 -20 -20 -20 -20 -20 -20 -20 -20 -20 -20 -20 -20 -3 13 7 -20 -20 -20 -20 -20 -20 -20 -20 -20 -20 -20 -20 -20 -20 -20 -20 -20 -20 -20 -20
0 5 -2 2 17 -4 -20 -20 -20 -20 -20 -20 -20 -20 -20 -20 -20 -20 -20 -20 -20 -20 -20 -20 -20 -20 -5 -10 -20 -20 -20 -20 -20 -20 -20 -20 -20 -20 -20 -20 -20 -20 -20 -20 -20 -20 -20 -20 -20
-20 -9 10 6 -16 -19 -20 -20 -20 -20 -20 -20 -20 -20 -20 -20 -20 -20 -20 -20 -20 -20 -20 -20 -20 -9 -11 -20 -20 -20 -20 -20 -20 -20 -20 -20 -20 -20 -20 -20 -20 -20 -20 -20 -20 -20 -20 -20 -20

GFSSGP_prec_radar_012.txt.gz
Reflectivity
-20 -20 -20 -20 -20 -20 -20 -20 -20 -20 -20 -20 -20 -20 -20 -20 -20 -20 -20 -20 -20 -20 -20 -20 -14 -20 -15 -20 -20 -20 -20 -20 -20 -6 -20 -20 -20 -20 -20 -20 -20 -20 -20 -20 -20 -20 -20 -20 -20
-20 -20 -20 -20 -20 -20 -20 -20 -20 -20 -20 -20 -20 -20 -20 -20 -20 -20 -20 -20 -20 -20 -20 -20 -10 10 -20 -20 -20 -20 -20 -20 -20 -16 -20 -20 -20 -20 -20 -20 -20 -20 -20 -20 -20 -20 -20 -20 -20
-20 -20 -20 -20 -20 -20 -20 -20 -20 -20 -20 -20 -20 -20 -20 -20 -20 -20 -20 -20 -20 -20 -20 -20 9 13 -20 -20 -20 -20 -20 -20 -20 -20 -20 -20 -20 -20 -20 -20 -20 -20 -20 -20 -20 -20 -20 -20 -20
-20 -20 -20 -20 -20 -20 -20 -20 -20 -20 -20 -20 -20 -20 -20 -20 -20 -20 -20 -20 -20 -20 -20 -19 -20 -20 -20 -4 -20 -20 -20 -20 -20 -20 -20 -20 10 12 -20 -20 -20 -20 -20 -20 -20 -20 -20 -20 -20
-20 -20 -20 -20 -20 -20 -20 -20 -20 -20 -20 -20 -20 -20 -20 -20 -20 -20 -20 -20 -20 -20 -20 -20 -13 11 -20 -4 -20 -15 -20 -20 -20 -20 -20 -20 -20 5 9 -20 -20 -20 -20 -20 -20 -20 -20 -20 -20
-20 -20 -20 -20 -20 -20 -20 -20 -20 -20 -20 -20 -20 -20 -20 -20 -20 -20 -20 -20 -20 -20 -20 -20 0 12 -20 -20 -17 -20 -20 -20 -20 -20 -20 -20 -20 -20 -1 -20 -20 -20 -20 -20 -20 -20 -20 -20 -17
-20 -20 -20 -20 -20 -20 -20 -20 -20 -20 -20 -20 -20 -20 -20 -20 -20 -20 -20 -20 -20 -20 -20 -20 -3 10 -15 12 -2 -20 -20 -20 -20 -20 -20 -20 -20 -20 22 5 -20 -20 -20 -20 -20 -20 6 2 -19
-20 -20 -20 -20 -20 -20 -20 -20 -20 -20 -20 -20 -20 -20 -20 -20 -20 -20 -20 -20 -20 -20 -20 -20 -20 -9 13 13 -19 -20 -20 -20 -20 -20 -20 -20 -20 -20 -20 -20 -20 -20 -20 -20 -19 -16 -20 -20 -20
-20 -20 -20 -20 -20 -20 -20 -20 -20 -20 -20 -20 -20 -20 -20 -20 -20 -20 -20 -20 -20 -20 -20 -20 -20 -20 12 9 -8 -20 -20 -20 -20 -20 -20 -20 -20 -20 -20 -20 -20 -20 -20 -20 -20 -20 -20 -20 -20
-20 -20 -20 -20 -20 -20 -20 -20 -20 -20 -20 -20 -20 -20 -20 -20 -20 -20 -20 -20 -20 -20 -20 -20 -20 5 3 2 3 -9 -20 -20 -20 -20 -20 -20 -20 -20 -20 -20 -20 -20 -20 -20 -20 -20 -20 -20 -20
-20 -20 -20 -20 -20 -20 -20 -20 -20 -20 -20 -20 -20 -20 -20 -20 -20 -20 -20 -20 -20 -20 -20 -20 -20 0 7 4 2 -20 -20 -1 0 -20 -20 -20 -20 -20 -20 -20 -20 -7 -20 -20 -20 -20 -20 -20 -20
-20 -20 -20 -20 -20 -20 -20 -20 -20 -20 -20 -20 -20 -20 -20 -20 -20 -20 -20 -20 -20 -20 -20 -20 -20 -8 -0 0 -1 -2 -20 -20 -6 -20 -20 -20 -20 -20 -20 -6 3 -20 -20 -20 -20 -20 -20 -20 -20
-20 -20 -20 -20 -20 -20 -20 -20 -20 -20 -20 -20 -20 -20 -20 -20 -20 -20 -20 -20 -20 -20 -20 -20 -20 -17 -16 -0 3 -7 -20 -20 -20 -20 -20 -20 -20 -20 -20 -20 -20 -20 -20 -20 -20 -20 -20 -20 -20
-20 -20 -20 -20 -20 -20 -20 -20 -20 -20 -20 -20 -20 -20 -20 -20 -20 -20 -20 -20 -20 -20 -20 -20 -20 -20 -13 -18 -12 -15 -20 -20 0 -20 -20 -20 -20 -13 -20 -20 -20 -20 -20 -20 -20 -20 -20 -20 -20
-20 -20 -20 -20 -20 -20 -20 -20 -20 -20 -20 -20 -20 -20 -20 -20 -20 -20 -20 -20 -20 -20 -20 -20 -20 -20 -20 -11 -10 -20 -20 -20 1 -20 -20 -20 -20 -20 -20 -20 -20 -20 -20 -20 -20 -20 -20 -20 -20
-20 -20 -20 -20 -20 -20 -20 -20 -20 -20 -20 -20 -20 -20 -20 -20 -20 -20 -20 -20 -20 -20 -20 -20 -20 -20 -4 5 0 -19 -20 -20 -20 -1 -20 -20 -20 -20 -20 -20 -20 -20 -20 -20 -20 -20 -20 -20 -20
-20 -20 -20 -20 -20 -20 -20 -20 -20 -20 -20 -20 -20 -20 -20 -20 -20 -20 -20 -20 -20 -20 -20 -20 -20 -20 -20 -19 -2 -5 -20 -20 -20 -20 -20 -20 -20 -20 -20 -20 -20 -20 -20 -20 -20 -20 -20 -20 -20
-20 -20 -20 -20 -20 -20 -20 -20 -20 -20 -20 -20 -20 -20 -20 -20 -20 -20 -20 -20 -20 -20 -20 -20 -20 -20 -20 -9 0 2 -19 -20 -20 -20 -20 -20 -9 -20 -20 -20 -20 -20 -20 -20 -20 -20 -20 -20 -20
-20 -20 -20 -20 -20 -20 -20 -20 -20 -20 -20 -20 -20 -20 -20 -20 -20 -20 -20 -20 -20 -20 -20 -20 -20 -20 -20 -15 -20 -20 -20 -20 -20 -20 -20 -20 -20 -20 -20 -20 -20 -20 -20 -20 -20 -20 -20 -20 -20
-20 -20 -20 -20 -20 -20 -20 -20 -20 -20 -20 -20 -20 -20 -20 -20 -20 -20 -20 -20 -20 -20 -20 -20 -20 -20 -20 -20 -20 -9 -9 -20 -20 -20 -2 -5 -12 -3 -20 -20 -20 -20 -20 -20 -20 -20 -20 -20 -20
-20 -9 -20 -20 -20 -20 -20 -20 -20 -20 -20 -20 -20 -20 -20 -20 -20 -20 -20 -20 -20 -20 -20 -20 -20 -20 -20 -20 -20 -9 -20 -20 -20 -20 -6 9 4 4 -20 -20 -20 -20 -20 -20 -20 -20 -20 -20 -20
-20 -20 -20 -14 -16 -8 -20 -20 -20 -20 -20 -20 -20 -20 -20 -20 -20 -20 -20 -20 -20 -20 -20 -20 -20 -20 -20 -20 -20 -20 -15 -20 -15 -20 -3 19 -1 -17 -20 -20 -20 -20 -20 -20 -20 -20 -20 -20 -20
-20 -20 -20 -20 0 -6 -20 -9 -20 -20 -20 -20 -20 -20 -20 -20 -20 -20 -20 -20 -20 -20 -20 -20 -20 -20 -20 -20 -20 24 -20 -20 -20 12 -4 -2 -10 -20 -20 -20 -20 -20 -20 -20 -20 -20 -20 -20 -20
-20 -12 1 -8 2 8 -20 -20 -20 -20 -20 -20 -20 -20 -20 -20 -20 -20 -20 -20 -20 -20 -20 -20 -20 -20 -20 -20 -20 -20 -20 -20 -20 -7 -13 -10 -20 -20 -20 -20 -20 -20 -20 -20 -20 -20 -20 -20 -20
2 6 -14 0 3 -20 -20 -20 -20 -20 -20 -20 -20 -20 -20 -20 -20 -20 -20 -20 -20 -20 -20 -20 -20 -20 -20 -20 -20 -20 -20 -20 -4 -17 -20 -20 -20 -20 -20 -20 -20 -20 -20 -20 -20 -20 -20 -20 -20
-20 -17 -18 -20 -20 -20 -17 -12 -20 -20 -20 -20 -20 -20 -20 -20 -20 -20 -20 -20 -20 -20 -20 -20 -20 -20 -20 -20 -20 -20 -20 20 -20 -20 -20 -20 -20 -20 -20 -20 -20 -20 -20 -20 -20 -20 -20 -20 -20
1 -7 -19 8 -20 7 -19 -20 -20 -20 -20 -20 -20 -20 -20 -20 -20 -20 -20 -20 -20 -20 -20 -20 -20 -20 -20 -20 -20 -20 -10 19 -20 -20 -20 -20 -20 -20 -20 -20 -20 -20 -20 -20 -20 -20 -20 -20 -20
-7 -10 9 15 3 9 -20 -18 -20 -20 -20 -13 -20 -20 -20 -20 -20 -20 -20 -20 -20 -20 -20 -20 -20 -20 -20 -20 -20 -20 12 -20 -20 -20 -20 -20 -20 -20 -20 -20 -20 -20 -20 -20 -20 -20 -20 -20 -20
-5 1 10 -4 16 10 5 -16 -20 -20 -20 -19 -20 -20 -20 -20 -20 -20 -20 -20 -20 -20 -20 -20 -20 -20 -20 -20 -20 6 4 -20 -20 -20 -20 -20 -20 -20 -20 -20 -20 -20 -20 -20 -20 -20 -20 -20 -20
-20 -20 -3 19 10 18 11 -12 4 -20 -20 -14 -20 -20 -20 -20 -20 -20 -20 -20 -20 -20 -20 -20 -20 -20 -20 -20 -15 5 7 2 -14 -20 -20 -20 -20 -20 -20 -20 -20 -20 -20 -20 -20 -20 -20 -20 -20

GFSSGP_prec_radar_015.txt.gz
Reflectivity
-20 -20 -20 -20 -20 -20 -20 -20 -20 -20 -20 -20 -20 -20 -20 -20 -20 -20 -20 -20 -20 -20 -20 -20 -20 -20 -20 -20 -20 -20 -20 -20 -11 -20 -20 -20 -20 -20 -20 -20 -20 -20 -20 -20 -20 -20 -20 -20 -20
-20 -20 -20 -20 -20 -20 -20 -20 -20 -20 -20 -20 -20 -20 -20 -20 -20 -20 -20 -20 -20 -20 -20 -20 -20 -20 -20 -20 -20 -20 -20 -20 -20 -20 -20 -20 -20 -20 -20 -20 -20 -20 -20 -20 -20 -20 -20 -20 -20
-20 -20 -20 -20 -20 -20 -20 -20 -20 -20 -20 -20 -20 -20 -20 -20 -20 -20 -20 -20 -20 -20 -20 -20 -20 -12 -20 -20 -20 -20 -20 -20 -20 -20 -20 -20 -20 -20 -20 -20 -20 -20 -20 -20 -20 -20 -20 -20 -20
-20 -20 -20 -20 -20 -20 -20 -20 -20 -20 -20 -20 -20 -20 -20 -20 -20 -20 -20 -20 -20 -20 -20 -20 7 13 -20 -20 -20 -20 -20 -20 -20 -20 -20 -20 -20 -20 -20 -20 -20 -20 -20 -20 -20 -20 -20 -20 -20
-20 -20 -20 -20 -20 -20 -20 -20 -20 -20 -20 -20 -20 -20 -20 -20 -20 -20 -20 -20 -20 -20 -20 -20 2 7 -19 -20 -20 -20 -20 -20 -20 -20 -20 -20 -20 9 -13 -20 -20 -20 -20 -20 -20 -20 -13 -20 -20
-20 -20 -20 -20 -20 -20 -20 -20 -20 -20 -20 -20 -20 -20 -20 -20 -20 -20 -20 -20 -20 -20 -20 -10 -5 15 6 -20 -15 -11 -20 -20 -20 -20 -20 -20 -20 -10 -20 -20 -20 -20 -20 -20 -20 -11 -20 -15 9
-20 -20 -20 -20 -20 -20 -20 -20 -20 -20 -20 -20 -20 -20 -20 -20 -20 -20 -20 -20 -20 -20 -20 -20 7 -1 -19 13 -20 -0 -20 -20 -20 -20 -20 -20 -20 -20 3 -20 -20 -20 -20 -20 -20 10 -6 -20 -20
-20 -20 -20 -20 -20 -20 -20 -20 -20 -20 -20 -20 -20 -20 -20 -20 -20 -20 -20 -20 -20 -20 -20 -20 -20 7 -16 -6 -20 -12 -20 -20 -20 -20 -20 -20 -20 -20 -20 8 -20 -20 -20 -20 -20 -20 -20 -20 -20
-20 -20 -20 -20 -20 -20 -20 -20 -20 -20 -20 -20 -20 -20 -20 -20 -20 -20 -20 -20 -20 -20 -20 -20 -20 -20 -11 -20 -20 -20 -20 -20 -20 -20 -20 -20 -20 -20 -20 -20 -20 -20 -20 -20 -20 -20 -20 -20 -20
-20 -20 -20 -20 -20 -20 -20 -20 -20 -20 -20 -20 -20 -20 -20 -20 -20 -20 -20 -20 -20 -20 -20 -20 -20 -20 -20 -13 -20 -20 -20 -20 -20 -20 -20 -20 -20 -20 -20 -20 -20 -20 -20 -20 -20 -20 -20 -20 -20
-20 -20 -20 -20 -20 -20 -20 -20 -20 -20 -20 -20 -20 -20 -20 -20 -20 -20 -20 -20 -20 -20 -20 -20 -20 -20 -20 -20 -7 -20 -20 -20 -20 -20 -20 -20 -20 -20 -20 -20 -20 -20 -20 -20 -20 -20 -20 -20 -20
-20 -20 -20 -20 -20 -20 -20 -20 -20 -20 -20 -20 -20 -20 -20 -20 -20 -20 -20 -20 -20 -20 -20 -20 -20 -20 -20 -20 -20 -20 -20 -20 -20 -20 -20 -20 -20 -20 -20 -20 -20 -20 -20 -20 -20 -20 -20 -20 -20
-20 -20 -20 -20 -20 -20 -20 -20 -20 -20 -20 -20 -20 -20 -20 -20 -20 -20 -20 -20 -20 -20 -20 -20 -20 -19 -11 -20 -20 -20 -20 -20 -20 -20 -20 -20 -20 -20 -20 -20 -20 -20 -20 -20 -20 -20 -20 -20 -20
-20 -20 -20 -20 -20 -20 -20 -20 -20 -20 -20 -20 -20 -20 -20 -20 -20 -20 -20 -20 -20 -20 -20 -20 -20 -20 -20 -19 -16 -20 -20 -20 -20 -20 -20 -20 -20 -20 -20 -20 -20 -20 -20 -20 -20 -20 -20 -20 -20
-20 -20 -20 -20 -20 -20 -20 -20 -20 -20 -20 -20 -20 -20 -20 -20 -20 -20 -20 -20 -20 -20 -20 -20 -20 -20 -20 -10 -19 0 -20 -20 -20 -4 -20 -20 -20 -20 -20 -20 -20 -20 -20 -20 -20 -20 -20 -20 -20
-20 -20 -20 -20 -20 -20 -20 -20 -20 -20 -20 -20 -20 -20 -20 -20 -20 -20 -20 -20 -20 -20 -20 -20 -20 -20 -20 -19 3 -13 -20 -20 -20 -5 -9 -16 -20 -20 -20 -20 -20 -20 -20 -20 -20 -20 -20 -20 -20
-20 -20 -20 -20 -20 -20 -20 -20 -20 -20 -20 -20 -20 -20 -20 -20 -20 -20 -20 -20 -20 -20 -20 -20 -20 -20 -20 -19 7 5 -17 -2 -17 -9 4 -20 -20 -20 -20 -20 -20 -20 -20 -20 -20 -20 -20 -20 -20
-20 -20 -20 -20 -20 -20 -20 -20 -20 -20 -20 -20 -20 -20 -20 -20 -20 -20 -20 -20 -20 -20 -20 -20 -20 -20 -20 -20 -0 7 7 9 -8 -20 -20 -20 -20 -20 -20 -20 -20 -20 -20 -20 -20 -20 -20 -20 -20
-20 -20 -20 -20 -20 -20 -20 -20 -20 -20 -20 -20 -20 -20 -20 -20 -20 -20 -20 -20 -20 -20 -20 -20 -20 -20 -20 -20 -20 3 -20 -12 -20 -20 -20 -20 -20 -20 -20 -20 -20 -20 -20 -20 -20 -20 -20 -20 -20
-20 -20 -20 -20 -20 -20 -20 -20 -20 -20 -20 -20 -20 -20 -20 -20 -20 -20 -20 -20 -20 -20 -20 -20 -20 -20 -20 -20 -20 -19 -7 -15 -20 -8 -20 -20 -20 -11 -0 -20 -20 -20 -20 -20 -20 -20 -20 -20 -20
-20 -20 -20 -20 -20 -20 -20 -20 -20 -20 -20 -20 -20 -20 -20 -20 -20 -20 -20 -20 -20 -20 -20 -20 -20 -20 -20 -20 -20 -12 -20 -20 -20 -20 -20 -20 -20 -10 -12 -19 -20 -20 -20 -20 -20 -20 -20 -20 -20
-20 -20 -20 -20 -20 -20 -20 -20 -20 -20 -20 -20 -20 -20 -20 -20 -20 -20 -20 -20 -20 -20 -20 -20 -20 -20 -20 -20 -20 -20 -20 -20 -20 -20 -20 -20 -19 -18 -0 -20 -20 -20 -20 -20 -20 -20 -20 -20 -20
-20 -20 -20 -20 -19 -20 -20 -20 -20 -20 -20 -20 -20 -20 -20 -20 -20 -20 -20 -20 -20 -20 -20 -20 -20 -20 -20 -20 -20 -20 -20 -20 -20 -20 -20 -20 -20 -1 8 -18 -20 -20 -20 -20 -20 -20 -20 -20 -20
-20 -20 -20 -20 -20 -2 -20 -20 -20 -20 -20 -20 -20 -20 -20 -20 -20 -20 -20 -20 -20 -20 -20 -20 -20 -20 -20 -20 -20 -20 -20 -20 -20 -20 -20 -20 -17 17 -9 -20 -20 -20 -20 -20 -20 -20 -20 -20 -20
-20 -18 -20 3 7 -20 -20 -20 -20 -20 -20 -20 -20 -20 -20 -20 -20 -20 -20 -20 -20 -20 -20 -20 -20 -20 -20 -20 -20 -20 -20 2 -9 -20 -20 -14 -6 10 -20 -20 -20 -20 -20 -20 -20 -20 -20 -20 -20
-20 -16 -19 -20 -20 -20 -20 -20 -20 -20 -20 -20 -20 -20 -20 -20 -20 -20 -20 -20 -20 -20 -20 -20 -20 -20 -20 -20 -20 -20 -20 -15 -20 -20 -20 -1 6 -14 -20 -20 -20 -20 -20 -20 -20 -20 -20 -20 -20
-5 -19 -20 -3 -20 -15 -20 -20 -20 -20 -20 -20 -20 -20 -20 -20 -20 -20 -20 -20 -20 -20 -20 -20 -20 -20 -20 -20 -20 -20 -15 -20 -20 -20 -12 -13 -18 -20 -20 -20 -20 -20 -20 -20 -20 -20 -20 -20 -20
-20 -20 -8 -8 -1 -20 -20 -20 -20 -20 -20 -16 -20 -20 -20 -20 -20 -20 -20 -20 -20 -20 -20 -20 -20 -20 -20 -20 -20 -10 -20 -20 -20 -20 -16 -20 -20 -20 -20 -20 -20 -20 -20 -20 -20 -20 -20 -20 -20
-19 1 4 -13 3 6 -4 -20 -18 -20 -20 -20 -20 -20 -20 -20 -20 -20 -20 -20 -20 -20 -20 -20 -20 -20 -20 -20 -20 -20 -20 19 -20 10 2 -18 -18 -20 -20 -20 -20 -20 -20 -20 -20 -20 -20 -20 -20
-20 -20 -20 10 -19 11 2 -13 -20 -20 -20 -10 -20 -20 -20 -20 -20 -20 -20 -20 -20 -20 -20 -20 -20 -20 -20 -20 -20 -20 -6 -3 -18 -7 -20 -20 -20 -20 -20 -20 -20 -20 -20 -20 -20 -20 -20 -20 -20

GFSSGP_prec_radar_018.txt.gz
Reflectivity
-20 -20 -20 -20 -20 -20 -20 -20 -20 -20 -20 -20 -20 -20 -20 -20 -20 -20 -20 -20 -20 -20 -10 -20 -20 -20 -17 -20 -20 -20 -20 -20 3 6 -12 12 -3 2 -20 -20 -20 -20 -20 -20 -20 -20 -20 -20 -20
-20 -20 -20 -20 -20 -20 -20 -20 -20 -20 -20 -20 -20 -20 -20 -20 -20 -20 -20 -20 -20 -20 -20 -20 -20 -20 -20 -20 -20 -20 -20 -20 -20 -20 -20 -20 -20 -20 -20 -20 -20 -20 -20 -20 -20 -20 -20 -20 -20
-20 -20 -20 -20 -20 -20 -20 -20 -20 -20 -20 -20 -20 -20 -20 -20 -20 -20 -20 -20 -20 -20 -20 -20 -20 -20 -20 -20 -20 -20 -20 -20 -20 -20 -20 -20 -20 -20 -20 -20 -20 -20 -20 -20 -20 -20 -20 -20 -20
-20 -20 -20 -20 -20 -20 -20 -20 -20 -20 -20 -20 -20 -20 -20 -20 -20 -20 -20 -20 -20 -20 -20 -20 -20 -20 -20 -20 -20 -20 -20 -20 -20 -20 -20 -20 -20 -20 -20 -20 -20 -20 -20 -20 -20 -20 -20 -20 -20
-20 -20 -20 -20 -20 -20 -20 -20 -20 -20 -20 -20 -20 -20 -20 -20 -20 -20 -20 -20 -20 -20 -20 -20 -14 -7 -20 -20 -20 -20 -20 -20 -20 -20 -20 -20 -20 -18 -20 -20 -20 -20 -20 -20 -20 1 -18 -20 -18
-20 -20 -20 -20 -20 -20 -20 -20 -20 -20 -20 -20 -20 -20 -20 -20 -20 -20 -20 -20 -20 -20 -20 -20 -20 -7 -20 -20 -20 -20 -20 -20 -20 -20 -20 -20 -20 -20 -20 -20 -20 -20 -20 -20 -20 -20 -19 1 -20
-20 -20 -20 -20 -20 -20 -20 -20 -20 -20 -20 -20 -20 -20 -20 -20 -20 -20 -20 -20 -20 -20 -20 -20 -20 -14 -12 -20 -20 -20 -20 -20 -20 -20 -20 -20 -20 -20 -20 -20 -20 -20 -20 -20 -11 -19 -20 -20 -20
-20 -20 -20 -20 -20 -20 -20 -20 -20 -20 -20 -20 -20 -20 -20 -20 -20 -20 -20 -20 -20 -20 -20 -20 -20 -20 -20 -20 -20 -20 -20 -20 -20 -20 -20 -20 -20 -20 2 -12 -20 -20 -20 -20 -20 -20 -20 -20 -20
-20 -20 -20 -20 -20 -20 -20 -20 -20 -20 -20 -20 -20 -20 -20 -20 -20 -20 -20 -20 -20 -20 -20 -20 -20 -20 -4 -20 -20 -20 -20 -20 -20 -20 -20 -20 -20 -20 -20 -20 -20 -20 -20 -20 -20 -20 -20 -20 -20
-20 -20 -20 -20 -20 -20 -20 -20 -20 -20 -20 -20 -20 -20 -20 -20 -20 -20 -20 -20 -20 -20 -20 -20 -20 -20 -20 -20 -20 -20 -20 -20 -20 -20 -20 -20 -20 -20 -20 -20 -20 -20 -20 -20 -20 -20 -20 -20 -20
-20 -20 -20 -20 -20 -20 -20 -20 -20 -20 -20 -20 -20 -20 -20 -20 -20 -20 -20 -20 -20 -20 -20 -20 -20 -20 -20 -12 -20 -20 -20 -20 -20 -20 -20 -20 -20 -20 -20 -20 -20 -20 -20 -20 -20 -20 -20 -20 -20
-20 -20 -20 -20 -20 -20 -20 -20 -20 -20 -20 -20 -20 -20 -20 -20 -20 -20 -20 -20 -20 -20 -20 -20 -20 -18 -20 -20 -19 -20 -20 -20 -20 -20 -20 -20 -20 -20 -20 -20 -20 -20 -20 -20 -20 -20 -20 -20 -20
-20 -20 -20 -20 -20 -20 -20 -20 -20 -20 -20 -20 -20 -20 -20 -20 -20 -20 -20 -20 -20 -20 -20 -20 -20 -20 -0 -20 -20 -20 -20 -20 -20 -20 -20 -20 -20 -20 -20 -20 -20 -20 -20 -20 -20 -20 -20 -20 -20
-20 -20 -20 -20 -20 -20 -20 -20 -20 -20 -20 -20 -20 -20 -20 -20 -20 -20 -20 -20 -20 -20 -20 -20 -20 -20 -20 -16 -16 -20 -20 -20 -20 -20 -20 -20 -20 -20 -20 -20 -20 -20 -20 -20 -20 -20 -20 -20 -20
-20 -20 -20 -20 -20 -20 -20 -20 -20 -20 -20 -20 -20 -20 -20 -20 -20 -20 -20 -20 -20 -20 -20 -20 -20 -20 -20 -20 -16 4 -20 -20 -20 -20 -20 -20 -20 -20 -20 -20 -20 -20 -20 -20 -20 -20 -20 -20 -20
-20 -20 -20 -20 -20 -20 -20 -20 -20 -20 -20 -20 -20 -20 -20 -20 -20 -20 -20 -20 -20 -20 -20 -20 -20 -20 -20 -20 -20 -16 -20 -19 -20 -20 -20 -14 -20 -20 -20 -20 -20 -20 -20 -20 -20 -20 -20 -20 -20
-20 -20 -20 -20 -20 -20 -20 -20 -20 -20 -20 -20 -20 -20 -20 -20 -20 -20 -20 -20 -20 -20 -20 -20 -20 -20 -20 -20 -20 -20 -13 -20 -20 -20 -20 -1 -20 -20 -20 -20 -20 -20 -20 -20 -20 -20 -20 -20 -20
-20 -20 -20 -20 -20 -20 -20 -20 -20 -20 -20 -20 -20 -20 -20 -20 -20 -20 -20 -20 -20 -20 -20 -20 -20 -20 -20 -20 -20 -7 6 -11 -20 -20 -20 -20 -20 -20 -20 -20 -20 -20 -20 -20 -20 -20 -20 -20 -20
-20 -20 -20 -20 -20 -20 -20 -20 -20 -20 -20 -20 -20 -20 -20 -20 -20 -20 -20 -20 -20 -20 -20 -20 -20 -20 -20 -20 -20 -20 -20 -9 16 9 -20 -20 -20 -20 -20 -20 -20 -20 -20 -20 -20 -20 -20 -20 -20
-20 -20 -20 -20 -20 -20 -20 -20 -20 -20 -20 -20 -20 -20 -20 -20 -20 -20 -20 -20 -20 -20 -20 -20 -20 -20 -20 -18 -20 -20 -20 -20 -11 -20 0 -20 -20 -20 -20 -20 -20 -20 -20 -20 -20 -20 -20 -20 -20
-20 -20 -20 -20 -20 -20 -20 -20 -20 -20 -20 -20 -20 -20 -20 -20 -20 -20 -20 -20 -20 -20 -20 -20 -20 -20 -20 -20 21 -20 -20 -20 -20 -20 -15 -15 -20 -20 -20 -14 -5 -20 -20 -20 -20 -20 -20 -20 -20
-20 -20 -20 -20 -20 -20 -20 -20 -20 -20 -20 -20 -20 -20 -20 -20 -20 -20 -20 -20 -20 -20 -20 -20 -20 -20 -20 -20 -20 -20 -20 -20 -20 -20 -10 -20 -20 -20 -20 -20 -20 -20 -20 -20 -20 -20 -20 -20 -20
-20 -20 -20 -20 -20 -20 -20 -20 -20 -20 -20 -20 -20 -20 -20 -20 -20 -20 -20 -20 -20 -20 -20 -20 -20 -20 -20 -20 -20 -20 -20 -20 -20 -20 1 -20 -20 -20 -20 -3 -18 -20 -20 -20 -20 -20 -20 -20 -20
-20 -20 -20 -20 -20 -20 -20 -20 -20 -20 -20 -20 -20 -20 -20 -20 -20 -20 -20 -20 -20 -20 -20 -20 -20 -20 -20 13 -20 -20 -20 -20 -20 -20 6 -8 -13 -20 -20 -20 -9 -20 -20 -20 -20 -20 -20 -20 -20
-20 -20 -17 -16 -19 -20 -20 -20 -20 -20 -20 -20 -20 -20 -20 -20 -20 -20 -20 -20 -20 -20 -20 -20 -20 -20 -20 9 -9 -20 -20 -20 -20 -20 -3 -20 -20 -20 -20 -20 12 -20 -20 -20 -20 -20 -20 -20 -20
-20 -20 -20 -20 -20 -20 -20 -20 -20 -20 -20 -20 -20 -20 -20 -20 -20 -20 -20 -20 -20 -20 -20 -20 -20 -20 -20 10 -20 -20 -20 -20 -20 -20 -13 -20 -20 -20 -20 -15 9 -20 -20 -20 -20 -20 -20 -20 -20
-6 -20 -20 -20 -20 -20 -20 -20 -20 -20 -20 -20 -20 -20 -20 -20 -20 -20 -20 -20 -20 -20 -20 -20 -20 -20 7 14 -20 -20 -20 -20 -20 -20 20 -20 -20 -20 5 1 -11 -20 -20 -20 -20 -20 -20 -20 -20
-20 -20 -18 -4 -20 -20 -20 -20 -20 -20 -20 -20 -20 -20 -20 -20 -20 -20 -20 -20 -20 -20 -20 -20 -20 6 -3 4 -9 -20 -20 -20 -20 -13 -20 -9 -1 0 -13 -10 -20 -20 -20 -20 -20 -20 -20 -20 -20
-20 -19 -12 -17 -19 -19 -20 -20 -20 -20 -20 -20 -20 -20 -20 -20 -20 -20 -20 -20 -20 -20 -20 -20 -20 11 17 -20 -17 -20 -20 -20 -20 -20 -3 -17 -5 9 -16 -20 -20 -20 -20 -20 -20 -20 -20 -20 -20
-20 -20 -20 4 -20 -20 -20 -20 -20 -20 -20 -20 -20 -20 -20 -20 -20 -20 -20 -20 -20 -20 -20 -20 -20 26 -19 -17 -20 -5 -5 -20 6 -18 -20 -4 -6 9 12 -18 -20 -20 -20 -20 -20 -20 -20 -20 -20

GFSSGP_prec_radar_021.txt.gz
Reflectivity
-20 -20 -20 -20 -20 -20 -20 -20 -20 -20 -20 -20 -20 -20 -20 -20 -20 -20 -20 -20 -20 -20 -4 -20 -20 -20 -20 -20 -20 -20 -20 -20 -18 -17 11 3 -8 -20 -20 -20 -20 -20 -20 -20 -20 -20 -20 -20 -20
-20 -20 -20 -20 -20 -20 -20 -20 -20 -20 -20 -20 -20 -20 -20 -20 -20 -20 -20 -20 -20 -20 -20 -20 -20 -20 -20 -20 -20 -20 -20 -20 -20 -20 -4 -4 -20 -20 -20 -20 -20 -20 -20 -20 -20 -20 -20 -20 -20
-20 -20 -20 -20 -20 -20 -20 -20 -20 -20 -20 -20 -20 -20 -20 -20 -20 -20 -20 -20 -20 -20 -20 -20 -20 -20 -20 -20 -20 -20 -20 -20 -20 -20 -20 -20 -20 -20 -20 -20 -20 -20 -20 -20 -20 -20 -20 -20 -20
-20 -20 -20 -20 -20 -20 -20 -20 -20 -20 -20 -20 -20 -20 -20 -20 -20 -20 -20 -20 -20 -20 -20 -20 -20 -20 -20 -20 -20 -20 -20 -20 -20 -20 -20 -20 -20 -20 -20 -20 -20 -20 -20 -20 -20 -20 -20 -20 -20
-20 -20 -20 -20 -20 -20 -20 -20 -20 -20 -20 -20 -20 -20 -20 -20 -20 -20 -20 -20 -20 -20 -20 -20 -20 -20 -20 -20 -20 -20 -20 -20 -20 -20 -20 -20 -20 -20 -20 -20 -20 -20 -20 -20 -20 -20 -20 -20 -20
-20 -20 -20 -20 -20 -20 -20 -20 -20 -20 -20 -20 -20 -20 -20 -20 -20 -20 -20 -20 -20 -20 -20 -20 -20 -20 -20 -20 -20 -20 -20 -20 -20 -20 -20 -20 -20 -20 -20 -20 -20 -20 -20 -20 -20 -20 -19 -17 -20
-20 -20 -20 -20 -20 -20 -20 -20 -20 -20 -20 -20 -20 -20 -20 -20 -20 -20 -20 -20 -20 -20 -20 -20 -20 -20 -20 -20 -20 -20 -20 -20 -20 -20 -20 -20 -20 -20 -20 -20 -20 -20 -20 -20 -18 -20 -20 -20 -20
-20 -20 -20 -20 -20 -20 -20 -20 -20 -20 -20 -20 -20 -20 -20 -20 -20 -20 -20 -20 -20 -20 -20 -20 -20 -20 -20 -20 -20 -20 -20 -20 -20 -20 -20 -20 -20 6 -20 -20 -20 -20 -20 -20 -20 -20 -20 -20 -20
-20 -20 -20 -20 -20 -20 -20 -20 -20 -20 -20 -20 -20 -20 -20 -20 -20 -20 -20 -20 -20 -20 -20 -20 -20 -20 -20 -20 -20 -20 -20 -20 -20 -20 -20 -20 -20 -20 -20 -20 -20 -20 -20 -20 -20 -20 -20 -20 -20
-20 -20 -20 -20 -20 -20 -20 -20 -20 -20 -20 -20 -20 -20 -20 -20 -20 -20 -20 -20 -20 -20 -20 -20 -20 -20 -20 -20 -20 -20 -20 -20 -20 -20 -20 -20 -20 -20 -20 -20 -20 -20 -20 -20 -20 -20 -20 -20 -20
-20 -20 -20 -20 -20 -20 -20 -20 -20 -20 -20 -20 -20 -20 -20 -20 -20 -20 -20 -20 -20 -20 -20 -20 -20 -20 -20 -20 -20 -20 -20 -20 -20 -20 -20 -20 -20 -20 -20 -20 -20 -20 -20 -20 -20 -20 -20 -20 -20
-20 -20 -20 -20 -20 -20 -20 -20 -20 -20 -20 -20 -20 -20 -20 -20 -20 -20 -20 -20 -20 -20 -20 -20 -20 -20 -20 -20 -20 -20 -20 -20 -20 -20 -20 -20 -20 -20 -20 -20 -20 -20 -20 -20 -20 -20 -20 -20 -20
-20 -20 -20 -20 -20 -20 -20 -20 -20 -20 -20 -20 -20 -20 -20 -20 -20 -20 -20 -20 -20 -20 -20 -20 -20 -20 -20 -20 -20 -20 -20 -20 -20 -20 -20 -20 -20 -20 -20 -20 -20 -20 -20 -20 -20 -20 -20 -20 -20
-20 -20 -20 -20 -20 -20 -20 -20 -20 -20 -20 -20 -20 -20 -20 -20 -20 -20 -20 -20 -20 -20 -20 -20 -20 -20 -20 -20 -20 -20 -20 -20 -20 -20 -20 -20 -20 -20 -20 -20 -20 -20 -20 -20 -20 -20 -20 -20 -20
-20 -20 -20 -20 -20 -20 -20 -20 -20 -20 -20 -20 -20 -20 -20 -20 -20 -20 -20 -20 -20 -20 -20 -20 -20 -20 -20 -20 -20 -20 -20 -20 -20 -20 -20 -20 -20 -20 -20 -20 -20 -20 -20 -20 -20 -20 -20 -20 -20
-20 -20 -20 -20 -20 -20 -20 -20 -20 -20 -20 -20 -20 -20 -20 -20 -20 -20 -20 -20 -20 -20 -20 -20 -20 -20 -20 -20 -20 -20 -20 -20 -20 -20 -20 -20 -20 -20 -20 -20 -20 -20 -20 -20 -20 -20 -20 -20 -20
-20 -20 -20 -20 -20 -20 -20 -20 -20 -20 -20 -20 -20 -20 -20 -20 -20 -20 -20 -20 -20 -20 -20 -20 -20 -20 -20 -20 -20 -20 16 -20 -20 -20 -20 -20 -20 -20 -20 -20 -20 -20 -20 -20 -20 -20 -20 -20 -20
-20 -20 -20 -20 -20 -20 -20 -20 -20 -20 -20 -20 -20 -20 -20 -20 -20 -20 -20 -20 -20 -20 -20 -20 -20 -20 -20 -20 -20 -20 -0 -20 -20 -20 -20 -20 -20 -20 -20 -20 -20 -20 -20 -20 -20 -20 -20 -20 -20
-20 -20 -20 -20 -20 -20 -20 -20 -20 -20 -20 -20 -20 -20 -20 -20 -20 -20 -20 -20 -20 -20 -20 -20 -20 -20 -20 -20 -20 -20 -20 2 3 -20 -20 -20 -20 -20 -20 -20 -20 -20 -20 -20 -20 -20 -20 -20 -20
-20 -20 -20 -20 -20 -20 -20 -20 -20 -20 -20 -20 -20 -20 -20 -20 -20 -20 -20 -20 -20 -20 -20 -20 -20 -20 -20 -20 2 -20 -20 -20 -19 -7 -12 -20 -20 -20 -20 -20 -20 -20 -20 -20 -20 -20 -20 -20 -20
-20 -20 -20 -20 -20 -20 -20 -20 -20 -20 -20 -20 -20 -20 -20 -20 -20 -20 -20 -20 -20 -20 -20 -20 -20 -20 -20 -19 20 1 27 3 -5 -20 -20 -20 -20 -0 -20 -20 -20 -20 -20 -20 -20 -20 -20 -20 -20
-20 -20 -20 -20 -20 -20 -20 -20 -20 -20 -20 -20 -20 -20 -20 -20 -20 -20 -20 -20 -20 -20 -20 -20 -20 -20 -20 25 1 -10 -20 8 -0 -5 -20 -20 -20 8 -20 -20 -20 -20 -20 -20 -20 -20 -20 -20 -20
-20 -20 -20 -20 -20 -20 -20 -20 -20 -20 -20 -20 -20 -20 -20 -20 -20 -20 -20 -20 -20 -20 -20 -20 -20 -20 -20 -20 -20 -2 9 -20 -19 -17 -20 -20 -6 11 -20 -20 -20 -20 -19 -20 -20 -20 -20 -20 -20
-20 -20 -20 -20 -20 -20 -20 -20 -20 -20 -20 -20 -20 -20 -20 -20 -20 -20 -20 -20 -20 -20 -20 -20 -20 -20 -20 -20 -20 -20 -19 -20 -3 16 -17 -8 -19 9 13 -20 -20 -20 -19 -20 -20 -20 -20 -20 -20
-20 -20 -20 -20 -20 -20 -20 -20 -20 -20 -20 -20 -20 -20 -20 -20 -20 -20 -20 -20 -20 -20 -20 -20 -20 -20 -20 -20 -20 -20 -20 -20 4 17 15 -9 16 13 -18 7 -20 -20 -20 -20 -20 -20 -20 -20 -20
-20 -20 -20 -20 -20 -20 -20 -20 -20 -20 -20 -20 -20 -20 -20 -20 -20 -20 -20 -20 -20 -20 -20 -20 -20 -20 -20 -20 5 -20 -20 18 23 19 11 -20 -20 -10 13 -6 -20 -20 -20 1 -20 -20 -20 -20 -20
-20 -20 -20 -20 -20 -20 -20 -20 -20 -20 -20 -20 -20 -20 -20 -20 -20 -20 -20 -20 -20 -20 -20 -20 -20 -20 -20 -18 8 -20 -15 14 19 18 -18 -20 -20 6 13 -3 -15 -20 14 15 -20 -20 -20 -20 -20
-20 -20 -20 -20 -20 -20 -20 -20 -20 -20 -20 -20 -20 -20 -20 -20 -20 -20 -20 -20 -20 -20 -20 -20 -20 -20 -20 7 -20 -20 19 21 9 7 -20 -20 10 12 -3 17 -7 -6 3 13 -20 -20 -20 -20 -20
-20 -20 -20 -20 -20 -20 -20 -20 -20 -20 -20 -20 -20 -20 -20 -20 -17 -20 -20 -20 -20 -20 -20 -20 -20 -20 10 26 -20 -20 21 5 -20 -13 -20 4 18 8 -20 25 -9 24 -19 8 -20 -20 -20 -20 -20
-20 -20 -20 -20 -20 -20 -20 -20 -20 -20 -20 -20 -15 -13 -18 21 12 -20 -20 -20 -20 -20 -20 -20 -20 -20 -20 -17 -20 -20 25 -20 -6 3 -20 -16 -9 -10 -15 20 6 -20 12 -20 -20 -20 -20 -20 -20

GFSSGP_prec_radar_024.txt.gz
Reflectivity
-20 -20 -20 -20 -20 -20 -20 -20 -20 -20 -20 -20 -20 -20 -20 -20 -20 -20 -20 -20 -20 -20 -20 -2 2 -20 -20 -20 -20 -20 -20 -20 -20 9 7 -20 -20 -20 -20 -20 -20 -20 -20 -20 -20 -20 -20 -20 -20
-20 -20 -20 -20 -20 -20 -20 -20 -20 -20 -20 -20 -20 -20 -20 -20 -20 -20 -20 -20 -20 -20 -20 -20 2 -20 -20 -20 -20 -20 -20 -20 -20 2 -0 9 -20 -20 -20 -20 -20 -20 -20 -20 -20 -20 -20 -20 -20
-20 -20 -20 -20 -20 -20 -20 -20 -20 -20 -20 -20 -20 -20 -20 -20 -20 -20 -20 -20 -20 -20 -20 -20 -6 -20 -20 -20 -20 -20 -20 -20 -17 -18 -20 -20 -20 -20 -20 -20 -20 -20 -20 -20 -20 -20 -20 -20 -20
-20 -20 -20 -20 -20 -20 -20 -20 -20 -20 -20 -20 -20 -20 -20 -20 -20 -20 -20 -20 -20 -20 -20 -3 -20 -20 -20 -20 -20 -20 -20 -20 -20 -20 -20 -20 -20 -20 -20 -20 -20 -20 -20 -20 -20 -20 -20 -20 -20
-20 -20 -20 -20 -20 -20 -20 -20 -20 -20 -20 -20 -20 -20 -20 -20 -20 -20 -20 -20 -20 -20 -20 -9 -20 -20 -20 -20 -20 -20 -20 -20 -20 -20 -20 -20 -20 -20 -20 -20 -20 -20 -20 -20 -11 -20 -20 -20 -20
-20 -20 -20 -20 -20 -20 -20 -20 -20 -20 -20 -20 -20 -20 -20 -20 -20 -20 -20 -20 -20 -20 -20 -20 -20 -20 -20 -20 -20 -20 -20 -20 -20 -20 -20 -20 -20 -20 -20 -20 -20 -20 -20 -2 -17 -20 0 -20 -20
-20 -20 -20 -20 -20 -20 -20 -20 -20 -20 -20 -20 -20 -20 -20 -20 -20 -20 -20 -20 -20 -20 -20 -20 -20 -20 -20 -20 -20 -20 -20 -20 -20 -20 -20 -20 -20 -10 -20 -20 -20 -20 -20 -11 6 4 -20 -20 -20
-20 -20 -20 -20 -20 -20 -20 -20 -20 -20 -20 -20 -20 -20 -20 -20 -20 -20 -20 -20 -20 -20 -19 -20 -20 -20 -20 -20 -20 -20 -20 -20 -20 -20 -20 -20 -20 -20 -10 -20 -5 -20 -19 -20 -20 -20 -20 -20 -20
-20 -20 -20 -20 -20 -20 -20 -20 -20 -20 -20 -20 -20 -20 -20 -20 -20 -20 -20 -20 -20 -4 -20 -20 -20 -20 -20 -20 -20 -20 -20 -20 -20 -20 -20 -20 -20 -20 -20 -20 -20 -20 -20 -20 -20 -20 -20 -20 -20
-20 -20 -20 -20 -20 -20 -20 -20 -20 -20 -20 -20 -20 -20 -20 -20 -20 -20 -20 -20 -20 -20 3 12 -20 -20 -20 -20 -20 -20 -20 -20 -20 -20 -20 -20 -20 -20 -20 -20 -20 -20 -20 -20 -20 -20 -20 -20 -20
-20 -20 -20 -20 -20 -20 -20 -20 -20 -20 -20 -20 -20 -20 -20 -20 -20 -20 -20 -20 -20 -20 -20 -20 -20 -20 -20 -20 -20 -20 -20 -20 -20 -20 -20 -20 -20 -20 -20 -20 -20 -20 -20 -20 -20 -20 -20 -20 -20
-20 -20 -20 -20 -20 -20 -20 -20 -20 -20 -20 -20 -20 -20 -20 -20 -20 -20 -20 -20 -20 -20 -20 -20 -20 -20 -20 -20 -20 -20 -20 -20 -20 -20 -20 -20 -20 -20 -20 -20 -20 -20 -20 -20 -20 -20 -20 -20 -20
-20 -20 -20 -20 -20 -20 -20 -20 -20 -20 -20 -20 -20 -20 -20 -20 -20 -20 -20 -20 -20 -20 -20 -20 -20 -20 -20 -20 -20 -20 -20 -20 -20 -20 -20 -20 -20 -20 -20 -20 -20 -20 -20 -20 -20 -20 -20 -20 -20
-20 -20 -20 -20 -20 -20 -20 -20 -20 -20 -20 -20 -20 -20 -20 -20 -20 -20 -20 -20 -20 -20 -20 -20 -20 -20 -20 -20 -20 -20 -20 -20 -20 -20 -20 -20 -20 -20 -20 -20 -20 -20 -20 -20 -20 -20 -20 -20 -20
-20 -20 -20 -20 -20 -20 -20 -20 -20 -20 -20 -20 -20 -20 -20 -20 -20 -20 -20 -20 -20 -20 -20 -20 -20 -20 -20 -20 -20 -20 -20 -20 -20 -20 -20 -20 -20 -20 -20 -20 -20 -20 -20 -20 -20 -20 -20 -20 -20
-20 -20 -20 -20 -20 -20 -20 -20 -20 -20 -20 -20 -20 -20 -20 -20 -20 -20 -20 -20 -20 -20 -20 -20 -13 -20 20 -20 -20 -20 -20 -20 -20 -20 -20 -20 -20 -20 -20 -20 -20 -20 -20 -20 -20 -20 -20 -20 -20
-20 -20 -20 -20 -20 -20 -20 -20 -20 -20 -20 -20 -20 -20 -20 -20 -20 -20 -20 -20 -20 -20 -20 -20 -15 -10 -20 2 -20 -20 -20 -20 -20 -20 -20 -20 -20 -20 -20 -20 -20 -20 -20 -20 -20 -20 -20 -20 -20
-20 -20 -20 -20 -20 -20 -20 -20 -20 -20 -20 -20 -20 -20 -20 -20 -20 -20 -20 -20 -20 -20 -20 -20 -20 -20 25 21 14 -15 27 -20 -20 -20 -20 -20 -20 -20 -20 -20 -20 -20 -20 -20 -20 -20 -20 -20 -20
-20 -20 -20 -20 -20 -20 -20 -20 -20 -20 -20 -20 -20 -20 -20 -20 -20 -20 -20 -20 -20 -20 -20 -20 -20 -20 22 23 -20 -6 -20 -20 -20 -20 -20 -14 -20 -20 -20 -20 -20 -20 -20 -20 -20 -20 -20 -20 -20
-11 -20 -20 -20 -20 -20 -20 -20 -20 -20 -20 -20 -20 -20 -20 -20 -20 -20 -20 -20 -20 -20 -20 -20 -20 -20 -20 8 -20 27 22 25 -13 27 -19 4 -11 14 3 -20 -20 -20 -20 -20 -20 -20 -20 -20 -20
-20 -20 -20 -20 -20 -20 -20 -20 -20 -20 -20 -20 -20 -20 -20 -20 -20 -20 -20 -20 -20 -20 -20 -20 -20 -20 -20 -20 4 20 21 23 -4 -19 -15 -8 -20 -10 14 7 -17 -20 -20 -20 -20 -20 -20 -20 -20
-20 -20 -20 -20 -20 -20 -20 -20 -20 -20 -20 -20 -20 -20 -20 -20 -20 -20 -20 -20 -20 -20 -20 -20 -20 -20 -20 -20 -20 -6 -20 -20 -20 -20 18 26 -16 3 10 -9 -18 -20 -20 -20 -20 -20 -20 -20 -20
-20 -20 -20 -20 -20 -20 -20 -20 -20 -20 -20 -20 -20 -20 -20 -20 -20 -20 -20 -20 -20 -20 -20 -20 -20 -20 -20 -20 -20 -19 -15 -20 -20 14 19 14 12 11 -20 -18 -7 7 -20 -20 -20 -20 -20 -20 -20
-20 -20 -20 -20 -20 -20 -20 -20 -20 -20 -20 -20 -20 -20 -20 -20 -20 -20 -20 -20 -20 -20 -20 -20 -20 -20 -20 -20 -20 -20 -20 -20 -20 -4 2 -6 14 -1 -20 -20 -0 15 -1 -20 -20 -19 -20 -20 -20
-20 -20 -20 -20 -20 -20 -20 -20 -20 -20 -20 -20 -20 -20 -20 -20 -20 -20 -20 -20 -20 -20 -20 -20 -20 -20 -20 -20 -11 -15 -18 -20 -20 7 -6 6 9 -6 -3 5 -13 20 -5 -20 -20 -20 -20 -20 -20
-20 -20 -20 -20 -20 -20 -20 -20 -20 -20 -20 -20 -20 -20 -20 -20 -20 -20 -20 -20 -20 -20 -20 -20 -20 -20 -20 -20 -20 -20 -20 -15 7 5 7 -13 -20 15 16 18 -20 20 14 -20 -10 6 -20 12 -20
-20 -20 -20 -20 -20 -20 -20 -20 -20 -20 -20 -20 -20 -20 -20 -20 -20 -20 -20 -20 -20 -20 -20 -20 -20 -20 -20 -20 -20 -20 -20 -20 -20 -20 -20 -20 18 13 8 -20 -20 17 17 -7 -18 -20 -12 25 -20
-20 -20 -20 -20 -20 -20 -20 -20 -20 -20 -20 -20 -20 -20 -20 -20 -20 -20 -20 -20 -20 -20 -20 -20 -20 -20 -20 -20 -20 -20 -20 -20 -20 -20 9 -8 14 13 -20 -20 2 18 2 6 17 -4 9 15 -18
-20 -20 -20 -20 -20 -20 -20 -20 -20 -20 -20 -20 -20 -20 -20 -20 -20 -20 -20 -20 -20 -20 -20 -20 -20 -20 -20 -20 -20 -20 -20 -20 5 19 18 14 2 -4 -20 16 11 14 18 8 -12 -3 14 -1 -17
-20 -20 -20 -20 -20 -20 -20 -20 -20 -20 -20 -20 -20 -20 -20 -20 -20 -20 -20 -20 -20 -20 -20 -20 -20 -20 -20 -20 -20 -20 -20 -20 14 16 16 10 -20 -20 -20 -10 13 13 -1 34 22 34 -19 -12 -18

GFSSGP_prec_radar_027.txt.gz
Reflectivity
-20 -20 -20 -20 -20 -20 -20 -20 -20 -20 -20 -20 -20 -20 -20 -20 -20 -20 -20 -20 -20 -20 2 -18 9 11 -20 -20 -20 -18 -15 -12 10 5 3 -20 -20 -20 -20 -20 -20 -20 -20 11 16 8 -19 -20 -20
-20 -20 -20 -20 -20 -20 -20 -20 -20 -20 -20 -20 -20 -20 -20 -20 -20 -20 -20 -20 -20 -20 -20 -14 15 11 -16 -20 -20 -20 -12 7 11 6 -0 -3 -20 -20 -20 -20 -20 -20 -20 7 8 -13 -20 -20 -20
-20 -20 -20 -20 -20 -20 -20 -20 -20 -20 -20 -20 -20 -20 -20 -20 -20 -20 -20 -20 -20 -20 -20 -20 -2 -0 -20 -20 -20 -20 -20 -20 7 -8 9 -20 -20 -20 -20 -20 -20 -20 -20 -20 -20 -20 -20 -20 -20
-20 -20 -20 -20 -20 -20 -20 -20 -20 -20 -20 -20 -20 -20 -20 -20 -20 -20 -20 -20 -20 -20 -20 -20 -20 -20 -20 -20 -20 -20 -0 6 10 7 -18 -20 -20 -20 -20 -20 -20 -20 -20 -20 -20 -20 -20 -20 -20
-20 -20 -20 -20 -20 -20 -20 -20 -20 -20 -20 -20 -20 -20 -20 -20 -20 -20 -20 -20 -20 -20 -20 -20 -20 -20 -20 -20 -20 -20 -20 -20 -20 -20 -20 -20 -20 -20 -20 -20 -20 -20 -20 -20 -20 -20 -20 -20 -20
-20 -20 -20 -20 -20 -20 -20 -20 -20 -20 -20 -20 -20 -20 -20 -20 -20 -20 -20 -20 -20 -20 -20 -20 -20 -20 -20 -20 -20 -20 -20 -20 -20 -20 -20 -20 -20 -20 -20 -20 -20 -20 -20 1 -14 -20 -14 -20 -20
-20 -20 -20 -20 -20 -20 -20 -20 -20 -20 -20 -20 -20 -20 -20 -20 -20 -20 -20 -20 -20 -20 -20 -20 -20 -20 -20 -20 -20 -20 -20 -20 -20 -20 -20 -20 -20 -20 -20 -20 -20 -20 -20 -9 -11 11 -20 -20 -20
-20 -20 -20 -20 -20 -20 -20 -20 -20 -20 -20 -20 -20 -20 -20 -20 -20 -20 -20 -20 -20 -20 -20 -20 -20 -20 -20 -20 -20 -20 -20 -20 -19 -20 -20 -20 -20 -20 -20 -20 -12 -20 -20 12 -4 -20 -20 -20 -20
-20 -20 -20 -20 -20 -20 -20 -20 -20 -20 -20 -20 -20 -20 -20 -20 -20 -20 -20 -20 -20 -17 -20 -14 -20 -20 -20 -20 -20 -20 -20 -20 -20 -20 -20 -20 -20 -20 -20 -20 -14 -20 -1 -20 -20 -20 -20 -20 -20
-20 -20 -20 -20 -20 -20 -20 -20 -20 -20 -20 -20 -20 -20 -20 -20 -20 -20 -20 -20 -20 -20 -15 -20 -20 -20 -20 -20 -20 -20 -20 -20 -20 -20 -20 -20 -20 -20 -20 -20 -20 -20 -20 -20 -20 -20 -20 -20 -20
-20 -20 -20 -20 -20 -20 -20 -20 -20 -20 -20 -20 -20 -20 -20 -20 -20 -20 -20 -20 -20 -20 -20 -20 -20 -20 -20 -20 -20 -20 -20 -20 -20 -20 -20 -20 -20 -20 -20 -20 -20 -20 -20 -20 -20 -20 -20 -20 -20
-20 -20 -20 -20 -20 -20 -20 -20 -20 -20 -20 -20 -20 -20 -20 -20 -20 -20 -20 -20 -20 -20 -20 -20 -20 -20 -20 -20 -20 -20 -20 -20 -20 -20 -20 -20 -20 -20 -20 -20 -20 -20 -20 -20 -20 -20 -20 -20 -20
-20 -20 -20 -20 -20 -20 -20 -20 -20 -20 -20 -20 -20 -20 -20 -20 -20 -20 -20 -20 -20 -20 -20 -20 -20 -20 -20 -20 -20 -20 -20 -20 -20 -20 -20 -20 -20 -20 -20 -20 -20 -20 -20 -20 -20 -20 -20 -20 -20
-20 -20 -20 -20 -20 -20 -20 -20 -20 -20 -20 -20 -20 -20 -20 -20 -20 -20 -20 -20 -20 -20 -20 -20 -20 -20 -20 -20 -20 -20 -20 -20 -20 -20 -20 -20 -20 -20 -20 -20 -20 -20 -20 -20 -20 -20 -20 -20 -20
-20 -20 -20 -20 -20 -20 -20 -20 -20 -20 -20 -20 -20 -20 -20 -20 -20 -20 -20 -20 -20 -20 -20 -20 -8 4 -20 -20 -20 -20 -20 -20 -20 -20 -20 -20 -20 -20 -20 -20 -20 -20 -20 -20 -20 -20 -20 -20 -20
-20 -20 -20 -20 -20 -20 -20 -20 -20 -20 -20 -20 -20 -20 -20 -20 -20 -20 -20 -20 -20 -20 -20 -20 -20 -20 -20 -10 -17 -20 -20 -20 -20 -20 -20 -20 -20 -20 -20 -20 -20 -20 -20 -20 -20 -20 -20 -20 -20
-20 -20 -20 -20 -20 -20 -20 -20 -20 -20 -20 -20 -20 -20 -20 -20 -20 -20 -20 -20 -20 -20 -20 -20 -20 -20 -2 -20 4 -20 -20 -20 -20 -20 -20 -20 -20 -20 -20 -20 -20 -20 -20 -20 -20 -20 -20 -20 -20
-20 -20 -20 -20 -20 -20 -20 -20 -20 -20 -20 -20 -20 -20 -20 -20 -20 -20 -20 -20 -20 -20 -20 -20 -20 -20 -20 -20 -12 -20 -20 -20 13 -20 -20 -20 -20 -20 -20 -20 -20 -20 -20 -20 -20 -20 -20 -20 -20
-20 -20 -20 -20 -20 -20 -20 -20 -20 -20 -20 -20 -20 -20 -20 -20 -20 -20 -20 -20 -20 -20 -20 -20 -20 -20 -20 -20 -20 21 -20 -20 -20 -20 -20 -20 -20 -20 -20 -20 -20 -20 -20 -20 -20 -20 -20 -20 -20
-20 -20 -20 -20 -20 -20 -20 -20 -20 -20 -20 -20 -20 -20 -20 -20 -20 -20 -20 -20 -20 -20 -20 -20 -20 -20 -20 -20 -20 -20 -20 -20 -20 -10 -20 -13 9 -20 -20 -9 -20 -20 6 -20 -20 -20 -20 -20 -20
-19 -20 -20 -20 -20 -20 -20 -20 -20 -20 -20 -20 -20 -20 -20 -20 -20 -20 -20 -20 -20 -20 -20 -20 -20 -20 -20 -20 -5 -2 17 25 -20 -20 -20 -19 -14 -19 -20 -20 -20 0 -16 -20 -20 -20 -20 -20 -20
-20 -20 -20 -20 -20 -20 -20 -20 -20 -20 -20 -20 -20 -20 -20 -20 -20 -20 -20 -20 -20 -20 -20 -20 -20 -20 -20 -20 -20 -3 -20 -20 -20 -20 19 18 17 9 -10 -20 -18 4 1 5 -20 -20 -20 -20 -20
-20 -20 -20 -20 -20 -20 -20 -20 -20 -20 -20 -20 -20 -20 -20 -20 -20 -20 -20 -20 -20 -20 -20 -20 -20 -20 -20 -20 -20 -20 -14 -20 -20 -20 -20 -19 1 20 22 -8 22 -19 -20 -20 11 -20 -20 -20 -20
-20 -20 -20 -20 -20 -20 -20 -20 -20 -20 -20 -20 -20 -20 -20 -20 -20 -20 -20 -20 -20 -20 -20 -20 -20 -20 -20 -20 -20 -20 10 18 -20 -19 -6 0 -7 7 6 19 -7 -0 -18 -0 15 -1 -20 -20 -20
-20 -20 -20 -20 -20 -20 -20 -20 -20 -20 -20 -20 -20 -20 -20 -20 -20 -20 -20 -20 -20 -20 -20 -20 -20 -20 -20 -20 -20 -13 -20 -20 -20 -20 16 15 -20 -20 -20 1 17 21 18 15 -10 17 -20 -20 -18
-20 -20 -20 -20 -20 -20 -20 -20 -20 -20 -20 -20 -20 -20 -20 -20 -20 -20 -20 -20 -20 -20 -20 -20 -20 -20 -20 -20 -20 -20 -20 -20 -3 -20 -20 18 6 -20 -15 20 10 16 19 13 12 25 -10 -20 -20
-20 -20 -20 -20 -20 -20 -20 -20 -20 -20 -20 -20 -20 -20 -20 -20 -20 -20 -20 -20 -20 -20 -20 -20 -20 -20 -20 -20 -20 -20 -20 -20 -20 -20 -20 -20 -6 19 15 16 5 17 -20 14 12 21 11 -13 17
-20 -20 -20 -20 -20 -20 -20 -20 -20 -20 -20 -20 -20 -20 -20 -20 -20 -20 -20 -20 -20 -20 -20 -20 -20 -20 -20 -20 -20 -20 -20 -20 -20 -20 -20 -20 14 -12 -6 11 1 6 -19 14 -9 -0 27 9 4
-20 -20 -20 -20 -20 -20 -20 -20 -20 -20 -20 -20 -20 -20 -20 -20 -20 -20 -20 -20 -20 -20 -20 -20 -20 -20 -20 -20 -20 -20 -20 -20 -20 -20 -20 -20 -7 8 14 12 13 11 -7 -2 -20 -11 16 0 32
-20 -20 -20 -20 -20 -20 -20 -20 -20 -20 -20 -20 -20 -20 -18 -18 -7 -20 -20 -20 -20 -20 -20 -20 -20 -20 -20 -20 -20 -20 -20 -20 -2 -20 -20 -20 -7 13 18 21 5 10 5 -14 12 23 0 18 29

GFSSGP_prec_radar_030.txt.gz
Reflectivity
-20 -20 -20 -20 -20 -20 -20 -20 -20 -20 -20 -20 -20 -20 -20 -20 -20 -20 -20 -20 -20 -20 -20 -20 8 11 13 12 12 -18 4 -13 -7 -12 2 -20 -20 -20 -20 -20 -20 -20 -20 15 16 12 -5 -20 -20
-20 -20 -20 -20 -20 -20 -20 -20 -20 -20 -20 -20 -20 -20 -20 -20 -20 -20 -20 -20 -20 -20 -20 -20 14 11 11 1 -12 9 11 15 -17 3 -13 -20 -20 -20 -20 -20 -20 -20 8 12 12 5 -20 -20 -20
-20 -20 -20 -20 -20 -20 -20 -20 -20 -20 -20 -20 -20 -20 -20 -20 -20 -20 -20 -20 -20 -20 -20 -20 19 19 16 -20 -20 -16 6 14 -2 3 3 -20 -20 -20 -20 -20 -20 -20 -20 -20 -20 -20 -20 -20 -20
-20 -20 -20 -20 -20 -20 -20 -20 -20 -20 -20 -20 -20 -20 -20 -20 -20 -20 -20 -20 -20 -20 -20 -14 15 13 -15 -20 -20 -20 -20 -20 14 5 -17 -20 -20 -20 -20 -20 -20 -20 -20 -20 -20 -20 -20 -20 -20
-20 -20 -20 -20 -20 -20 -20 -20 -20 -20 -20 -20 -20 -20 -20 -20 -20 -20 -20 -20 -20 -20 -20 -0 5 -20 -20 -20 -20 -18 -13 -13 12 -5 -20 -20 -20 -20 -20 -20 -20 -20 -20 -20 -20 -20 -20 -0 -13
-20 -20 -20 -20 -20 -20 -20 -20 -20 -20 -20 -20 -20 -20 -20 -20 -20 -20 -20 -20 -20 -20 -20 -20 -20 -20 -20 -20 -20 -20 -10 -6 -20 -12 -20 -20 -20 -20 -20 -20 -20 -20 -20 0 -11 -18 1 -20 -20
-20 -20 -20 -20 -20 -20 -20 -20 -20 -20 -20 -20 -20 -20 -20 -20 -20 -11 -20 -20 -20 -20 -20 -20 -20 -20 -20 -20 -20 -20 -20 -1 -20 -20 -20 -7 -20 -20 -20 -20 -20 -20 -6 -17 -20 16 -20 -20 -20
-20 -20 -20 -20 -20 -20 -20 -20 -20 -20 -20 -20 -20 -20 -20 -20 -20 -20 -20 -20 -20 -20 -20 -20 -20 -20 -20 -20 -20 -20 -20 -5 -0 -20 -20 -20 -20 -20 -20 -20 -20 -20 -20 -18 12 -20 -20 -20 -20
-20 -20 -20 -20 -20 -20 -20 -20 -20 -20 -20 -20 -20 -20 -20 -20 -20 -20 -20 -20 -15 -20 -20 -20 -20 -20 -20 -20 -20 -20 -20 -20 -18 -20 -20 -20 -20 -7 -20 -20 -20 -20 -10 -20 -20 -20 -20 -20 -20
-20 -20 -20 -20 -20 -20 -20 -20 -20 -20 -20 -20 -20 -20 -20 -20 -20 -20 -19 -20 -18 -20 -20 -20 -15 -20 -20 -20 -20 -20 -20 -20 -20 -20 -20 -20 -20 -20 -20 -20 -20 -20 11 -20 -20 -20 -20 -20 -20
-20 -20 -20 -20 -20 -20 -20 -20 -20 -20 -20 -20 -20 -20 -20 -20 -20 -20 -20 -19 -20 -9 -20 -20 -20 -20 -20 -20 -20 -20 -20 -20 -20 -20 -20 -20 -20 -20 -20 -20 -20 -20 -20 -20 -20 -20 -20 -20 -20
-20 -20 -20 -20 -20 -20 -20 -20 -20 -20 -20 -20 -20 -20 -20 -20 -20 -20 -20 -20 -20 -20 -20 -20 -20 -18 -20 -20 -20 -20 -20 -20 -20 -20 -20 -20 -20 -20 -20 -20 -20 -20 -20 -20 -20 -20 -20 -20 -20
-20 -20 -20 -20 -20 -20 -20 -20 -20 -20 -20 -20 -20 -20 -20 -20 -20 -20 -20 -20 -20 -20 -20 -20 -10 -2 -8 -20 -20 -20 -20 -20 -20 -20 -20 -20 -20 -20 -20 -20 -20 -20 -20 -20 -20 -20 -20 -20 -20
-20 -20 -20 -20 -20 -20 -20 -20 -20 -20 -20 -20 -20 -20 -20 -20 -20 -20 -20 -20 -20 -20 -20 -20 -20 4 3 -20 -20 -20 -15 -20 -20 -20 -20 -20 -20 -20 -20 -20 -20 -20 -20 -20 -20 -20 -20 -20 -20
-20 -20 -20 -20 -20 -20 -20 -20 -20 -20 -20 -20 -20 -20 -20 -20 -20 -20 -20 -20 -20 -20 -20 -20 -20 -20 -1 -20 -20 -20 -20 -20 -20 -20 -20 -20 -20 -20 -20 -20 -20 -20 -20 -20 -20 -20 -20 -20 -20
-20 -20 -20 -20 -20 -20 -20 -20 -20 -20 -20 -20 -20 -20 -20 -20 -20 -20 -20 -20 -20 -20 -20 -20 -20 -20 -20 -20 -20 -14 -12 -20 -20 -20 -20 -20 -20 -20 -20 -20 -20 -20 -20 -20 -20 -20 -20 -20 -20
-20 -20 -20 -20 -20 -20 -20 -20 -20 -20 -20 -20 -20 -20 -20 -20 -20 -20 -20 -20 -20 -20 -20 -20 -20 -20 -20 -20 -20 -6 -20 2 -20 -20 0 -20 -20 -20 -20 -20 -20 -20 -20 -20 -20 -20 -20 -20 -20
-20 -20 -20 -20 -20 -20 -20 -20 -20 -20 -20 -20 -20 -20 -20 -20 -20 -20 -20 -20 -20 -20 -20 -20 -20 -20 -20 -20 -20 -20 -20 -20 -20 3 -20 26 -20 -20 -20 -20 -20 -20 -20 -20 -20 -20 -20 -20 -20
-20 -20 -20 -20 -20 -20 -20 -20 -20 -20 -20 -20 -20 -20 -20 -20 -20 -20 -20 -20 -20 -20 -20 -20 -20 -20 -20 -20 -20 -20 -20 -20 -20 -20 28 -20 -20 -20 -20 28 -20 -20 -20 -20 -20 -20 -20 -20 -20
-20 -20 -20 -20 -20 -20 -20 -20 -20 -20 -20 -20 -20 -20 -20 -20 -20 -20 -20 -20 -20 -20 -20 -20 -20 -20 -20 -20 -20 -20 -20 -20 -20 24 -17 -18 -20 13 -20 -20 -20 -20 -20 -12 -20 -2 -20 -20 -20
-12 -20 -20 -20 -20 -20 -20 -20 -20 -20 -20 -20 -20 -20 -20 -20 -20 -20 -20 -20 -20 -20 -20 -20 -20 -20 -20 -20 -20 -20 -20 -20 -20 -20 -20 -20 -20 29 -20 -20 -20 -20 -10 -20 -17 -18 -20 -20 -20
-20 -20 -20 -20 -20 -20 -20 -20 -20 -20 -20 -20 -20 -20 -20 -20 -20 -20 -20 -20 -20 -20 -20 -20 -20 -20 -20 -20 -20 -20 -20 -20 -20 -20 -20 -20 0 10 19 -20 23 -13 -20 -20 -17 -12 -20 -20 -20
-0 -20 -20 -20 -20 -20 -20 -20 -20 -20 -20 -20 -20 -20 -20 -20 -20 -20 -20 -20 -20 -20 -20 -20 -20 -20 -20 -20 -20 -20 -20 -20 -20 -20 -20 -13 2 -19 23 25 5 -11 26 -16 -17 9 -18 -20 -20
-18 -20 -20 -20 -20 -20 -20 -20 -20 -20 -20 -20 -20 -20 -20 -20 -20 -20 -20 -20 -20 -20 -20 -20 -20 -20 -20 -20 -20 -20 -20 -20 -20 -10 -20 -20 13 21 21 20 8 -20 -6 19 21 16 11 -20 2
-20 -20 -20 -20 -20 -20 -20 -20 -20 -20 -20 -20 -20 -20 -20 -20 -20 -20 -20 -20 -20 -20 -20 -20 -20 -20 -20 -20 -20 -20 -20 -20 -20 -13 -19 7 -13 -20 -20 6 22 5 19 19 19 21 12 2 -20
-20 -20 -20 -20 -20 -20 -20 -20 -20 -20 -20 -20 -20 -20 -20 -20 -20 -20 -20 -20 -20 -20 -20 -20 -20 -20 -20 -20 -20 -20 -20 -20 -20 -20 -20 -20 -20 -16 15 -20 1 19 20 17 16 19 10 10 11
-20 -20 -20 -20 -20 -20 -20 -20 -20 -20 -20 -20 -20 -20 -20 -20 -20 -20 -20 -20 -20 -20 -20 -20 -20 -20 -20 -20 -20 -20 -20 -20 -20 -20 -20 -20 -20 -20 -20 -10 24 20 15 16 13 -17 -19 -7 -8
-20 -20 -20 -20 -20 -20 -20 -20 -20 -20 -20 -20 -20 -20 -20 -20 -20 -20 -20 -20 -20 -20 -20 -20 -20 -20 -20 -20 -20 -20 -20 -20 -20 -20 -20 -20 -20 -0 -20 -6 -13 24 39 12 12 -20 -19 8 -20
-20 -20 -20 -20 -20 -20 -20 -20 -20 -20 -20 -20 -20 -20 -20 -20 -20 -20 -20 -20 -20 -20 -20 -20 -20 -20 -20 -20 -20 -20 -20 -20 -20 -20 -20 -20 -20 -20 -20 4 8 12 22 18 -1 -20 -10 -7 24
-20 -20 -20 -20 -20 -20 -20 -20 -20 -20 -20 -20 -20 -20 -20 -20 -20 -20 -20 -20 -20 -20 -20 -20 -20 -20 -20 -20 -20 -20 -20 -20 -20 -20 -20 -20 -20 -20 -20 -20 -5 3 13 -3 -20 -5 -2 -8 34

GFSSGP_prec_radar_033.txt.gz
Reflectivity
-20 -20 -20 -20 -20 -20 -20 -20 -20 -20 -20 -20 -20 -20 -20 -20 -20 -20 -20 -20 -20 -20 -20 -9 11 3 15 11 11 -5 6 -15 13 11 -9 -10 -20 -20 -20 -20 -20 -20 18 16 24 -3 -20 -20 -20
-20 -20 -20 -20 -20 -20 -20 -20 -20 -20 -20 -20 -20 -20 -20 -20 -20 -20 -20 -20 -20 -20 -20 -20 16 17 9 16 -2 -12 -6 14 -2 -20 -20 -20 -20 -20 -20 -20 -20 -20 4 6 1 -19 -20 -20 -20
-20 -20 -20 -20 -20 -20 -20 -20 -20 -20 -20 -20 -20 -20 -20 -20 -20 -20 -20 -20 -20 -20 -20 -20 11 12 7 3 6 8 9 13 -6 -1 -20 -20 -20 -20 -20 -20 -20 -20 -20 -20 -20 -20 -20 -20 -20
-20 -20 -20 -20 -20 -20 -20 -20 -20 -20 -20 -20 -20 -20 -20 -20 -20 -20 -20 -20 -20 -20 -20 -20 14 17 12 -20 -20 -6 0 14 19 -10 -20 -20 -20 -20 -20 -20 -20 -20 -20 -20 -20 -20 -20 -20 -20
-20 -20 -20 -20 -20 -20 -20 -20 -20 -20 -20 -20 -20 -20 -20 -20 -20 -20 -20 -20 -20 -20 -20 -20 17 11 -17 -20 -20 -20 -20 9 15 8 -20 -20 -20 -20 -20 -20 -20 -20 -20 -20 -20 -15 3 2 -20
-20 -20 -20 -20 -20 -20 -20 -20 -20 -20 -20 -20 -20 -20 -20 -20 -20 -9 -20 -20 -20 -20 -20 -11 12 -11 -20 -20 -20 -20 -20 -20 15 -20 -20 -20 -20 -20 -20 -20 -20 -20 -12 -11 -0 -5 -10 -20 -20
-20 -20 -20 -20 -20 -20 -20 -20 -20 -20 -20 -20 -20 -20 -20 -20 -20 -11 -6 -14 -20 -20 -20 -20 -17 -20 -20 -20 -20 -20 5 8 14 -6 -6 -18 -5 -20 -20 -20 -20 -20 9 -10 -6 9 -20 -20 -20
-20 -20 -20 -20 -20 -20 -20 -20 -20 -20 -20 -20 -20 -20 -20 -20 -5 6 -4 -1 -20 -20 -20 -20 -20 -20 -20 -20 -20 -20 -20 -4 -20 -20 -20 -10 -20 -20 -20 -20 -20 -20 5 3 -6 -20 -20 -20 -20
-20 -20 -20 -20 -20 -20 -20 -20 -20 -20 -20 -20 -20 -20 -20 -20 -12 -1 9 -4 -16 3 -18 -20 -20 -20 -20 -20 -20 -20 -20 -20 -20 -20 -20 -18 -20 -18 -20 -20 -20 -20 -10 12 -13 -20 -20 -20 -20
-20 -20 -20 -20 -20 -20 -20 -20 -20 -20 -20 -20 -20 -20 -20 -15 15 -5 11 -20 12 -5 -20 -13 -20 -20 -20 -20 -20 -20 -20 -20 -20 -20 -20 -20 -20 -13 -20 -20 -20 -20 -14 -20 -20 -20 -20 -20 -20
-20 -20 -20 -20 -20 -20 -20 -20 -20 -20 -20 -20 -20 -20 -20 -19 12 1 -11 -17 -3 -19 -10 -20 -20 -1 -20 -20 -20 -20 -20 -20 -20 -20 -20 -20 -20 -20 -20 -20 -20 -20 -20 -20 -20 -20 -20 -20 -20
-20 -20 -20 -20 -20 -20 -20 -20 -20 -20 -20 -20 -20 -20 -20 -20 -19 -2 -0 -4 2 -7 -3 4 -20 -20 -20 -20 -20 -20 -20 -19 -20 -20 -20 -20 -20 -20 -20 -20 -20 -20 -20 -20 -20 -20 -20 -20 -20
-20 -20 -20 -20 -20 -20 -20 -20 -20 -20 -20 -20 -20 -20 -20 -20 -20 -20 -20 -20 -11 4 -14 -17 -13 -2 -4 -19 -20 -20 -20 -20 -20 -20 -20 -20 -20 -20 -20 -20 -20 -20 -20 -20 -20 -20 -20 -20 -20
-20 -20 -20 -20 -20 -20 -20 -20 -20 -20 -20 -20 -20 -20 -20 -20 -20 -20 -20 -20 -20 -20 -20 -20 -0 1 -20 -16 -16 -16 -20 -20 -20 -20 -20 -20 -20 -20 -20 -20 -20 -20 -20 -20 -20 -20 -20 -20 -20
-20 -20 -20 -20 -20 -20 -20 -20 -20 -20 -20 -20 -20 -20 -20 -20 -20 -20 -20 -20 -20 -20 -20 -20 -20 -11 -1 -20 12 -20 -20 -20 -20 -20 -20 -20 -20 -20 -20 -20 -20 -20 -20 -20 -20 -20 -20 -20 -20
-20 -20 -20 -20 -20 -20 -20 -20 -20 -20 -20 -20 -20 -20 -20 -20 -20 -20 -20 -20 -20 -20 -20 -20 -20 -20 -20 -10 12 6 -19 19 -20 -20 -20 -20 -20 -20 -20 -20 -20 -20 -20 -20 -20 -20 -20 -20 -20
-20 -20 -20 -20 -20 -20 -20 -20 -20 -20 -20 -20 -20 -20 -20 -20 -20 -20 -20 -20 -20 -20 -20 -20 -20 -20 -20 -20 -9 4 19 -20 -20 -20 -20 -20 -20 -20 -20 -20 -20 -20 -20 -20 -20 -20 -20 -20 -20
-20 -20 -20 -20 -20 -20 -20 -20 -20 -20 -20 -20 -20 -20 -20 -20 -20 -20 -20 -20 -20 -20 -20 -20 -20 -20 -20 -20 17 -20 12 -14 -20 -20 -20 -13 -20 -20 -20 -20 -20 -20 -20 -20 -20 -20 -20 -20 -20
-20 -20 -20 -20 -20 -20 -20 -20 -20 -20 -20 -20 -20 -20 -20 -20 -20 -20 -20 -20 -20 -20 -20 -20 -20 -20 -20 0 -20 -20 -10 -17 -13 -20 -20 -20 -18 -20 -20 -20 -20 -20 -20 -20 -20 -20 -20 -20 -20
-20 -20 -20 -20 -20 -20 -20 -20 -20 -20 -20 -20 -20 -20 -20 -20 -20 -20 -20 -20 -20 -20 -20 -20 -20 -20 -20 -20 -20 -20 -20 -20 -20 5 -20 -20 -2 -20 -20 -20 -20 -20 -20 -20 -20 -20 -20 -20 -20
-20 -20 -20 -20 -20 -20 -20 -20 -20 -20 -20 -20 -20 -20 -20 -20 -20 -20 -20 -20 -20 -20 -20 -20 -20 -20 -20 -20 -20 -20 -20 -20 -20 2 -20 -20 -20 -20 -20 -14 -7 -15 8 -20 -20 -20 -20 -20 -20
-20 -20 -20 -20 -20 -20 -20 -20 -20 -20 -20 -20 -20 -20 -20 -20 -20 -20 -20 -20 -20 -20 -20 -20 -20 -20 -20 -20 -20 -20 -20 -20 -20 -20 -20 -20 14 -20 20 -16 -20 19 -18 -20 -20 -20 -20 -20 -20
-20 -20 -20 -20 -20 -20 -20 -20 -20 -20 -20 -20 -20 -20 -20 -20 -20 -20 -20 -20 -20 -20 -20 -20 -20 -20 -20 -20 -20 -20 -20 -20 -20 -20 -20 -20 21 21 24 -14 -18 -20 27 -20 -19 -20 -17 -20 -20
-20 -20 -20 -20 -20 -20 -20 -20 -20 -20 -20 -20 -20 -20 -20 -20 -20 -20 -20 -20 -20 -20 -20 -20 -20 -20 -20 -20 -20 -7 -19 -20 -20 -20 -20 -20 -20 13 16 22 20 -4 -17 -20 -11 19 17 20 11
-4 -20 -20 -20 -20 -20 -20 -20 -20 -20 -20 -20 -20 -20 -20 -20 -20 -20 -20 -20 -20 -20 -20 -20 -20 -20 -20 -20 -20 -20 -13 -6 -5 -20 -20 -20 -20 -20 -20 -3 -20 -17 22 11 23 19 18 18 16
-20 -20 -20 -20 -20 -20 -20 -20 -20 -20 -20 -20 -20 -20 -20 -20 -20 -20 -20 -20 -20 -20 -20 -20 -20 -20 -20 -20 -20 -20 -20 -7 -0 -20 -20 -20 -20 -20 -20 8 13 20 -15 23 22 21 20 19 18
-20 -20 -20 -20 -20 -20 -20 -20 -20 -20 -20 -20 -20 -20 -20 -20 -20 -20 -20 -20 -20 -20 -20 -20 -20 -20 -20 -20 -20 -20 -20 -20 -20 -20 -20 -20 -20 -20 -20 -19 -4 -9 20 24 26 21 19 -2 2
-20 -20 -20 -20 -20 -20 -20 -20 -20 -20 -20 -20 -20 -20 -20 -20 -20 -20 -20 -20 -20 -20 -20 -20 -20 -20 -20 -20 -20 -20 -20 -20 -20 -20 -20 -20 -20 -20 -20 -20 -20 -20 14 17 23 25 23 -6 -2
-20 -20 -20 -20 -20 -20 -20 -20 -20 -20 -20 -20 -20 -20 -20 -20 -20 -20 -20 -20 -20 -20 -20 -20 -20 -20 -20 -20 -20 -20 -20 -20 -20 -9 -1 -20 -20 -20 -20 -12 -15 -20 -20 -3 17 22 22 22 17
-20 -20 -20 -20 -20 -20 -20 -20 -20 -20 -20 -20 -20 -20 -20 -20 -20 -20 -20 -20 -20 -20 -20 -20 -20 -20 -20 -20 -20 -20 -20 -20 -20 -19 -19 -13 -7 -20 -20 -17 -7 -20 -20 -20 7 -18 20 16 26

GFSSGP_prec_radar_036.txt.gz
Reflectivity
-20 -20 -20 -20 -20 -20 -20 -20 -20 -20 -20 -20 -20 -20 -20 -20 -20 -20 -20 -20 -20 -20 -20 -20 1 6 8 -20 18 -2 -20 -20 14 -14 -3 -16 -20 -20 -20 -20 -20 -8 -5 24 21 -20 -20 -20 -20
-20 -20 -20 -20 -20 -20 -20 -20 -20 -20 -20 -20 -20 -20 -20 -20 -20 -20 -20 -20 -20 -20 -20 -20 -20 -20 -13 -19 7 -20 -8 10 10 -11 -20 -20 -20 -20 -20 -20 -20 14 6 -8 8 -20 -20 -20 -20
-20 -20 -20 -20 -20 -20 -20 -20 -20 -20 -20 -20 -20 -20 -20 -20 -20 -20 -20 -20 -20 -20 -20 -20 7 3 14 5 -20 4 10 15 5 -18 -20 -20 -20 -20 -20 -20 -20 -7 -20 -15 -20 -20 -20 -20 -20
-20 -20 -20 -20 -20 -20 -20 -20 -20 -20 -20 -20 -20 -20 -20 -20 -20 -20 -20 -20 -20 -20 -20 -20 14 7 10 5 13 -0 14 16 17 -14 -20 -20 -20 -20 -20 -20 -20 -20 -20 -20 -20 -20 -20 -20 -20
-20 -20 -20 -20 -20 -20 -20 -20 -20 -20 -20 -20 -20 -20 -20 -20 -20 -20 -20 -20 -20 -20 -20 -20 11 15 5 3 -20 13 -10 3 16 -20 -20 -20 -20 -20 -20 -20 -20 -20 -20 -20 -20 -20 -16 -20 -20
-20 -20 -20 -20 -20 -20 -20 -20 -20 -20 -20 -20 -20 -20 -20 -20 -20 -20 -20 -20 -20 -20 -20 -20 14 15 5 -20 -20 -20 -8 14 5 8 -20 -20 -20 -20 -20 -20 -20 -20 -20 -20 -20 -6 -20 -20 -20
-20 -20 -20 -20 -20 -20 -20 -20 -20 -20 -20 -20 -20 -20 -20 -20 -20 -20 -20 -20 -20 -20 -20 -20 -5 -17 -3 -20 -20 -20 -20 -20 17 12 -19 -20 -20 -20 -20 -20 -3 -6 -20 -17 10 -20 -20 -20 -20
-20 -20 -20 -20 -20 -20 -20 -20 -20 -20 -20 -20 -20 -20 -20 -20 -20 -20 -20 -20 -20 -20 -20 -20 -20 -20 -20 -20 -20 -20 8 -19 -14 11 11 -20 -20 -20 -20 -20 -20 -2 6 -5 -15 -20 -20 -20 -20
-20 -20 -20 -20 -20 -20 -20 -20 -20 -20 -20 -20 -20 -20 -20 -20 -16 4 14 4 -17 -8 -19 -20 -20 -20 -20 -20 -20 -20 -20 -8 -9 -20 -20 -8 -20 -20 -20 -20 -20 -20 -20 6 -20 -20 -20 -20 -20
-20 -20 -20 -20 -20 -20 -20 -20 -20 -20 -20 -20 -20 -20 -20 -20 -9 1 9 2 1 -20 -12 -20 -20 -20 -20 -20 -20 -20 -20 -20 -20 -20 -20 -20 -20 -20 -20 -20 -20 -20 -8 -20 -20 -20 -20 -20 -20
-20 -20 -20 -20 -15 -19 -20 -20 -20 -20 -20 -20 -20 -20 -20 -20 -3 -19 -20 -19 -20 -15 -20 -20 -20 -20 -20 -20 -20 -20 -20 -20 -20 -20 -20 -20 -20 -8 2 -19 -19 -20 -20 -20 -20 -20 -20 -20 -20
-20 -20 -20 -20 -8 -20 -20 -20 -20 -20 -20 -20 -20 -20 -20 -20 -20 -20 -20 -20 -20 -15 -20 -20 -20 -20 -20 -20 -20 -20 -20 -20 -20 -20 -20 -20 -20 -4 -7 -1 -14 -20 -20 -20 -20 -20 -20 -20 -20
-20 -20 -20 -19 -8 -20 -20 -20 -20 -20 -20 -20 -20 -20 -20 -20 -20 -20 -20 -20 -20 -20 -19 -20 -20 -20 -20 -20 -20 -20 -20 -20 -20 -20 -20 -20 -20 -20 -20 -16 -13 -4 -20 -20 -20 -20 -20 -20 -20
-20 -20 -20 -20 -20 -20 -20 -20 -20 -20 -20 -20 -20 -20 -20 -20 -20 -20 -20 -20 -20 -20 -20 -20 -20 -20 -20 -20 -20 -20 -20 -20 -20 -20 -20 -20 -20 -20 -20 -3 -17 -12 -20 -20 -20 -20 -20 -20 -20
-20 -20 -20 -20 -20 -20 -20 -20 -20 -20 -20 -20 -20 -20 -20 -20 -20 -20 -20 -20 -20 -20 -20 -20 -20 -20 -20 -20 -19 -20 -20 -20 -20 -20 -20 -20 -20 -20 -20 -2 -7 -3 -20 -20 -20 -20 -20 -20 -20
-20 -20 -1 2 -20 -20 -20 -20 -20 -20 -20 -20 -20 -20 -20 -20 -20 -20 -20 -20 -20 -20 -20 -20 -20 -20 -20 -20 -20 -12 -19 -20 -20 -20 -20 -20 -20 -20 -20 -20 3 -5 -20 -20 -20 -20 -20 -20 -20
-20 -20 -20 -18 -20 -20 -20 -20 -20 -20 -20 -20 -20 -20 -20 -20 -20 -20 -20 -20 -20 -20 -20 -20 -20 -20 -20 -20 -20 -20 -20 -20 -20 -20 -20 -20 -20 -20 -20 -20 -20 -20 -20 -20 -20 -20 -20 -20 -20
-20 -20 -20 -20 -20 -20 -20 -20 -20 -20 -20 -20 -20 -20 -20 -20 -20 -20 -20 -20 -20 -20 -20 -20 -20 -20 -20 -20 -11 -7 -1 -20 -15 -20 -20 -20 -20 -10 -20 -20 -20 -20 -20 -20 -20 -20 -20 -20 -20
-20 -20 -20 -17 -20 -20 -20 -20 -20 -20 -20 -20 -20 -20 -20 -20 -20 -20 -20 -20 -20 -20 -20 -20 -20 -20 -20 -20 -20 -12 11 -20 7 4 -20 -20 -20 -7 -20 -20 -20 -20 -20 -20 -20 -20 -20 -20 -20
-20 -20 -20 -10 -20 -20 -20 -20 -20 -20 -20 -20 -20 -20 -20 -20 -20 -20 -20 -20 -20 -20 -20 -20 -20 -20 -20 -20 -20 -20 -16 -20 6 -20 9 -20 -20 -20 -20 -9 2 -11 -20 -20 -20 -20 -20 -20 -20
-20 -20 -20 -20 -20 -20 -20 -20 -20 -20 -20 -20 -20 -20 -20 -20 -20 -20 -20 -20 -20 -20 -20 -20 -20 -20 -20 -20 -20 -20 -20 -10 -12 -18 -20 -15 -20 -20 -20 17 -20 -16 -20 -20 -20 -17 -20 -20 -20
-20 -20 -20 -20 -20 -20 -20 -20 -20 -20 -20 -20 -20 -20 -20 -20 -20 -20 -20 -20 -20 -20 -20 -20 -20 -20 -20 -20 -20 -20 -20 -20 -20 -20 -20 -20 -20 -20 -12 -11 14 9 25 -19 -20 14 -20 -20 -20
-20 -20 -20 -20 -20 -20 -20 -20 -20 -20 -20 -20 -20 -20 -20 -20 -20 -20 -20 -20 -20 -20 -20 -20 -20 -20 -20 -20 -20 -20 -20 -20 -20 -20 -20 -20 -20 -20 -20 -17 1 -20 -20 -19 -20 14 -17 -20 -20
-20 -20 -20 -20 -20 -20 -20 -20 -20 -20 -20 -20 -20 -20 -20 -20 -20 -20 -20 -20 -20 -20 -20 -20 -20 -20 -20 -20 -20 -20 -20 -20 -20 -20 -7 -7 3 -20 -18 -20 -4 18 -6 -20 -20 -20 8 -11 -20
-20 -18 -1 -20 -20 -20 -20 -20 -20 -20 -20 -20 -20 -20 -20 -20 -20 -20 -20 -20 -20 -20 -20 -20 -20 -20 -20 -20 -20 -20 -20 -20 -20 -20 -20 -20 -8 -20 -14 -20 -20 -20 11 21 23 22 2 23 18
-19 -4 -18 -20 -20 -20 -20 -20 -20 -20 -20 -20 -20 -20 -20 -20 -20 -20 -20 -20 -20 -20 -20 -20 -20 -20 -20 -20 -20 -20 -20 -20 -20 -20 -20 -20 -20 -6 -20 -20 -20 -20 -20 -7 20 -15 23 24 20
20 -3 -20 -20 -20 -20 -20 -20 -20 -20 -20 -20 -20 -20 -20 -20 -20 -20 -20 -20 -20 -20 -20 -20 -20 -20 -20 -20 -20 -20 -20 -20 -20 -20 -20 -20 -20 -20 -20 -20 -20 -12 9 -16 -20 -20 20 25 26
-6 -4 -20 -20 -20 -20 -20 -20 -20 -20 -20 -20 -20 -20 -20 -20 -20 -20 -20 -20 -20 -20 -20 -20 -20 -20 -20 -20 -20 -20 -20 -20 -20 -20 -20 -20 -20 -14 -20 -20 -20 -20 -20 14 15 11 13 21 17
-20 -20 -20 -20 -20 -20 -20 -20 -20 -20 -20 -20 -20 -20 -20 -20 -20 -20 -20 -20 -20 -20 -20 -20 -20 -20 -20 -20 -20 -20 -20 -20 -20 -20 -20 -20 -20 -19 1 2 -20 -20 -20 -20 7 17 17 1 17
-20 -20 -20 -20 -20 -20 -20 -20 -20 -20 -20 -20 -20 -20 -20 -20 -20 -20 -20 -20 -20 -20 -20 -20 -20 -20 -20 -20 -20 -20 -20 -20 -20 -20 -20 -20 -20 -20 -20 -18 4 21 -13 -20 -2 17 19 22 -18

GFSSGP_prec_radar_039.txt.gz
Reflectivity
-20 -20 -20 -20 -20 -20 -20 -20 -20 -20 -20 -20 -20 -20 -20 -20 -20 -20 -20 -20 -20 -20 -20 -20 -14 12 -20 -20 -10 -16 -20 10 19 -13 8 -20 -20 -20 -20 -20 -9 -18 -10 17 -5 -20 -20 -20 -20
-20 -20 -20 -20 -20 -20 -20 -20 -20 -20 -20 -20 -20 -20 -20 -20 -20 -20 -20 -20 -20 -20 -20 -20 -20 0 -17 -20 -9 -20 -20 16 16 -2 -20 -20 -20 -20 -20 -20 -6 13 -1 8 -17 -20 -20 -20 -20
-18 -20 -20 -20 -20 -20 -20 -20 -20 -20 -20 -20 -20 -20 -20 -20 -20 -20 -20 -20 -20 -20 -20 -20 -19 -20 -3 -20 -20 9 -13 14 12 -1 -20 -20 -20 -20 -20 -20 3 -14 -6 10 -19 -20 -20 -20 -20
6 -20 -20 -20 -20 -20 -20 -20 -20 -20 -20 -20 -20 -20 -20 -20 -20 -20 -20 -20 -20 -20 -20 -20 -20 -12 -15 11 -20 -1 18 15 13 -20 -20 -20 -20 -20 -20 -20 -20 -20 -20 -20 -20 -20 -20 -20 -20
8 -18 -20 -20 -20 -20 -20 -20 -20 -20 -20 -20 -20 -20 -20 -20 -20 -20 -20 -20 -20 -20 -20 -20 8 14 15 10 10 1 8 16 13 -20 -20 -20 -20 -20 -20 -20 -20 -20 -20 -20 -20 -20 -20 -20 -20
-8 -20 -20 -20 -20 -20 -20 -20 -20 -20 -20 -20 -20 -20 -20 -20 -20 -20 -20 -20 -20 -20 -20 -20 11 6 1 11 8 -10 -3 16 14 3 -20 -20 -20 -20 -20 -20 -20 -20 -20 -20 -15 -20 -20 -20 -20
26 13 -20 -20 -20 -20 -20 -20 -20 -20 -20 -20 -20 -20 -20 -20 -20 -20 -20 -20 -20 -20 -20 -20 -20 -5 4 -15 -20 -20 -20 16 11 14 -7 -20 -20 -20 -20 -20 -20 -20 -20 -20 -8 -20 -20 -20 -20
4 -6 21 -20 -20 -20 -20 -20 -20 -20 -20 -20 -20 -20 -20 -20 -20 -20 -20 -20 -20 -20 -20 -20 -20 -20 -20 -20 -20 -20 -20 -20 12 12 -20 -20 -20 -20 -20 -20 -20 3 -20 -12 -20 -20 -20 -20 -20
-20 -8 0 -20 -20 -20 -20 -20 -20 -20 -20 -20 -20 -20 -20 -20 -20 -20 -20 -20 -20 -20 -20 -20 -20 -20 -20 -20 -20 -20 -19 -20 14 13 3 -20 -20 -20 -20 -20 -20 -4 1 10 -20 -20 -20 -20 -20
-20 -8 -20 -20 -20 3 -20 -20 -20 -20 -20 -20 -20 -20 -20 -20 -20 -20 -16 -20 -20 -20 -20 -20 -20 -20 -20 -20 -20 -20 -20 -13 -10 -10 -18 -20 -20 -20 -20 -20 -20 -20 -20 -20 -20 -20 -20 -20 -20
-20 -20 -20 -20 -17 -8 -17 -20 -20 -20 -20 -20 -20 -20 -20 -20 -20 -20 -20 -20 -20 -20 -20 -20 -20 -20 -20 -20 -20 -20 -20 -20 -20 -20 -20 -20 -20 -20 -20 -20 -20 -20 -20 -20 -20 -20 -20 -20 -20
-20 -20 -20 -20 -20 -3 -14 -20 -20 -20 -20 -20 -20 -20 -20 -20 -20 -20 -20 -20 -20 -20 -7 -19 -20 -20 -20 -20 -20 -20 -20 -20 -20 -20 -20 -20 -20 -20 -20 -20 -20 -20 -20 -20 -20 -20 -20 -20 -20
-20 -20 -20 -20 -13 7 4 -20 -20 -20 -20 -20 -20 -20 -20 -20 -20 -20 -20 -20 -20 -20 -20 -20 -20 -20 -20 -20 -20 -20 -20 -20 -20 -20 -20 -20 -20 -20 -20 -20 -20 -20 -20 -20 -20 -20 -20 -20 -20
-20 -20 -20 -19 7 11 -5 -20 -20 -20 -20 -20 -20 -20 -20 -20 -20 -20 -20 -20 -20 -20 -20 -20 4 -20 -20 -20 -20 -20 -20 -20 -20 -20 -20 -20 -20 -20 -20 -20 -14 -20 -20 -20 -20 -20 -20 -20 -20
-20 -20 -19 -2 11 -6 -20 -20 -20 -20 -20 -20 -20 -20 -20 -20 -20 -20 -20 -20 -20 -20 -20 -20 -20 -20 -20 -20 -20 -20 -20 -20 -20 -20 -20 -20 -20 -20 -20 -20 -20 -9 -19 -20 -20 -20 -20 -20 -20
2 -13 -20 -5 8 -3 -20 -20 -20 -20 -20 -20 -20 -20 -20 -20 -20 -20 -20 -20 -20 -20 -20 -20 -20 -20 -20 -20 -20 -8 -20 -20 -20 -20 -20 -20 -20 -20 -20 -20 -20 -11 5 -20 -20 -20 -20 -20 -20
-6 -20 -20 2 14 -4 -20 -20 -20 -20 -20 -20 -20 -20 -20 -20 -20 -20 -20 -20 -20 -20 -20 -20 -20 -20 -20 -20 -20 -20 -14 -1 -20 -20 -20 -20 -20 -20 -20 -20 -20 -20 -20 -20 -20 -20 -20 -20 -20
-20 -20 -20 -20 -12 -20 -20 -20 -20 -20 -20 -20 -20 -20 -20 -20 -20 -20 -20 -20 -20 -20 -20 -20 -20 -20 -20 -20 -20 -20 4 7 6 -20 -20 -20 -20 -20 -20 -20 -20 -20 -20 -20 -20 -20 -20 -20 -20
-20 -20 -20 -17 -20 -20 -20 -20 -20 -20 -20 -20 -20 -20 -20 -20 -20 -20 -20 -20 -20 -20 -20 -20 -20 -20 -20 -20 -20 -20 -20 -20 10 -20 -20 -20 -20 -20 -20 -20 -20 -20 -20 -20 -20 -20 -20 -20 -20
-20 -20 -20 -10 -20 -20 -14 -20 -20 -20 -20 -20 -20 -20 -20 -20 -20 -20 -20 -20 -20 -20 -20 -20 -20 -20 -20 -20 -20 -20 -20 -20 -17 -8 -7 -20 -20 -20 -20 -20 -20 -20 -20 -20 -20 -20 -20 -20 -20
-20 -20 -20 -5 -20 -20 -20 -20 -20 -20 -20 -20 -20 -20 -20 -20 -20 -20 -20 -20 -20 -20 -20 -20 -20 -20 -20 -20 -20 -20 -20 -9 -20 -12 -20 -16 -20 -20 -20 -20 -20 -20 -20 -20 -20 -20 -20 -20 -20
-20 -20 -20 -20 -20 -20 -20 -20 -17 -20 -20 -20 -20 -20 -20 -20 -20 -20 -20 -20 -20 -20 -20 -20 -20 -20 -20 -20 -20 -20 -20 -20 -20 -20 -20 -20 -20 -20 -1 9 9 -18 -10 -13 -20 -20 -19 -17 5
-7 -20 -20 -20 -7 -20 -20 -20 -20 -20 -20 -20 -20 -20 -20 -20 -20 -20 -20 -20 -20 -20 -20 -20 -20 -20 -20 -20 -20 -20 -20 -20 -20 -20 -20 -20 -20 -20 -10 -20 -20 12 22 -3 -3 -20 -20 7 -20
-20 -20 -20 -20 -20 -20 -20 -20 -20 -20 -20 -20 -20 -20 -20 -20 -20 -20 -20 -20 -20 -20 -20 -20 -20 -20 -20 -20 -20 -20 -20 -20 -20 -20 -20 -20 -20 -15 -20 -9 -4 -6 -12 -20 -11 23 3 -4 10
-20 -12 6 6 -4 -16 -20 -20 -20 -20 -20 -20 -20 -20 -20 -20 -20 -20 -20 -20 -20 -20 -20 -20 -20 -20 -20 -20 -20 -20 -20 -20 -20 -20 -20 -20 -17 -5 -20 -6 10 11 10 10 5 0 18 20 21
-20 -3 16 -3 -18 -20 -20 -20 -20 -20 -20 -20 -20 -20 -20 -20 -20 -20 -20 -20 -20 -20 -20 -20 -20 -20 -20 -20 -20 -20 -20 -20 -20 -20 -20 -20 -20 -20 -16 -20 -20 10 1 -1 14 10 8 2 0
-18 -17 -20 -20 -20 -20 -20 -20 -20 -20 -20 -20 -20 -20 -20 -20 -20 -20 -20 -20 -20 -20 -20 -20 -20 -20 -20 -20 -20 -20 -20 -20 -20 -20 -20 -20 -20 -20 -20 6 -7 -14 6 5 -0 15 13 18 -3
-3 -20 -15 -20 -20 -20 -20 -20 -20 -20 -20 -20 -20 -20 -20 -20 -20 -20 -20 -20 -20 -20 -20 -20 -20 -20 -20 -20 -20 -20 -20 -20 -20 -20 -20 -20 -20 -20 -20 -20 -16 -7 0 9 13 12 24 13 16
11 26 -15 -20 -20 -20 -20 -20 -20 -20 -20 -20 -20 -20 -20 -20 -20 -20 -20 -20 -20 -20 -20 -20 -20 -20 -20 -20 -20 -20 -20 -20 -20 -20 -20 -20 -20 -20 -20 -18 10 17 -18 14 18 20 19 23 24
-7 -11 -2 -20 -20 -20 -20 -20 -20 -20 -20 -20 -20 -20 -20 -20 -20 -20 -20 -20 -20 -20 -20 -20 -20 -20 -20 -20 -20 -20 -20 -20 -20 -20 -20 -20 -20 -20 -20 -20 -20 -20 -20 8 14 -4 10 14 19

GFSSGP_prec_radar_042.txt.gz
Reflectivity
-20 -20 -20 -20 -20 -20 -20 -20 -20 -20 -20 -20 -20 -20 -20 -20 -20 -20 -20 -20 -20 -20 -20 -20 -20 -20 -20 -20 -18 -20 8 -17 18 7 10 -20 -20 -20 -20 -15 -15 -20 23 4 -20 -20 -20 -20 -20
-20 -20 -20 -20 -20 -20 -20 -20 -20 -20 -20 -20 -20 -20 -20 -20 -20 -20 -20 -20 -20 -20 -20 -20 -16 -8 -20 -20 -20 -20 4 16 18 3 -20 -20 -20 -20 -20 15 8 11 -20 -20 -20 -20 -20 -20 -20
-19 -20 -20 -20 -20 -20 -20 -20 -20 -20 -20 -20 -20 -20 -20 -20 -20 -20 -20 -20 -20 -20 -20 -20 2 -7 -20 -20 -20 -20 17 14 16 -20 -20 -20 -20 -20 -20 12 3 -19 5 -18 -20 -20 -20 -20 -20
4 -20 -20 -20 -20 -20 -20 -17 -20 -20 -20 -20 -20 -20 -20 -20 -20 -20 -20 -20 -20 -20 -20 -20 -20 -20 11 8 -20 2 13 14 6 -11 -20 -20 -20 -20 -20 -20 -20 -20 -20 -20 -20 -20 -20 -20 -20
22 -14 -20 -20 -20 -20 -20 0 -20 -20 -20 -20 -20 -20 -20 -20 -20 -20 -20 -20 -20 -20 -20 -20 -20 -20 9 7 -20 8 18 15 7 -20 -20 -20 -20 -20 -20 -20 -20 -20 -20 -20 -20 -20 -20 -20 -20
26 21 11 -20 -20 -20 -20 -12 -20 -20 -20 -20 -20 -20 -20 -20 -20 -20 -20 -20 -20 -20 -20 -20 -20 6 -2 17 13 3 13 15 0 -2 -20 -20 -20 -20 -20 -20 -20 -20 -20 -20 -10 -20 -20 -20 -20
31 22 7 -20 -6 -10 -20 -2 -20 -20 -20 -20 -20 -20 -20 -20 -20 -20 -20 -20 -20 -20 -20 -20 -20 -7 -9 15 10 14 8 -13 17 1 -20 -20 -20 -20 -20 -20 -20 -20 -20 -13 -20 -20 -20 -20 -20
13 21 13 -2 11 6 -20 0 -20 -20 -20 -20 -20 -20 22 -20 -20 -20 -20 -20 -20 -20 -20 -20 -20 -20 -20 -20 -20 -20 -20 13 9 9 -20 -20 -20 -20 -20 -20 -20 -20 -20 -11 -20 -20 -20 -20 -20
24 21 35 -20 -15 -19 -7 -20 -20 -20 -20 -20 -20 -20 -20 -7 -20 -20 -20 -20 -20 -20 -20 -20 -20 -20 -20 -20 -20 -20 -20 -20 9 12 -19 -20 -20 -20 -20 -20 -20 -20 -20 -20 -20 -20 -20 -20 -20
22 5 -2 3 -0 -14 24 -17 -20 -20 -20 -20 -20 -20 -20 -20 -20 -20 -20 -20 -20 -20 -20 -20 -20 -20 -20 -20 -20 -20 -20 -20 -20 -20 -20 -20 -20 -20 -20 -20 -20 -18 -20 -20 -20 -20 -20 -20 -20
-17 -4 -1 26 4 15 32 -15 -20 -20 -20 -20 -20 -20 -20 -20 -20 -20 -20 -20 -20 -20 -20 -20 -20 -20 -20 -20 -20 -20 -20 -20 -20 -20 -20 -20 -20 -20 -20 -20 -20 -20 -20 -20 -20 -20 -20 -20 -20
-15 6 13 9 13 11 10 -16 -20 -20 -20 -20 -20 -20 -20 -20 -20 -20 -20 -20 -20 -20 -20 -20 -20 -20 -20 -20 -20 -20 -20 -20 -20 -20 -20 -20 -20 -20 -20 -20 -20 -20 -20 -20 -20 -20 -20 -20 -20
-20 6 11 4 3 -19 15 -19 -0 -20 -20 -20 -20 -20 -20 -20 -20 -20 -20 -20 -20 -20 -20 -20 -20 -20 -20 -20 -20 -20 -20 -20 -20 -20 -20 -20 -20 -20 -20 -20 -20 -20 -20 -20 -20 -20 -20 -20 -20
-20 1 5 11 -20 -20 -19 1 -20 -20 -20 -20 -20 -20 -20 -20 -20 -20 -20 -20 -20 -20 -20 -20 -20 -20 -20 -20 -20 -20 -20 -20 -20 -20 -20 -20 -20 -20 -20 -20 -20 -20 -20 -20 -20 -20 -20 -20 -20
-20 -13 -8 16 -20 -16 13 10 -20 -20 -20 -20 -20 -20 -20 -20 -20 -20 -20 -20 -20 -20 -20 -20 -20 -20 -20 -20 -20 -20 -20 -20 -20 -20 -20 -20 -20 -20 -20 -20 -20 -20 -20 -20 -20 -20 -20 -20 -20
-20 -20 6 -19 -20 1 1 -20 -20 -20 -20 -20 -20 -20 -20 -20 -20 -20 -20 -20 -20 -20 -20 -15 -20 -20 -20 -20 -20 -20 -20 -20 -20 -20 -20 -20 -20 -20 -20 -20 -20 -20 -20 -20 -20 -20 -20 -20 -20
-2 -20 -20 -20 -20 4 -8 -20 -20 -20 -20 -20 -20 -20 -20 -20 -20 -20 -20 -20 -20 -20 -20 -20 -20 -9 -20 -20 -20 -20 -20 -20 -20 -20 -4 -20 -20 -20 -20 -20 -20 -20 -20 -20 -20 -20 -20 -20 -20
-15 -20 -20 -20 -20 -20 -18 -20 -13 -20 -20 -20 -20 -20 -20 -20 -20 -20 -20 -20 -20 -20 -20 -20 -20 -20 -20 -20 -20 -20 -20 -20 -20 4 -20 -18 -20 -20 -20 -20 -20 -20 -20 -20 -20 -20 -20 -20 -20
-20 -20 -20 -20 -20 -20 -20 -20 -2 -20 -20 -20 -20 -20 -20 -20 -20 -20 -20 -20 -20 -20 -20 -20 -20 -20 -20 -20 -20 -7 -20 -20 -20 -20 -20 -20 8 -20 -20 -20 -20 -20 -20 -20 -20 -20 -20 -20 -20
8 -20 -20 -20 -20 -20 -20 -20 -20 -20 -20 -20 -20 -20 -20 -20 -20 -20 -20 -20 -20 -20 -20 -20 -20 -20 -20 -20 -20 -20 -20 -20 -20 -20 -20 -20 5 -20 24 -20 -20 -20 -9 -20 -20 -20 -20 -20 -20
-20 -20 -20 -20 -20 -20 -20 -20 -20 -20 -20 -20 -20 -20 -20 -20 -20 -20 -20 -20 -20 -20 -20 -20 -20 -20 -20 -20 -20 -20 -20 -20 -20 -20 -20 -20 -20 15 24 -9 0 -15 -20 -20 -20 3 4 -5 -20
-7 -20 -20 -20 -20 -20 -18 -20 -20 -20 -20 -20 -20 -20 -20 -20 -20 -20 -20 -20 -20 -20 -20 -20 -20 -20 -20 -20 -20 -20 -20 -20 -20 -20 -20 -20 -20 -20 -20 17 25 9 23 8 7 27 24 -1 -20
-4 -20 -20 -20 -20 -20 -20 -20 -20 -20 -20 -20 -20 -20 -20 -20 -20 -20 -20 -20 -20 -20 -20 -20 -20 -20 -20 -20 -20 -20 -20 -20 -20 -20 -20 4 -19 -18 -20 -20 -6 12 21 -5 27 -17 -14 6 13
-18 -20 -20 -20 -20 -20 -20 -20 -20 -20 -20 -20 -20 -20 -20 -20 -20 -20 -20 -20 -20 -20 -20 -20 -20 -20 -20 -20 -20 -20 -20 -20 -20 -20 -20 -20 -20 -9 11 -20 -20 1 16 20 11 -1 -20 -8 -5
1 -20 -9 3 -9 -20 -20 -20 -20 -20 -20 -20 -20 -20 -20 -20 -20 -20 -20 -20 -20 -20 -20 -20 -20 -20 -20 -20 -20 -20 -20 -20 -20 -20 -20 -20 -17 12 -6 -15 4 -13 -10 13 16 20 18 21 -12
-20 -20 -8 -20 -19 -20 -20 -20 -20 -20 -20 -20 -20 -20 -20 -20 -20 -20 -20 -20 -20 -20 -20 -20 -20 -20 -20 -20 -20 -20 -20 -20 -20 -20 -20 -20 -20 -20 -20 14 20 20 -20 6 15 22 17 13 12
-6 -20 -20 -20 -20 -20 -20 -20 -20 -20 -20 -20 -20 -20 -20 -20 -20 -20 -20 -20 -20 -20 -20 -20 -20 -20 -20 -20 -20 -20 -20 -20 -20 -20 -20 -20 -20 -20 -20 -20 -20 -15 11 9 15 11 16 23 12
-5 -20 -20 -20 -20 -20 -20 -20 -20 -20 -20 -20 -20 -20 -20 -20 -20 -20 -20 -20 -20 -20 -20 -20 -20 -20 -20 -20 -20 -20 -20 -20 -20 -20 -20 -20 -20 -20 -20 -20 -20 -20 -20 -19 14 7 -5 13 27
-20 -20 -20 -20 -20 -20 -20 -20 -20 -20 -20 -20 -20 -20 -20 -20 -20 -20 -20 -20 -20 -20 -20 -20 -20 -20 -20 -20 -20 -20 -20 -20 -20 -20 -20 -20 -20 -20 -20 -20 -20 -20 -20 6 6 19 11 -6 7
11 -0 -20 -20 -20 -20 -20 -20 -20 -20 -20 -20 -20 -20 -20 -20 -20 -20 -20 -20 -20 -20 -20 -20 -20 -20 -20 -20 -20 -20 -20 -20 -20 -20 -20 -20 -20 -20 -20 -20 -20 -20 -20 4 -16 -20 -20 -20 -17

GFSSGP_prec_radar_045.txt.gz
Reflectivity
-20 -20 -20 -20 -20 -20 -20 -20 -20 -20 -20 -20 -20 -20 -20 -20 -20 -20 -20 -20 -20 -20 -20 -20 -20 -20 -20 -20 -20 -20 -20 -20 -2 13 -20 -20 -20 -20 -20 -20 -20 21 2 -20 -20 -20 -20 -20 -20
-20 -20 -20 -20 -20 -20 -20 -20 -20 -20 -20 -20 -20 -20 -20 -20 -20 -20 -20 -20 -20 -20 -20 -20 -20 -20 -20 -20 -20 -20 -5 -4 11 -18 -20 -20 -20 -20 13 2 -4 6 -20 -20 -20 -20 -20 -20 -20
-0 -20 -20 -20 -20 -20 -20 -20 -20 -20 -20 -20 -20 -20 -20 -20 -20 -20 -20 -20 -20 -20 -20 -20 -20 -20 -20 -20 -20 -20 -16 -13 -7 -20 -20 -20 -20 -20 18 12 10 2 -20 -20 -20 -20 -20 -20 -20
-12 -3 -20 -20 -20 -20 -20 -20 -20 -20 -20 -20 -20 -20 -20 -20 -20 -20 -20 -20 -20 -20 -20 2 11 -20 -20 -20 -20 14 12 20 -20 -20 -20 -20 -20 -20 13 -19 -20 -20 -20 -20 -20 -20 -20 -20 -20
16 -19 -5 -20 -20 -20 -20 -20 -20 -20 -20 -20 -20 -20 -20 -20 -20 -20 -20 -20 -20 -20 -20 -20 -20 -20 -13 -12 -20 17 17 12 -1 -20 -20 -20 -20 -20 -20 -20 -20 -20 -20 -20 -20 -20 -20 -20 -20
28 22 -19 -19 -20 -18 -20 -20 -20 -20 -20 -20 -20 -20 -20 -20 -20 -20 -20 -20 -20 -20 -20 -20 -20 -20 14 7 -20 4 -20 -11 -15 -20 -20 -20 -20 -20 -20 -20 -20 -20 -20 -20 -20 -20 -20 -20 -20
1 26 -1 -20 13 11 -5 -20 -20 -20 -20 -20 -20 -20 -20 -20 -20 -20 -20 -20 -20 -20 -20 -20 -20 -20 10 13 12 11 4 -20 -20 -20 -20 -20 -20 -20 -20 -20 -20 -20 -20 -13 -20 -20 -20 -20 -20
9 14 11 13 15 18 2 9 -20 -20 -20 -20 -20 -20 -20 -20 -20 -20 -5 -20 -20 -20 -20 -20 -20 -20 -20 -18 -12 -19 -20 -20 -20 -20 -20 -20 -20 -20 -20 -20 -20 -20 -20 -20 -20 -20 -20 -20 -20
28 27 26 26 30 7 13 24 -12 -20 -20 -20 -20 -20 -20 -20 -20 -20 -20 -20 -20 -20 -20 -20 -20 -20 -20 -20 -20 -20 -20 -20 -12 -20 -20 -20 -20 -20 -20 -20 -20 -9 -2 -20 -20 -20 -20 -20 -20
23 27 -16 -6 -16 25 15 -3 8 -20 -20 -20 -20 -20 -20 -20 -20 -20 -20 -20 -20 -20 -20 -20 -20 -20 -20 -20 -20 -20 -20 -20 -20 -20 -20 -20 -20 -20 -20 -20 -20 -20 -20 -20 -20 -20 -20 -20 -20
12 17 -20 20 20 35 21 -19 8 -20 -20 -20 -20 -20 -20 -20 -20 -20 -20 -20 -20 -20 -20 -20 -20 -20 -20 -20 -20 -20 -20 -20 -20 -20 -20 -20 -20 -20 -20 -20 -20 -20 -20 -20 -20 -20 -20 -20 -20
2 5 0 16 15 35 34 -8 -4 -6 -20 -20 -20 -20 -20 -20 -20 -20 -20 -20 -20 -20 -20 -20 -20 -20 -20 -20 -20 -20 -20 -20 -20 -20 -20 -20 -20 -20 -20 -20 -20 -20 -20 -20 -20 -20 -20 -20 -20
-18 3 5 17 -2 13 25 28 25 -8 -20 -20 -20 -20 -20 -20 -20 -20 -20 -20 -20 -20 -20 -20 -20 -20 -20 -20 -20 -20 -20 -20 -20 -20 -20 -20 -20 -20 -20 -20 -20 -20 -20 -20 -20 -20 -20 -20 -20
-20 -1 9 5 15 12 30 26 4 1 -20 -20 -20 -20 -20 -20 -20 -20 -20 -20 -20 -20 -20 -20 -20 -20 -20 -20 -20 -20 -20 -20 -20 -20 -20 -20 -20 -20 -20 -20 -20 -20 -20 -20 -20 -20 -20 -20 -20
-14 -19 0 -8 -12 6 -20 -20 18 -20 -20 -20 -20 -20 -20 -20 -20 -20 -20 -20 -20 -20 -20 -20 -20 -20 -20 -20 -20 -20 -20 -20 -20 -20 -20 -20 -20 -20 -20 -20 -20 -20 -20 -20 -20 -20 -20 -20 -20
-3 -20 -20 -20 -8 4 5 -20 -16 -19 -20 -20 -20 -20 -20 -20 -20 -20 -20 -20 -20 -20 -20 -20 -20 -20 -20 -20 -20 -20 -20 -20 -20 -20 -20 -20 -20 -20 -20 -20 -20 -20 -20 -20 -20 -20 -20 -20 -20
-6 -20 -20 -20 -20 -20 -1 -4 -20 -20 -20 -20 -20 -20 -20 -20 -20 -20 -20 -20 -20 -20 -20 -20 -20 -20 -20 -20 -20 -20 -20 -20 -20 -20 -20 -20 -20 -20 -20 -20 -20 -20 -20 -20 -20 -20 -20 -20 -20
-19 -20 -20 -20 -19 -3 0 -20 -20 -20 -20 -20 -20 -20 -20 -20 -20 -20 -20 -20 -20 -20 -20 -20 -20 -20 -20 -20 -20 -20 -20 -20 -20 -20 -18 -20 -20 -20 -20 -20 -20 -20 -20 -20 -20 -20 -20 -20 -20
-20 -20 -20 -20 -20 -14 -13 -20 -14 -20 -20 -20 -20 -20 -20 -20 -20 -20 -20 -20 -20 -20 -20 -20 -20 -20 -20 -20 -20 -20 -20 -20 12 -20 -20 24 3 -20 -20 -20 8 -20 -20 -20 -20 -20 -20 -20 -20
-20 -20 -20 -20 -20 -13 -15 -20 -20 -20 -20 -20 -20 -20 -20 -20 -20 -20 -20 -20 -20 -20 -20 -20 -20 -20 -20 -20 -20 -20 -20 -20 -20 -20 -20 -20 -20 -10 -20 -20 -20 10 -20 -20 -20 -20 -20 -20 -20
-20 -20 -20 -20 -20 -20 -20 -20 -20 -20 -20 -20 -20 -20 -20 -20 -20 -20 -20 -20 -20 -20 -20 -20 -20 -20 -20 -20 -20 -20 -20 -20 -20 -20 -20 -20 -20 -20 -20 -20 -7 11 -2 -20 -11 -20 24 -6 14
-20 -20 -20 -20 -20 -20 -20 -20 -20 -20 -20 -20 -20 -20 -20 -20 -20 -20 -20 -20 -20 -20 -20 -20 -20 -20 -20 -20 -20 -20 -20 -20 -20 -20 -20 -20 -20 -20 -20 -20 -20 -20 -18 11 -3 12 -19 23 -6
-20 -20 -20 -20 -20 -20 -20 -20 -20 -20 -20 -20 -20 -20 -20 -20 -20 -20 -20 -20 -20 -20 -20 -20 -20 -20 -20 -20 -20 -20 -20 -20 -20 -20 -20 -20 -20 8 4 -20 -20 -10 31 -20 12 19 21 20 27
-20 -20 -20 -20 -20 -20 -20 -20 -20 -20 -20 -20 -20 -20 -20 -20 -20 -20 -20 -20 -20 -20 -20 -20 -20 -20 -20 -20 -20 -20 -20 -20 -20 -20 -20 -20 -20 -20 0 -11 9 2 30 4 17 22 16 22 20
-20 -18 -20 -8 -20 -20 -20 -20 -20 -20 -20 -20 -20 -20 -20 -20 -20 -20 -20 -20 -20 -20 -20 -20 -20 -20 -20 -20 -20 -20 -20 -20 -20 -20 -20 -20 -20 -20 -20 -20 -20 -4 14 -7 22 15 15 21 15
-20 -1 -20 -20 -20 -20 -20 -20 -20 -20 -20 -20 -20 -20 -20 -20 -20 -20 -20 -20 -20 -20 -20 -20 -20 -20 -20 -20 -20 -20 -20 -20 -20 -20 -20 -20 -20 -20 -20 -20 -20 -20 -20 -20 6 -7 -12 -3 18
15 19 -19 -20 -20 -20 -20 -20 -20 -20 -20 -14 0 -20 -20 -20 -20 -20 -20 -20 -20 -20 -20 -20 -20 -20 -20 -20 -20 -20 -20 -20 -20 -20 -20 -20 -20 -20 -20 -20 -20 -20 -20 -20 -20 -20 -16 14 -9
17 13 7 -20 -8 -20 -20 -20 -20 -20 -20 -16 -19 -20 -20 -20 -20 -20 -20 -20 -20 -20 -20 -20 -20 -20 -20 -20 -20 -20 -20 -20 -20 -20 -20 -20 -20 -20 -20 -20 -20 -20 -20 -20 -20 -20 -20 -9 5
-18 -17 -20 -20 -20 -20 -20 -20 -20 -20 -20 -20 -20 -20 -20 -20 -20 -20 -20 -20 -20 -20 -20 -20 -20 -20 -20 -20 -20 -20 -20 -20 -20 -20 -20 -20 -20 -20 -20 -20 -20 -20 -20 -20 -20 -20 -20 -20 -20
19 15 26 -16 -20 -20 -20 -20 -20 -20 -20 -20 -20 -20 -20 -20 -20 -20 -20 -20 -20 -20 -20 -20 -20 -20 -20 -20 -20 -20 -20 -20 -20 -20 -20 -20 -20 -20 -20 -20 -20 -20 -20 -20 -20 2 -20 -20 -20

GFSSGP_prec_radar_048.txt.gz
Reflectivity
-20 -20 -20 -20 -20 -20 -20 -20 -20 -20 -20 -20 -20 -20 -20 -20 -20 -20 -20 -20 -20 -20 -20 -20 -20 -20 6 -20 -20 -20 -15 -20 -3 -20 -20 -20 -20 -20 -20 -20 1 -10 -20 -20 -20 -20 -20 -20 -20
-20 -20 -20 -20 -20 -20 -20 -20 -20 -20 -20 -20 -20 -20 -20 -20 -20 -20 -20 -20 -20 -20 -20 -20 -5 -20 -20 -20 -20 -20 -20 -20 -20 -20 -20 -20 -20 -20 -9 -2 19 -20 -20 -20 -20 -20 -20 -20 -20
1 -20 -20 -20 -20 -20 -20 -20 -20 -20 -20 -20 -20 -20 -20 -20 -20 -20 -20 -20 -20 -20 -20 8 -13 -2 -20 -20 -20 -20 -20 -20 -20 -20 -20 -20 -20 11 6 12 12 -19 -20 -20 -20 -20 -20 -20 -20
-5 -5 -20 -20 -20 -20 -20 -20 -20 -20 -20 -20 -20 -20 -20 -20 -20 -20 -20 -20 -20 -20 -20 -19 -11 -20 -20 -20 -20 -14 -16 -20 -20 -20 -20 -20 -8 8 -20 -14 11 -18 -20 -20 -20 -20 -20 -20 -20
11 -2 -11 -20 -20 -20 -20 -20 -20 -20 -20 -20 -20 -20 -20 -20 -20 -20 -20 -20 -20 -20 -20 -15 -14 -20 -20 -20 -20 -17 -20 -20 -20 -20 -20 -20 -11 4 -9 -20 -20 -20 -20 -20 -20 -20 -20 -20 -20
19 10 -10 -19 -20 -20 -20 -20 -20 -20 -20 -20 -20 -20 -20 -20 -20 -20 -20 -20 -20 -20 -20 -20 -1 -20 12 -20 2 -13 4 -20 -20 -20 -20 -20 -20 -20 -20 -20 -20 -20 -20 -20 -20 -20 -20 -20 -20
10 17 10 -13 -1 -1 -15 -20 -20 -20 -20 -20 -20 -20 -20 -20 -20 -20 -20 -20 -20 -20 -20 -20 -20 -6 15 2 -1 5 6 -20 -20 -20 -20 -20 -20 -20 -20 -20 -20 -20 -20 -20 -20 -20 -20 -20 -20
-19 -10 -9 11 14 19 -4 -20 -20 -20 -20 -20 -20 -20 -20 -20 -20 -20 -20 -20 -20 -20 -20 -20 -20 -20 -20 -20 5 -1 1 -20 -20 -20 -20 -20 -20 -20 -20 -20 -20 -20 -19 -20 -20 -20 -20 -20 -20
-6 8 -3 -8 23 28 -14 -20 -20 -20 -20 -20 -20 -20 -20 -20 -20 -20 -20 -20 -20 -20 -20 -20 -20 -20 -20 -20 -15 -6 -20 -20 -20 -20 -20 -20 -20 -20 -20 -20 -20 -6 7 -20 -20 -20 -20 -20 -20
17 -14 -16 -20 -3 18 -6 -20 -20 -20 -20 -20 -20 -20 -20 -20 -20 -20 -20 -20 -20 -20 -20 -20 -20 -20 -20 -20 -20 -20 -20 -20 -20 -20 -20 -20 -20 -20 -20 -20 -20 -20 -9 -20 -20 -20 -20 -20 -20
14 26 5 11 -7 36 24 13 -20 -20 -20 -20 -20 -20 -20 -13 -14 -20 -20 -20 -20 -20 -20 -20 -20 -20 -20 -20 -20 -20 -20 -20 -20 -20 -20 -20 -20 -20 -20 -20 -20 -20 -20 -20 -20 -20 -20 -20 -20
-5 10 10 22 21 32 19 11 3 -20 -20 -20 -20 -20 -20 -20 14 -20 -20 -20 -20 -20 -20 -20 -20 -20 -20 -20 -20 -20 -20 -20 -20 -20 -20 -20 -20 -20 -20 -20 -20 -20 -20 -20 -20 -20 -20 -20 -20
-20 -18 10 12 26 24 30 36 -4 -20 -20 -20 -4 -20 -20 -20 -20 -20 -20 -20 -20 -20 -20 -20 -20 -20 -20 -20 -20 -20 -20 -20 -20 -20 -20 -20 -20 -20 -20 -20 -20 -20 -20 -20 -20 -20 -20 -20 -20
-20 -20 23 28 24 18 20 31 19 -20 -20 -20 -20 -19 -20 -20 -20 -20 -20 -20 -20 -20 -20 -20 -20 -20 -20 -20 -20 -20 -20 -20 -20 -20 -20 -20 -20 -20 -20 -20 -20 -20 -20 -20 -20 -20 -20 -20 -20
-20 1 20 19 -2 -20 10 28 27 22 -20 -20 -20 -20 -20 -20 -20 -20 -20 -20 -20 -20 -20 -20 -20 -20 -20 -20 -20 -20 -20 -20 -20 -20 -20 -20 -20 -20 -20 -20 -20 -20 -20 -20 -20 -20 -20 -20 -20
-20 -20 -3 3 -0 -19 8 6 20 28 22 -5 -20 -20 -20 -19 -20 -20 -20 -20 -20 -20 -20 -20 -20 -20 -20 -20 -20 -20 -20 -20 -20 -20 -20 -20 -20 -20 -20 -20 -20 -20 -20 -20 -20 -20 -20 -20 -20
-10 -20 -20 -5 -2 7 -15 9 10 15 20 -15 -20 -20 -20 -20 -20 -20 -20 -20 -20 -20 -20 -20 -20 -20 -20 -20 -20 -20 -20 -20 -20 -20 -20 -20 -20 -20 -20 -20 -20 -20 -20 -20 -20 -20 -20 -20 -20
-19 -20 -20 -10 -1 -8 -17 3 13 2 -20 -20 -20 -20 -20 -20 -20 -20 -20 -20 -20 -20 -20 -20 -20 -20 -20 -20 -20 -20 -20 -20 -20 -20 -20 -20 -20 -20 -20 -20 -20 -20 -20 -20 -20 -20 -20 -20 -20
-20 -20 -20 -20 -5 -0 -6 -7 10 6 -20 -20 -20 -20 -20 -20 -20 -20 -20 -20 -20 -20 -20 -20 -20 -20 -20 -20 -20 -20 -20 -20 -20 -20 -20 20 -20 -8 -20 -20 -20 -20 -20 -20 -20 -20 -20 -20 -3
-20 -20 -20 -20 -11 -12 -19 -20 -14 -10 -20 -20 -20 -20 -20 -20 -20 -20 -20 -20 -20 -20 -20 -20 -20 -20 -20 -20 -20 -20 -20 -20 -20 -20 -20 -20 -20 -20 -17 -20 -20 -20 -13 -20 -20 -20 9 -20 -20
-20 -20 -20 -20 -20 -20 -20 -20 -19 -20 -20 -20 -20 -20 -20 -20 -20 -20 -20 -20 -20 -20 -20 -20 -20 -20 -20 -20 -20 -20 -20 -20 -20 -20 -20 -20 -20 -20 -20 -20 -20 -20 -20 -6 -20 -0 21 14 25
-20 -20 -20 -20 -20 -20 -20 -20 -20 -20 -20 -20 -20 -20 -20 -20 -20 -20 -20 -20 -20 -20 -20 -20 -20 -20 -20 -20 -20 -20 -20 -20 -20 -20 -20 -20 -20 -20 -20 -20 -20 -20 -20 -20 -20 -19 -19 21 5
-20 -20 -20 -20 -20 -20 -20 -20 -20 -20 -20 -20 -20 -20 -20 -20 -20 -20 -20 -20 -20 -20 -20 -20 -20 -20 -20 -20 -20 -20 -20 -20 -20 -20 -20 -20 -20 -20 -20 -20 -20 -20 13 -18 -20 -20 -20 -20 17
-20 -20 -20 -20 -20 -20 -20 -20 -20 -20 -20 -20 -20 -20 -20 -20 -20 -20 -20 -20 -20 -20 -20 -20 -20 -20 -20 -20 -20 -20 -20 -20 -20 -20 -20 -20 -20 -20 -20 -20 -20 -20 -20 -10 -19 -20 -20 -20 21
-20 -20 -20 -20 -20 -20 -20 -20 -20 -20 -20 -20 -20 -20 -20 -20 -20 -20 -20 -20 -20 -20 -20 -20 -20 -20 -20 -20 -20 -20 -20 -20 -20 -20 -20 -20 -20 -20 -20 -20 -20 -20 -20 -20 -20 -20 16 -13 -15
-20 -20 -20 -20 -20 -20 -20 -20 -20 -20 -20 -20 -20 -20 -20 -20 -20 -20 -20 -20 -20 -20 -20 -20 -20 -20 -20 -20 -20 -20 -20 -20 -20 -20 -20 -20 -20 -20 -20 -20 -20 -20 -20 -20 -20 -20 -20 -7 6
-17 -20 -20 -20 -20 -20 -20 -20 -20 -20 -20 -20 -20 -20 -20 -20 -20 -20 -20 -20 -20 -20 -20 -20 -20 -20 -20 -20 -20 -20 -20 -20 -20 -20 -20 -20 -20 -20 -20 -20 -20 -20 -20 -20 -20 -20 -20 -20 -19
-20 -20 -20 -20 -20 -20 -20 -20 -20 -20 -20 -20 -20 -9 -20 -20 -20 -20 -20 -20 -20 -20 -20 -20 -20 -20 -20 -20 -20 -20 -20 -20 -20 -20 -20 -20 -20 -20 -20 -20 -20 -20 -20 -20 -20 -20 -20 -20 -20
-1 17 -19 -19 -20 -20 -20 -20 -20 -20 -20 -20 -20 -4 -20 -20 -20 -20 -20 -20 -20 -20 -20 -20 -20 -20 -20 -20 -20 -20 -20 -20 -20 -20 -20 -20 -20 -20 -20 -20 -20 -20 -20 -20 -20 -20 -20 -20 -20
-6 -20 -20 -2 -1 -20 -20 -20 -20 -20 -20 -20 -20 -20 -13 -3 -20 -20 -20 -20 -20 -20 -20 -20 -20 -20 -20 -20 -20 -20 -20 -20 -20 -20 -20 -20 -20 -20 -20 -20 -20 -20 -20 -20 -20 -20 -20 -20 -20

GFSSGP_prec_radar_051.txt.gz
Reflectivity
-20 -20 -20 -20 -20 -20 -20 -20 -20 -20 -20 -20 -20 -20 -20 -20 -20 -20 -20 -20 -20 -3 -11 -20 8 -2 -16 9 -20 -20 -20 15 -20 -20 -20 -20 -20 -20 -20 18 -14 -20 -20 -20 -20 -20 -20 -20 -20
-16 -20 -20 -20 -20 -20 -20 -20 -20 -20 -20 -20 -20 -20 -20 -20 -20 -20 -20 -20 -20 -20 -2 14 -20 -6 -18 -20 -20 -20 -8 -20 -20 -20 -20 -20 -20 -20 -20 13 -15 -20 -20 -20 -20 -20 -20 -20 -20
-6 -20 -20 -20 -20 -20 -20 -20 -20 -20 -20 -20 -20 -20 -20 -20 -20 -20 -20 -20 -20 -20 -20 -20 -20 -20 -20 -20 -20 -5 -15 -20 -20 -20 -20 -20 -2 -12 -20 5 -13 -20 -20 -20 -20 -20 -20 -20 -20
-3 -3 -20 -20 -20 -20 -20 -20 -20 -20 -20 -20 -20 -20 -20 -20 -20 -20 -20 -20 -20 -20 -20 15 -17 -20 -20 -20 -20 16 -20 -20 -20 -20 -20 -20 11 11 10 -5 -12 -20 -20 -20 -20 -20 -20 -20 -20
7 -3 -1 -20 -20 -20 -20 -20 -20 -20 -20 -20 -20 -20 -20 -20 -20 -20 -20 -20 -20 -20 -20 -20 -20 -20 -20 -20 3 -20 -20 -20 -20 -20 -20 -16 9 -8 9 -8 -20 -20 -20 -20 -20 -20 -20 -20 -20
-4 10 -20 -18 -20 -20 -20 -20 -20 -20 -20 -20 -20 -20 -20 -20 -20 -20 -20 -20 -20 -20 -20 4 -20 -20 -20 -20 -20 -20 -20 -20 -20 -20 -20 -20 8 15 16 -20 -20 -20 -20 -20 -20 -20 -20 -20 -20
26 -9 -20 -10 -1 -17 -20 -20 -20 -20 -20 -20 -20 -20 -20 -20 -20 -20 -20 -20 -20 -20 -20 -20 -20 -20 -20 -20 -14 -1 -17 -20 -20 -20 -20 -20 -20 4 17 -6 -20 -20 -20 -20 -20 -20 -20 -20 -20
15 9 4 5 19 11 -20 -20 -20 -20 -20 -20 -20 -20 -20 -20 -20 -20 -20 -20 -20 -20 -20 -20 -20 -6 0 -9 -11 8 -20 -20 -20 -20 -20 -20 -20 -20 -2 -20 -20 -20 -19 -20 -20 -20 -20 -20 -20
17 9 -20 -2 19 17 -19 -20 -20 -20 -20 -20 -20 -20 -20 -20 -20 -20 -20 -20 -20 -20 -20 -20 -20 -20 -20 -20 -3 8 -19 -20 -20 -20 -20 -20 -20 -20 -20 -20 -20 -20 -0 -20 -20 -20 -20 -20 -20
6 26 -11 -20 -16 18 -11 -20 -20 -20 -20 -20 7 -20 -20 -20 -4 -20 -20 -20 -20 -20 -20 -20 -20 -20 -20 -20 -20 -20 -20 -20 -20 -20 -20 -20 -20 -20 -20 -20 -20 -20 -20 -20 -20 -20 -20 -20 -20
19 19 -16 -16 15 23 30 13 -20 -20 -20 -20 -20 28 -20 -20 -20 -20 -20 -20 -20 -20 -20 -20 -20 -20 -20 -20 -20 -20 -20 -20 -20 -20 -20 -20 -20 -20 -20 -20 -20 -20 -20 -20 -20 -20 -20 -20 -20
-20 -20 -20 0 22 1 13 27 3 -20 -20 -20 -20 19 30 17 -20 -20 -20 -20 -20 -20 -20 -20 -20 -20 -20 -20 -20 -20 -20 -20 -20 -20 -20 -20 -20 -20 -20 -20 -20 -20 -20 -20 -20 -20 -20 -20 -20
-20 -20 -6 15 18 -3 13 32 29 -20 -20 -20 -20 -20 22 -13 -20 -20 -20 -20 -20 -20 -20 -20 -20 -20 -20 -20 -20 -20 -20 -20 -20 -20 -20 -20 -20 -20 -20 -20 -20 -20 -20 -20 -20 -20 -20 -20 -20
-17 -9 20 -17 22 -19 7 14 33 12 -20 -20 -20 -20 -20 -3 -20 -20 -20 -20 -20 -20 -20 -20 -20 -20 -20 -20 -20 -20 -20 -20 -20 -20 -20 -20 -20 -20 -20 -20 -20 -20 -20 -20 -20 -20 -20 -20 -20
9 20 17 19 9 12 13 29 31 24 -8 -20 -20 -17 27 -20 -20 -20 -20 -20 -20 -20 -20 -20 -20 -20 -20 -20 -20 -20 -20 -20 -20 -20 -20 -20 -20 -20 -20 -20 -20 -20 -20 -20 -20 -20 -20 -20 -20
-15 19 5 17 9 3 24 22 3 31 21 -20 -20 -20 -2 -18 -20 -20 -20 -20 -20 -20 -20 -20 -20 -20 -20 -20 -20 -20 -20 -20 -20 -20 -20 -20 -20 -20 -20 -20 -20 -20 -20 -20 -20 -20 -20 -20 -20
-20 -20 -20 -20 -20 7 4 -16 16 22 16 -20 -20 -20 -20 -20 -20 -20 -20 -20 -20 -20 -20 -20 -20 -20 -20 -20 -20 -20 -20 -20 -20 -20 -20 -20 -20 -20 -20 -20 -20 -20 -20 -20 -20 -20 -20 -20 -20
-20 -20 -20 -20 -20 -7 -8 -12 8 12 17 19 -5 -14 -20 -20 -20 -20 -20 -20 -20 -20 -20 -20 -20 -20 -20 -20 -20 -20 -20 -20 -20 -20 -20 -20 -20 -20 -20 -20 -20 -20 -20 -20 -20 -20 -20 -20 -20
-20 -20 -20 -20 -20 -1 -4 10 7 11 10 -5 1 -17 -20 -20 -20 -20 -20 -20 -20 -20 -20 -20 -20 -20 -20 -20 -20 -20 -20 -20 -20 -20 -20 -20 -20 -20 -20 -20 -20 -20 -20 -20 -20 -20 -20 -20 -20
-20 -20 -20 -20 -20 -15 -14 -3 -9 4 9 -20 3 -20 -20 -20 -20 -20 -20 -20 -20 -20 -20 -20 -20 -20 -20 -20 -20 -20 -20 -20 -20 -20 -20 -20 -20 -20 -20 -20 -20 -20 -20 -20 -20 -20 -20 -20 -20
-20 -20 -20 -20 -20 -20 -14 -1 -0 -6 -6 2 -20 -20 -20 -20 -20 -20 -20 -20 -20 -20 -20 -20 -20 -20 -20 -20 -20 -20 -20 -20 -20 -20 -20 -20 -20 -14 -20 -20 -11 -20 -20 -20 -20 -20 -20 19 -20
-20 -20 -20 -20 -20 -20 -20 -20 -4 -20 2 -9 -20 -20 -20 -20 -20 -20 -20 -20 -20 -20 -20 -20 -20 -20 -20 -20 -20 -20 -20 -20 -20 -20 -20 -20 -20 -20 -20 -20 -20 -20 -20 -20 -20 -20 -20 -20 -5
-20 -20 -20 -20 -20 -20 -20 -20 -20 -20 -20 -20 -20 -20 -20 -20 -20 -20 -20 -20 -20 -20 -20 -20 -20 -20 -20 -20 -20 -20 -20 -20 -20 -20 -20 -20 -20 -20 -20 -20 -20 -20 -20 -20 -20 -20 -20 -20 -2
-20 -20 -20 -20 -20 -20 -20 -20 -20 -19 -20 -20 -20 -20 -20 -20 -20 -20 -20 -20 -20 -20 -20 -20 -20 -20 -20 -20 -20 -20 -20 -20 -20 -20 -20 -20 -20 -20 -20 -20 -20 -20 -20 -20 -9 -20 -20 6 -20
-20 -20 -7 -16 -19 -20 -20 -20 -20 -19 -20 -20 -20 -20 -20 -20 -20 -20 -20 -20 -20 -20 -20 -20 -20 -20 -20 -20 -20 -20 -20 -20 -20 -20 -20 -20 -20 -20 -20 -20 -20 -20 -20 -15 -4 -20 -20 -12 -2
-20 -20 -20 -20 -20 -20 -20 -20 -20 -20 -20 -20 -20 -20 -20 -20 -20 -20 -20 -20 -20 -20 -20 -20 -20 -20 -20 -20 -20 -20 -20 -20 -20 -20 -20 -20 -20 -20 -20 -20 -20 -20 -20 -20 -20 -20 -20 -20 -20
-20 -20 -20 -20 -20 -20 -20 -20 -20 -20 -20 -20 -20 -20 -20 -20 -20 -20 -20 -20 -20 -20 -20 -20 -20 -20 -20 -20 -20 -20 -20 -20 -20 -20 -20 -20 -20 -20 -20 -20 -20 -20 -20 -20 -20 -20 -20 -17 -16
-20 -20 -20 -20 -20 -20 -20 -20 -20 -20 -20 -20 -20 -20 -20 -20 -20 -20 -20 -20 -20 -20 -20 -20 -20 -20 -20 -20 -20 -20 -20 -20 -20 -20 -20 -20 -20 -20 -20 -20 -20 -20 -20 -20 -20 -20 -20 -14 -3
-20 -16 -20 -20 -20 -20 -20 -20 -20 -20 -20 -20 -20 -20 -20 -20 -20 -20 -20 -20 -20 -20 -20 -20 -20 -20 -20 -20 -20 -20 -20 -20 -20 -20 -20 -20 -20 -20 -20 -20 -20 -20 -20 -20 -20 -20 -20 -20 -20
-16 -20 -20 -6 -20 -20 -20 -20 -20 -20 -20 -20 -20 -20 -20 -20 -20 -20 -20 -20 -20 -20 -20 -20 -20 -20 -20 -20 -20 -20 -20 -20 -20 -20 -20 -20 -20 -20 -20 -20 -20 -20 -20 -20 -20 -20 -20 -20 -20

GFSSGP_prec_radar_054.txt.gz
Reflectivity
-3 -20 -20 -20 -20 -20 -20 -20 -20 -20 -20 -20 -20 -20 -20 -20 -20 -20 -20 -20 -20 -11 -20 -20 -2 -12 -20 -20 -20 -20 -16 14 -5 -20 -20 -20 -20 -20 -1 -20 -20 -20 -20 -20 -20 -20 -20 -20 -20
-20 -8 -20 -20 -20 -20 -20 -20 -20 -20 -20 -20 -20 -20 -20 -20 -20 -20 -20 -20 -20 -20 -20 -20 -4 -14 12 -20 -20 -20 10 -20 -20 -20 -20 -20 -20 -20 13 -20 -20 -20 -20 -20 -20 -20 -20 -20 -20
-20 -18 -17 -20 -20 -20 -20 -20 -20 -20 -20 -20 -20 -20 -20 -20 -20 -20 -20 -1 -13 -20 -20 -20 8 -20 -20 -20 -20 3 -19 -20 -20 -20 -20 -20 1 -20 10 -1 -20 -20 -20 -20 -20 -20 -20 -20 -20
-18 -20 -2 -20 -20 -20 -20 -20 -20 -20 -20 -20 -20 -20 -20 -20 -20 -20 -20 -19 -20 -20 -20 -20 -20 -20 -16 -20 -20 8 -20 -20 -20 -20 -20 -14 -8 -20 9 2 -20 -20 -20 -20 -20 -20 -20 -20 -20
3 -19 -20 -19 -20 -20 -20 -20 -20 -20 -20 -20 -20 -20 -20 -20 -20 -20 -20 -20 -20 -20 -20 -20 -13 -20 -20 -20 -5 -20 -20 -20 -20 -20 -20 13 9 14 -0 7 -20 -20 -20 -20 -20 -20 -20 -20 -20
14 -13 -20 -20 -20 -20 -20 -20 -20 -20 -20 -20 -20 -20 -20 -20 -20 -20 -20 -20 -20 -20 -20 -20 -20 -20 -20 -19 -4 -20 -20 -20 -20 -20 -20 10 11 15 13 10 -20 -20 -20 -20 -20 -20 -20 -20 -20
-16 -20 -20 -20 -3 7 -19 -20 -20 -20 -20 -20 -20 -20 -20 -20 -20 -20 -20 -20 -20 -20 -20 -20 -20 -20 -20 -18 -20 -20 -20 -20 -20 -20 -20 -20 -14 15 16 8 -20 -20 -20 -20 -20 -20 -20 -20 -20
25 -19 -20 -20 12 15 -10 -20 -20 -20 -20 -20 -20 -20 -20 -20 -20 -20 -20 -20 -20 -20 -20 -20 -20 -20 -20 -20 -2 18 7 -20 -20 -20 -20 -20 -20 -20 -20 -10 -20 -20 -20 -20 -20 -20 -20 -20 -20
15 17 16 -20 -9 22 -4 -20 -20 -20 -20 -20 -20 -20 -20 -20 -20 -20 -20 -20 -20 -20 -20 -20 -20 -20 -20 -20 4 14 13 -20 -20 -20 -20 -20 -20 -20 -20 -20 -20 -20 -20 -20 -20 -20 -20 -20 -20
18 23 6 -20 -15 12 9 -7 -20 -20 -20 -20 -20 -15 -1 27 -20 -20 -20 -20 -20 -20 -20 -20 -20 -20 -20 -20 -20 -1 -19 -20 -20 -20 -20 -20 -20 -20 -20 -20 -20 -20 -9 -20 -20 -20 -20 -20 -20
21 0 -20 -20 -12 20 27 2 -11 -20 -20 -20 -20 -20 -5 20 28 -14 -15 19 -20 -20 -20 -20 -20 -20 -20 -20 -20 -20 -20 -20 -20 -20 -20 -20 -20 -20 -20 -20 -20 -20 -20 -20 -20 -20 -20 -20 -20
-20 -20 -20 -16 6 19 17 -19 -20 -20 -20 -20 -20 -20 -20 16 27 -13 -20 26 -20 -20 -20 -20 -20 -20 -20 -20 -20 -20 -20 -20 -20 -20 -20 -20 -20 -20 -20 -20 -20 -20 -20 -20 -20 -20 -20 -20 -20
-18 -20 -20 -5 4 12 18 14 -3 -20 -20 -20 -20 -20 -20 -20 -16 5 -6 -20 -20 -20 -20 -20 -20 -20 -20 -20 -20 -20 -20 -20 -20 -20 -20 -20 -20 -20 -20 -20 -20 -20 -20 -20 -20 -20 -20 -20 -20
9 2 -5 -20 7 29 22 19 -7 -10 -20 -20 -20 -20 -20 -20 7 -18 -10 -20 -20 -20 -20 -20 -20 -20 -20 -20 -20 -20 -20 -20 -20 -20 -20 -20 -20 -20 -20 -20 -20 -20 -20 -20 -20 -20 -20 -20 -20
-20 6 19 2 7 22 24 24 -1 5 1 -20 -20 -20 -20 -20 -20 -20 8 -17 -20 -20 -20 -20 -20 -20 -20 -20 -20 -20 -20 -20 -20 -20 -20 -20 -20 -20 -20 -20 -20 -20 -20 -20 -20 -20 -20 -20 -20
7 8 16 3 14 9 -0 3 -17 12 28 -20 -20 -20 -20 -20 -20 -20 -20 -9 -20 -20 -20 -20 -20 -20 -20 -20 -20 -20 -20 -20 -20 -20 -20 -20 -20 -20 -20 -20 -20 -20 -20 -20 -20 -20 -20 -20 -20
-17 -20 -20 -20 -20 -7 -9 -20 7 22 26 -0 -20 -20 -20 -17 -20 -20 -20 -20 -20 -20 -20 -20 -20 -20 -20 -20 -20 -20 -20 -20 -20 -20 -20 -20 -20 -20 -20 -20 -20 -20 -20 -20 -20 -20 -20 -20 -20
-19 -20 -20 -20 -20 -20 -20 -20 10 11 -1 26 4 -15 -20 -20 -20 -12 -20 -20 -20 -20 -20 -20 -20 -20 -20 -20 -20 -20 -20 -20 -20 -20 -20 -20 -20 -20 -20 -20 -20 -20 -20 -20 -20 -20 -20 -20 -20
-20 -20 -20 -20 -20 -20 -20 7 1 13 -20 22 22 2 -20 -20 -20 -20 -20 -20 -20 -20 -20 -20 -20 -20 -20 -20 -20 -20 -20 -20 -20 -20 -20 -20 -20 -20 -20 -20 -20 -20 -20 -20 -20 -20 -20 -20 -20
-20 -20 -20 -20 -20 -20 -20 -20 -20 3 -20 18 16 -9 -18 -16 -20 -20 -20 -20 -20 -20 -20 -20 -20 -20 -20 -20 -20 -20 -20 -20 -20 -20 -20 -20 -20 -20 -20 -20 -20 -20 -20 -20 -20 -20 -20 -20 -20
-20 -20 -20 -20 -20 -20 -20 -11 -5 -20 -20 1 21 -13 -6 -20 -20 -20 -20 -20 -20 -20 -20 -20 -20 -20 -20 -20 -20 -20 -20 -20 -20 -20 -20 -20 -20 -20 -20 -20 -20 -20 -20 -20 -20 -20 -20 -15 -20
-20 -20 -20 -20 -20 -20 -20 -20 -20 -19 -20 0 7 8 -20 -20 -20 -20 -20 -20 -20 -20 -20 -20 -20 -20 -20 -20 -20 -20 -20 -20 -20 -20 -20 -20 -20 -20 -20 -20 -20 -20 -20 -20 -20 -20 -20 -0 -20
-20 -20 -20 -20 -20 -20 -20 -20 -20 -20 -20 -20 -9 11 -1 -20 -20 -20 -20 -20 -20 -20 -20 -20 -20 -20 -20 -20 -20 -20 -20 -20 -20 -20 -20 -20 -20 -20 -20 -20 -20 -20 -20 -20 -20 -20 -20 -20 1
-20 -20 -20 -20 -20 -20 -20 -20 -20 -20 -20 -20 -5 12 5 -16 -20 -20 -20 -20 -20 -20 -20 -20 -20 -20 -20 -20 -20 -20 -20 -20 -20 -20 -20 -20 -20 -20 -20 -20 -20 -20 -4 9 9 -19 -17 -20 -20
-20 -20 -20 -20 -20 -20 -20 -20 -20 -20 -19 -20 -18 10 6 -15 -20 -20 -20 -20 -20 -20 -20 -20 -20 -20 -20 -20 -20 -20 -20 -20 -20 -20 -20 -20 -20 -20 -20 -20 -20 -20 -20 -20 -8 8 -17 -20 -3
-20 -10 -20 -20 -20 -20 -20 -20 -20 -20 -20 -19 -20 -18 -7 -11 -20 -20 -20 -20 -20 -20 -20 -20 -20 -20 -20 -20 -20 -20 -20 -20 -20 -20 -20 -20 -20 -20 -20 -20 -20 -20 -20 -20 -20 -20 -19 -12 -3
-20 -20 -20 -20 -20 -20 -20 -20 -20 -20 -20 -20 -20 -20 -20 -20 -20 -20 -20 -20 -20 -20 -20 -20 -20 -20 -20 -20 -20 -20 -20 -20 -20 -20 -20 -20 -20 -20 -20 -20 -20 -20 -20 -20 -20 -20 2 -15 11
-20 -20 -20 -20 -20 -20 -20 -20 -20 -20 -20 -20 -20 -20 -20 -20 -20 -20 -20 -20 -20 -20 -20 -20 -20 -20 -20 -20 -20 -20 -20 -20 -20 -20 -20 -20 -20 -20 -20 -20 -20 -20 -20 -20 -20 -20 -20 -20 -20
-20 -20 -20 -20 -20 -20 -20 -20 -20 -20 -20 -20 -20 -20 -20 -20 -20 -20 -20 -20 -20 -20 -20 -20 -20 -20 -20 -20 -20 -20 -20 -20 -20 -20 -20 -20 -20 -20 -20 -20 -20 -20 -20 -20 -20 -20 -20 -20 -19
-17 -20 -20 -20 -20 -20 -20 -20 -20 -20 -20 -20 -20 -20 -20 -20 -20 -20 -20 -20 -20 -20 -20 -20 -20 -20 -20 -20 -20 -20 -20 -20 -20 -20 -20 -20 -20 -20 -20 -20 -20 -20 -20 -20 -20 -20 -20 -20 -20

GFSSGP_prec_radar_060.txt.gz
Reflectivity
-20 -20 -20 7 -20 -20 -20 -20 -20 -14 -13 -20 -20 -20 -20 -20 -20 -20 -20 -20 -20 -20 -20 -6 7 -20 -15 10 -6 9 7 -20 -20 -20 -20 -16 -20 -20 -20 -20 -20 -20 7 2 12 12 6 -20 -20
-20 -20 -20 4 -10 -20 -20 -20 -20 -20 2 -13 -20 -20 -20 -20 -20 -20 -20 -20 -20 -20 -20 -9 -20 -12 -3 -20 -20 -20 -20 -20 -20 -20 -20 -20 7 -20 -14 -20 -20 -20 -20 -20 -20 -11 -20 -20 -20
-20 -20 -20 -20 -2 -20 -20 -20 -20 -20 -20 5 -20 -20 -20 -20 -20 -20 -20 -20 -20 -20 -20 -20 1 -16 -20 -20 -20 4 -20 -20 -20 -20 -20 -20 15 -6 0 -20 -20 -20 -20 -20 -20 -20 -20 -20 -20
-20 -20 -20 -20 -20 -20 -20 -20 -20 -20 -20 -20 6 -20 -20 -20 -20 -20 -20 -20 -20 -20 -20 -4 7 -20 -20 -20 -5 -20 -20 -20 -20 -20 -20 -20 15 11 -20 -20 -20 -20 -20 -20 -20 -20 -20 -20 -20
-20 -20 -20 -20 -20 -13 -20 -20 -20 -20 -20 -20 -18 -5 -18 -20 -20 -20 -20 -20 -20 -20 -20 -2 -20 -20 -20 -10 -20 -20 -20 -20 -20 -20 -13 -20 15 10 -8 -20 -20 -20 -20 -20 -20 -20 -20 -20 -20
-11 -20 -20 -20 -20 -20 -1 -11 -20 -20 -20 -20 -20 -20 -20 -20 -19 -13 -0 -20 -20 -20 -20 10 -12 17 -20 9 -20 -20 -20 -20 -20 -20 11 -7 18 15 5 -20 -20 -20 -20 -20 -20 -20 -20 -20 -20
-8 -20 -20 -20 -20 -20 -14 5 -20 -20 -20 -20 -20 -20 -20 5 2 11 -4 -20 -20 -20 -20 0 9 -12 -20 -20 -7 -20 -20 -20 -20 -20 -13 5 13 12 4 -3 -20 -20 -20 -20 -20 -20 -20 -20 -20
-20 -18 17 -20 -20 -5 -20 6 6 -20 -20 -20 -20 -20 -6 -20 2 7 14 9 -19 6 7 -4 12 4 -2 8 7 -20 -20 -20 -20 -20 -20 -20 -20 -15 -5 -5 -20 -20 -20 -20 -20 -20 -20 -20 -20
-20 21 12 13 -20 -12 -8 -15 12 -17 -20 -20 -20 -20 -20 -8 13 10 15 13 7 8 12 8 -8 -19 -6 6 2 5 5 -20 -20 -20 -20 -20 -20 -20 -20 -20 -20 -20 -20 -20 -20 -20 -20 -20 -20
22 -18 -20 -20 2 -20 -5 -5 -1 2 -20 -20 -20 -20 -20 -19 -9 11 7 6 4 6 9 12 11 7 -1 10 4 -9 -20 -20 -20 -20 -20 -20 -20 -20 -20 -20 -20 -20 -20 -20 -20 -20 -20 -20 -20
18 -20 -20 -20 21 -6 9 10 -20 -10 -7 -20 -20 -20 -20 15 17 -11 -8 -20 -20 -18 5 9 12 9 9 8 12 4 -20 1 -20 -20 -20 -20 -20 -20 -20 -20 -20 -20 -20 -20 -20 -20 -20 -20 -20
20 16 -20 -20 -5 4 -12 -7 -20 -20 -11 -12 -20 -20 -20 -20 -20 -12 4 2 4 2 4 4 -1 0 4 -20 10 4 -20 -20 -20 -20 -20 -20 -20 -20 -20 -20 -20 -20 -20 -20 -20 -20 -20 -20 -20
24 15 -12 -20 11 -20 24 10 3 -19 -20 -17 -20 -20 -20 -20 -20 -20 -12 -20 -8 -20 -20 -20 -20 -20 1 5 -11 -20 -20 -20 -20 -20 -20 -20 -20 -20 -20 -20 -20 -20 -20 -20 -20 -20 -20 -20 -20
-17 22 -20 -20 8 -20 8 -19 15 -15 -12 -20 -20 -20 -20 -20 -20 -20 -20 -20 -20 -20 5 1 -20 -13 9 5 3 -11 -20 -20 -20 -20 -20 -20 -20 -20 -20 -20 -20 -20 -20 -20 -20 -20 -20 -20 -20
-20 24 24 -6 -20 4 -15 16 7 -16 -16 -20 -20 -20 -20 -20 -20 -20 -20 -20 -20 -20 -20 -20 -20 -20 4 -20 -20 -20 -20 -20 -20 -20 -20 -20 -20 -20 -20 -20 -20 -20 -20 -20 -20 -20 -20 -20 -20
-20 22 22 14 28 7 33 1 -20 15 4 -20 -20 -20 -20 -20 -19 -20 -20 -20 -20 -20 -20 -20 12 -13 -20 -20 -20 -20 -20 -20 -20 -20 -20 -20 -20 -20 -20 -20 -20 -20 -20 -20 -20 -20 -20 -20 -20
10 -20 -20 22 -4 15 14 -12 -20 -10 -17 -20 -20 -20 -20 -20 -18 -20 -20 -20 -20 -20 -20 -20 -18 7 -14 -20 -20 -20 -20 -20 -20 -20 -20 -20 -20 -20 -20 -20 -20 -20 -20 -20 -20 -20 -20 -20 -20
-14 -18 -8 -2 -15 4 -0 6 -20 -5 -20 -20 -20 -20 -20 -20 -20 -7 -20 -20 -20 -20 -20 -20 -20 -14 6 -18 -20 -20 -20 -20 -20 -20 -20 -20 -20 -20 -20 -20 -20 -20 -20 -20 -20 -20 -20 -20 -20
-20 -16 7 -11 14 -2 -9 1 -3 -20 -20 -20 -20 -20 -20 -20 -20 -9 -18 -20 -20 -20 -20 -20 -20 -20 -14 8 -10 -20 -20 -20 -20 -20 -20 -20 -20 -20 -20 -20 -20 -20 -20 -20 -20 -20 -20 -20 -20
-20 -20 -20 -20 -20 14 -2 -16 -16 -20 -20 -20 -20 -6 -20 -20 -20 -20 -20 -20 -20 -20 -20 -20 -20 -20 -20 -13 -9 -20 -20 -20 -20 -20 -20 -20 -20 -20 -20 -20 -20 -20 -20 -20 -20 -20 -20 -20 -20
-6 -20 -20 -20 5 -2 -6 -13 -20 -20 -20 -20 -20 -20 -20 -20 -13 -17 -20 -3 3 -9 -20 -20 -20 -20 -20 -20 -20 -20 -20 -20 -20 -20 -20 -20 -20 -20 -20 -8 -5 -6 -11 -20 -10 -5 -3 1 -7
1 -20 -19 -20 -20 -20 -20 -20 -20 -20 -20 -20 -7 -20 -20 -20 -18 -19 -20 -14 -9 -1 4 -15 -20 -20 -20 -20 -20 -20 -20 -20 -20 -20 -20 -20 -20 -20 -20 -20 -16 -7 -2 6 -1 -16 4 7 1
-20 -20 -20 -20 -20 -20 -20 -20 -20 -20 -20 -20 -20 -20 -19 -20 -20 -16 -19 -20 -4 -15 -20 -20 -20 -6 -20 -20 -20 -20 -20 -20 -20 -20 -20 -20 -20 -20 -20 -20 -20 -20 -20 -20 -20 -20 -18 3 0
-20 -20 -20 -20 -20 -20 -20 -20 -20 -20 -20 -20 -20 3 -20 -4 -20 6 5 1 -20 -20 -20 -20 -20 -20 -20 -20 -20 -20 -20 -20 -20 -20 -20 -20 -20 -20 -20 -20 -20 -20 -20 -20 -20 -20 -20 -20 -14
-20 -20 4 1 -10 -20 -20 -20 -20 -20 -20 -20 -20 -20 -10 -20 -20 -19 -19 -20 -20 -20 -19 -12 -20 -20 -20 -20 -20 -20 -20 -20 -20 -20 -20 -20 -20 -20 -20 -20 -20 -20 -20 -20 -20 -19 -18 -8 3
6 -20 -20 -20 -20 -20 -20 -20 -20 -20 -20 -20 -20 -20 -20 -20 -20 -20 -20 -20 -8 -20 9 -4 -20 -20 -20 -20 -20 -20 -20 -20 -20 -20 -20 -20 -20 -20 -20 -20 -20 -20 -20 -20 -20 -20 5 2 12
-20 -3 -20 -20 -20 -20 -20 -20 -20 -20 -20 -20 -20 -20 -20 -20 -20 -20 -20 -20 -20 -9 -20 -20 -20 -20 -20 -20 -20 -20 -20 -20 -20 -20 -20 -20 -20 -20 -20 -20 -20 -20 -20 -20 -20 -8 -0 -20 -20
-9 -20 -20 -20 -20 -20 -20 -20 -20 -20 -20 -20 -20 -20 -20 -20 -20 -20 -20 -13 1 -19 -20 -20 -20 -20 -20 -20 -20 -20 -20 -20 -20 -20 -20 -20 -20 -20 -20 -20 -20 -20 -20 -20 -20 -20 -20 -20 -20
-20 -20 -20 -15 -20 -20 -20 -20 -20 -20 -20 -20 -20 -20 -20 -20 -20 -20 -20 -20 -16 -16 -1 -17 -20 -20 -20 -20 -20 -20 -20 -20 -20 -20 -20 -20 -20 -20 -20 -20 -20 -20 -20 -20 -20 -20 -20 -18 -20
-20 -20 -6 -6 -18 -20 -20 -20 -20 -20 -20 -20 -20 -20 -20 -20 -20 -20 -20 -20 -20 -20 -20 -14 -3 -20 -20 -20 -20 -20 -20 -20 -20 -20 -20 -20 -20 -20 -20 -20 -20 -20 -20 -20 -20 -20 -20 -20 -20

GFSSGP_prec_radar_063.txt.gz
Reflectivity
-20 -20 -20 -20 0 -20 -20 -3 -20 -20 11 -20 -19 -20 16 13 -1 -16 -20 -20 -20 -20 -20 -6 -20 -16 12 11 -11 3 -20 -20 -19 -20 -20 -20 -20 -20 -20 -20 -20 14 11 10 13 15 6 -20 -20
-20 -20 -20 -20 -20 -20 -20 -20 -20 -6 1 0 -20 11 -2 2 -20 -20 -20 -20 -20 -20 -20 -8 8 -20 -17 -18 -20 -20 -20 -20 -20 -20 -20 -13 -20 -3 -20 -20 -20 -20 -20 5 12 7 -20 -20 -20
-20 -20 -20 -20 -20 -20 -20 -18 -20 -20 -20 16 -1 -20 19 -14 -20 -20 -20 -20 -20 -20 -20 -3 -2 3 -20 -20 -20 -20 -20 -20 -20 -20 -20 15 -20 2 -20 -20 -20 -20 -20 -20 -20 -20 -20 -20 -20
-20 -20 -20 -20 -20 -20 -13 -20 3 -20 -20 -20 24 -17 9 17 -8 -20 -20 -20 -20 -20 -20 -20 -19 -19 -20 -20 -20 -20 -20 -20 -20 -20 -20 -12 4 -20 -20 -20 -20 -20 -20 -20 -20 -20 -20 -20 -20
4 -20 -20 -20 -20 -17 -3 -15 1 -19 -20 -20 7 16 -1 7 -12 -20 -20 -20 -20 -20 -20 -20 -20 -20 -20 -16 -20 -20 -20 -20 -20 -20 -20 -20 8 -16 -20 -20 -20 -20 -20 -18 -20 -20 -20 -20 -20
-8 -6 -20 -20 -20 -10 -10 -20 8 3 -20 -20 -20 13 13 6 9 -20 -20 -20 -20 -20 -20 -12 -20 -1 -20 -20 -20 -20 -20 -20 -20 -20 -20 16 16 12 -20 -20 -20 -20 -20 -20 -20 -20 -20 -20 -20
-20 -14 -4 -20 -20 1 -16 -20 12 -14 -20 -20 -20 -19 14 23 9 -20 -20 -20 -20 -20 -20 -15 -14 -10 -20 -12 -20 -20 -20 -20 -20 -8 -13 17 13 14 -20 -20 -20 -20 -20 -20 -20 -20 -20 -20 -20
-20 -19 -19 -20 -14 -12 -20 -20 5 -1 -20 -20 -20 -20 5 6 9 10 11 -20 -20 -20 -20 -8 -13 -12 -3 -3 1 -20 -20 -20 -20 -20 -20 -20 -20 -2 -20 -20 -20 -20 -20 -20 -20 -20 -20 -20 -20
-20 17 -18 -11 6 19 -20 -7 -20 9 -20 -20 -20 -20 -20 -15 7 0 -4 -20 -20 -20 -17 19 10 -18 -5 -5 -11 -20 -20 -20 -20 -20 -20 -20 -20 -20 -20 -20 -20 -20 -20 -20 -20 -20 -20 -20 -20
27 23 29 -20 -20 11 -18 -13 -20 -19 1 -20 -20 -20 -20 -11 -9 16 12 7 -5 12 11 1 11 -1 -1 -6 -20 -20 -20 -20 -20 -20 -20 -20 -20 -20 -20 -20 -20 -20 -20 -20 -20 -20 -20 -20 -20
26 -6 -19 -20 14 13 -20 -15 -20 -20 -1 -2 -20 -20 -20 1 -20 -16 7 8 -18 -14 5 13 2 7 14 10 -20 -10 -20 -4 -20 -20 -20 -20 -20 -20 -20 -20 -20 -20 -20 -20 -20 -20 -20 -20 -20
-10 -20 -20 13 24 -20 -20 -20 -20 -12 -18 -11 -19 -20 -20 -20 -7 -20 -7 -5 -15 -20 -20 -20 7 -1 3 14 12 -16 -20 -17 -20 -20 -20 -20 -20 -20 -20 -20 -20 -20 -20 -20 -20 -20 -20 -20 -20
21 -20 -18 20 3 -18 -13 8 -20 -18 -20 -18 -1 -20 -20 -20 -20 -20 -20 -11 3 -9 12 12 -14 -20 -15 -19 18 -13 -20 -20 -20 -20 -20 -20 -20 -20 -20 -20 -20 -20 -20 -20 -20 -20 -20 -20 -20
-18 -20 9 23 -14 -9 2 -1 -11 -20 -20 -19 -20 -1 -20 -20 -20 -20 -20 -20 -19 -6 -19 -16 -20 -20 -20 -0 4 -1 -20 -20 -20 -20 -20 -20 -20 -20 -20 -20 -20 -20 -20 -20 -20 -20 -20 -20 -20
-15 27 28 30 -19 13 -6 -10 25 -20 -16 -20 -20 -20 -9 -20 -20 -20 -20 -20 -20 -20 -13 10 -2 -20 -1 -20 -9 -10 -20 -20 -20 -20 -20 -20 -20 -20 -20 -20 -20 -20 -20 -20 -20 -20 -20 -20 -20
1 26 35 18 31 19 -20 -20 -20 12 22 -1 -20 -20 -20 -20 -20 -20 -20 -20 -20 -20 -20 -20 -1 -20 -20 -20 -19 -20 -20 -20 -20 -20 -20 -20 -20 -20 -20 -20 -20 -20 -20 -20 -20 -20 -20 -20 -20
22 9 35 34 -20 -13 -20 -20 -10 26 16 -20 5 -20 -20 -20 -20 -20 -20 -20 -20 -20 -20 -20 -20 -20 -20 -20 -20 -20 -20 -20 -20 -20 -20 -20 -20 -20 -20 -20 -20 -20 -20 -20 -20 -20 -20 -20 -20
-12 -20 -6 23 5 -10 -2 -20 -19 -16 -10 -20 -4 -3 -20 -20 -20 -20 -20 -20 -20 -20 -20 -20 -20 -20 -20 -20 -1 -2 -9 -20 -20 -20 -20 -20 -20 -20 -20 -20 -20 -20 -20 -20 -18 -20 -20 -20 -20
-20 -20 -20 -20 26 -20 -20 -1 21 -6 -20 -20 -20 -20 -20 -20 -20 -20 -19 -20 -20 -20 -20 -20 -20 -20 -20 -20 -20 -20 1 -15 -18 -20 -20 -20 -20 -20 -20 -20 -20 -20 -17 -20 -9 -0 4 -20 -5
-20 -7 -20 3 25 -20 10 15 12 4 -20 -20 -20 -20 -20 -20 -20 -20 -20 -13 -20 -20 -20 -20 -20 -20 -20 -20 -20 -20 -14 3 -3 -20 -20 -20 -20 -20 -20 -20 -20 -20 -8 -20 -20 -19 -20 -20 -3
-19 -16 -20 -20 -20 -17 5 -16 -20 -20 -20 -20 -20 -20 -20 -12 -20 -20 -20 -20 -20 -20 -20 -20 -20 -20 -20 -20 -1 -8 -20 -20 -15 -19 -20 -20 -20 -20 -20 -20 2 1 5 -1 -2 -1 9 6 -1
-20 -14 -20 -20 -19 -16 -20 -20 -20 -20 -20 -20 -20 -20 -20 -20 -20 -20 -20 -20 -20 -20 -20 -20 -20 -20 -20 -20 -20 -20 -20 -20 -20 -20 -20 -20 -20 -20 -20 -20 -17 -20 -19 -16 -20 -20 2 13 6
-20 -1 -20 -20 8 -20 -20 -20 -20 -20 -20 -20 -6 -20 -20 5 -6 -20 -20 -20 -20 -20 -20 -20 -20 -20 -20 -20 -20 -20 -20 -20 -20 -20 -20 -20 -20 -20 -20 -20 -20 -20 -20 -20 -20 -20 -20 -20 -2
-20 -9 -12 -1 -20 -20 -20 -20 -20 -20 -20 -20 -20 -20 -20 -20 -12 -20 -20 -20 -20 -20 -20 -20 -20 -7 -2 12 -11 -20 -20 -20 -20 -20 -20 -20 -20 -20 -20 -20 -20 -20 -20 -20 -20 -20 -20 -20 -20
-20 -20 -20 -14 -8 -15 -20 -20 -20 -20 -20 -20 -20 -20 -20 -20 -20 -20 -19 -20 -20 -20 -20 -20 -7 5 -0 -14 -20 1 10 -20 -20 -20 -20 -20 -20 -20 -20 -20 -20 -20 -20 -20 -20 -20 -20 -20 -0
-20 -20 -19 -20 -20 -20 -20 -20 -20 -20 -20 -20 -20 -20 -20 -20 -20 -20 -20 -20 -20 -20 -17 -11 -20 -18 -5 -19 -17 -17 -20 -20 -20 -20 -20 -20 -20 -20 -20 -20 -20 -20 -20 -20 -20 -20 -20 -4 13
20 -4 -20 -20 -20 -20 -20 -20 -20 -20 -20 -20 -20 -20 -20 -20 -20 -20 -20 -20 -20 -20 -20 -20 -20 -9 -11 -1 -11 -12 -20 -20 -20 -20 -20 -20 -20 -20 -20 -20 -20 -20 -20 -20 -20 -20 -15 1 -20
0 -16 -14 -20 -20 -20 -20 -20 -20 -20 -20 -20 -20 -20 -20 -20 -20 -20 -20 -20 -17 -17 -10 -20 -20 -20 -20 -11 -3 -17 -20 -20 -20 -20 -20 -20 -20 -20 -20 -20 -20 -20 -20 -20 -20 -20 -20 -20 -16
-20 -15 -7 2 -20 -3 -20 -20 -20 -20 -20 -20 -20 -20 -20 -20 -20 -20 -20 -20 -20 -20 -20 -20 -20 -20 -20 -20 -20 -20 -20 -20 -20 -20 -20 -20 -20 -20 -20 -20 -20 -20 -20 -20 -20 -20 -20 -20 -20
6 2 -20 1 -17 -20 -19 -20 -20 -20 -20 -20 -20 -20 -20 -20 -20 -20 -20 -20 -20 -20 -20 -20 -4 -20 -20 -20 -20 -20 -20 -20 -20 -20 -20 -20 -20 -20 -20 -20 -20 -20 -20 -20 -20 -20 -20 -20 -20

GFSSGP_prec_radar_066.txt.gz
Reflectivity
-20 -20 -20 -7 -20 -20 -20 -15 14 6 13 4 22 -10 7 18 27 -20 -20 -20 -20 -20 -20 -20 -20 -20 -20 -20 -20 -18 -20 -20 -20 15 -20 -20 -20 -20 -20 -20 -1 6 8 -3 10 4 -11 -20 -20
-20 -20 -20 -18 -20 -20 -20 -3 18 -17 -20 17 18 20 3 -12 -17 -20 -20 -20 -20 -20 -20 -20 9 3 -20 -20 -20 -20 -20 -20 -20 2 -20 -16 -20 -20 -20 -20 -11 12 15 14 13 -5 -20 -20 -20
-20 -20 -20 -20 -20 -20 -20 1 0 -1 -4 -12 25 27 -20 -18 -20 -20 -20 -20 -20 -20 -20 -20 11 -2 -13 -20 -20 -20 -20 -20 -20 -20 12 -19 -20 -20 -20 -20 -20 -20 6 7 -3 -20 -20 -20 -20
-20 -20 -20 -20 -20 -20 -20 -11 7 3 -4 -16 14 11 25 33 13 14 -20 -20 -20 -20 -20 -20 17 -2 -20 -20 -20 -20 -20 -20 -20 -20 11 -2 -20 -20 -20 -20 -20 -20 -20 -20 -20 -20 -20 -20 -20
-15 -11 -20 -20 -20 -3 5 6 19 -19 11 13 -17 11 24 30 15 32 -18 -20 -20 -20 -20 -20 -20 -16 12 5 -20 -20 -20 -20 -20 -20 -20 8 -20 -20 -20 -20 -20 -20 -20 -20 -20 -20 -20 -20 -20
31 6 -20 -20 -20 -15 8 6 -11 -20 11 6 -19 -12 13 -1 29 -2 -10 -20 -20 -20 -20 -20 -20 9 -20 -3 -20 -20 -20 -20 -20 -20 -20 5 -20 -20 -20 -20 -20 -20 -20 -20 -20 -20 -20 -20 -20
24 8 -20 -20 -20 -20 8 14 -20 -20 1 8 -20 -9 -1 26 21 26 6 -12 -20 -20 -20 -20 -20 -20 -20 -20 -20 -20 -20 -20 -20 -20 14 12 -18 -20 -20 -20 -20 -20 -20 -20 -20 -20 -20 -20 -20
-20 21 -20 -20 -20 -20 8 -17 -20 -19 5 -8 7 31 -18 -8 29 -6 -3 11 3 -20 -18 -20 -20 -20 -20 -18 -20 -20 -20 -20 -20 -20 -20 -20 -20 -20 -20 -20 -20 -20 -20 -20 -20 -20 -20 -20 -20
-18 27 2 -20 -20 9 -7 -20 -20 2 -4 -20 -5 -20 -5 -1 25 27 21 14 29 6 -20 10 8 0 -13 -20 -12 -20 -20 -20 -20 -20 -20 -20 -20 -20 -20 -20 -20 -20 -20 -20 -20 -20 -20 -20 -20
26 24 -4 -20 -20 11 -13 -20 -20 -16 -8 -20 -20 -4 8 4 16 24 27 -1 -20 11 -13 -18 9 -15 9 -9 -20 -20 -20 -20 -20 -20 -20 -20 -20 -20 -20 -20 -20 -20 -20 -20 -20 -20 -20 -20 -20
11 -16 -19 -20 21 17 13 -20 -20 -20 -20 -20 -20 -14 2 -6 6 0 -13 9 31 14 7 19 7 -7 11 -17 -20 -20 -20 -20 -20 -20 -20 -20 -20 -20 -20 -20 -20 -20 -20 -20 -20 -20 -20 -20 -20
26 -11 -20 22 19 -20 -20 -20 -20 -15 -20 -20 -20 -20 4 -4 17 -20 -2 -20 -19 4 8 16 9 -20 14 11 -20 -20 -20 -20 -18 -20 -20 -20 -20 -20 -20 -20 -20 -20 -20 -20 -20 -20 -20 -20 -20
23 -2 9 11 19 -14 1 -14 -20 -20 -20 -20 -20 -20 -20 -12 -10 -20 -20 -20 -20 12 19 -7 9 8 9 8 6 -10 -20 -20 -20 -20 -20 -20 -20 -20 -20 -20 -20 -20 -20 -20 -20 -20 -20 -20 -20
-20 25 17 13 17 48 9 -20 -20 -20 -20 -20 -10 -8 -20 -20 14 -16 -6 -20 -20 2 15 -20 9 11 8 -10 9 7 -20 -20 -20 -20 -20 -20 -20 -20 -20 -20 -20 -20 -20 -20 -20 -20 -20 -20 -20
19 29 10 22 21 18 -18 -20 -20 -20 -20 -20 -13 -8 -20 -20 -20 -20 -17 -20 -20 -20 -20 20 -20 0 -6 -0 -20 -20 -20 -20 -20 -20 -20 -20 -20 -20 -20 -20 -20 -20 -20 -20 -20 -20 -20 -20 -20
2 29 11 -9 -1 39 2 10 -20 -20 -20 -20 -20 -20 -20 -20 -20 -20 -20 -20 -20 -20 -19 -11 -19 12 18 12 -12 -20 -19 -20 -20 -20 -20 -20 -20 -20 -20 -20 -20 -20 -20 -20 -20 -20 -20 -20 -20
23 26 12 12 -20 28 28 15 -20 -20 -20 -20 -20 -20 -20 -20 -20 -20 -20 -20 -20 -20 -20 -2 19 -13 -9 -19 11 10 -19 -20 -20 -20 -20 -20 -20 -20 -20 -20 -20 -20 -20 -20 -20 -20 -20 -20 -20
0 13 10 -20 -8 35 37 27 14 -20 -20 -20 2 6 -20 -20 -20 -20 -20 -20 -20 -20 -20 -20 -20 -20 -20 -20 -14 -17 -20 -20 -20 -20 -20 -20 -20 -20 -20 -20 -20 -20 -20 -6 3 -16 -6 13 2
-20 -20 -2 26 26 39 36 19 2 -20 -20 -20 -20 -20 -20 -11 -20 -20 -20 -4 -20 -20 -20 -20 -20 -20 -20 -20 -20 -20 -20 -20 -20 -20 -20 -14 -19 -20 -20 -20 -20 -20 -7 1 5 6 6 -16 5
-20 -20 15 22 21 25 15 -20 -6 -20 -20 -20 -16 -20 -20 -20 22 25 -20 -20 -20 -3 -20 -20 -20 -20 -20 -20 -20 -20 -20 -20 -20 -20 -20 -20 -20 -20 -20 -20 -20 -20 -4 2 -11 11 4 -0 3
-20 -20 8 25 21 30 22 -20 -20 -20 -20 -20 -20 -20 -20 -20 -20 -1 -20 -20 -20 -20 -20 6 -20 -20 -20 -20 -20 -20 -20 -20 -20 -20 -20 -18 -20 -20 -20 -20 -20 -10 -20 12 11 -5 -1 11 -8
-8 -20 -5 -20 15 13 1 -20 -20 -19 -20 -20 -20 -18 -20 -20 -20 11 -20 -20 -20 -20 -20 -20 -20 -19 -20 -20 -20 -20 16 -20 -20 -11 -20 -15 -20 -20 -20 -20 -20 -20 -20 -20 -20 -19 -20 7 -8
-12 17 -2 -20 -13 6 -13 -20 -20 -20 -20 -20 -18 -20 -20 -20 -20 -20 -20 -18 -6 -4 -19 -20 -20 -20 -20 -13 -7 -14 -20 -20 -20 -20 -20 -20 -20 -20 -20 -20 -20 -20 -20 -20 -20 -20 -20 -20 -20
-20 -20 -20 -20 -7 -20 -20 -20 -20 -20 -20 -20 -20 -20 -20 -20 -20 -20 -20 -20 -12 -20 -20 -20 -20 -20 -20 -20 -20 -4 -20 -20 -20 -20 -20 -20 -20 -20 -20 -20 -20 -20 -20 -20 -20 -20 -20 -20 -20
-20 -20 -20 -20 -20 -20 -20 -20 -20 -20 -20 -20 -20 -20 -20 -20 -20 -20 -20 -20 -20 -20 -20 -20 -20 -20 -20 -20 -15 -20 -20 -17 -14 -20 -5 -20 -20 -20 -20 -20 -20 -20 -20 -20 -20 -20 -20 -20 -20
6 -20 -20 -20 -20 -20 -20 -20 -20 -20 -20 -20 -20 -20 -20 -20 -20 -20 -20 -20 -20 -20 -20 -20 -20 -13 -4 -20 -20 -14 -9 -16 -15 -20 -19 -18 -4 -20 -20 -20 -20 -20 -20 -20 -20 -20 -20 -20 -20
-20 -16 -20 -20 -20 -20 -20 -20 -20 -20 -20 -20 -20 -20 -20 -20 -20 -20 -20 -20 -20 -20 -20 -20 -20 -10 18 9 -0 -4 3 -14 -1 -6 -9 5 -20 -20 -20 -20 -20 -20 -20 -20 -20 -20 -20 -20 -20
-20 -20 -20 -20 -16 -17 -20 -20 -20 -20 -20 -20 -20 -20 -20 -20 -20 -20 -20 -20 -20 -20 -20 -20 -19 -17 5 12 6 -20 -20 -6 11 2 -20 -20 -20 -20 -20 -20 -20 -20 -20 -20 -20 -20 -20 -20 -20
4 -1 -20 -20 -20 8 -14 -20 -20 -20 -20 -20 -20 -20 -20 -20 -20 -20 -20 -20 -20 -20 -20 -20 -20 -20 -7 -20 -16 -20 -20 -14 -15 -15 -20 -13 -20 -20 -20 -20 -20 -20 -20 -20 -20 -20 -20 -20 -20
-20 -20 -20 -20 -20 -20 -20 -20 -20 -20 -20 -20 -20 -20 -20 -20 -20 -20 -20 -20 -20 -20 -20 -20 -20 -20 -20 -20 -20 -20 -18 -20 -20 -20 -20 -20 -20 -20 -20 -20 -20 -20 -20 -20 -20 -20 -20 -20 -20

GFSSGP_prec_radar_069.txt.gz
Reflectivity
-20 -20 -20 -20 -8 -20 -20 -20 20 5 23 7 -20 -20 6 3 4 -20 -20 -20 -20 -20 -20 -20 -20 -20 -20 -20 -20 -20 -20 -20 15 -20 -20 -20 -20 -7 -20 -20 -20 6 -20 -20 -20 -20 -20 -20 -20
-19 -20 -20 -20 -20 -20 -20 -20 15 2 14 21 7 -20 -1 27 15 -20 -20 -20 -20 -20 -20 -20 -7 -20 -20 -20 -20 -20 -20 -20 -12 -20 -15 -20 -20 -20 13 9 12 -5 -20 -20 -5 -20 -20 -20 -20
-15 -20 -20 -20 -20 -20 -20 -20 -20 23 10 19 -5 3 23 26 -20 -20 -20 -20 -20 -20 -20 -20 -20 -20 -14 10 -20 -20 -20 -20 10 -16 -20 -20 -20 -20 -20 -20 6 6 13 -15 -20 -20 -20 -20 -20
-8 22 23 -20 -20 -20 -20 6 4 10 14 10 19 26 7 28 10 -20 -20 -20 -20 -20 -20 -20 -20 -20 -20 13 -20 -20 -20 -20 -7 5 -19 -20 -20 -20 -20 -20 -20 -7 -4 -20 -20 -20 -20 -20 -20
-18 27 -1 -20 -20 -8 -4 10 27 -15 2 -4 0 29 34 38 32 11 -4 -20 -20 -20 -20 -20 -12 -20 -20 5 -20 -20 -20 -20 -20 14 -19 -20 -20 -20 -20 -20 -20 -20 -20 -20 -20 -20 -20 -20 -20
-0 25 2 -20 -20 -12 5 8 6 -20 -1 3 -4 -4 28 25 33 6 -0 -6 -20 -20 -20 -20 -1 -20 -16 -20 -20 -20 -20 -20 -20 15 -18 -20 -20 -20 -20 -20 -20 -20 -20 -20 -20 -20 -20 -20 -20
-0 -2 -20 -20 -20 -20 6 8 -18 -20 -20 -5 9 -14 12 -8 28 10 -7 31 9 -20 -20 -20 14 -20 -20 -20 -20 -20 -20 -14 -20 -15 4 -20 -20 -20 -20 -20 -20 -20 -20 -20 -20 -20 -20 -20 -20
-14 -7 -16 -20 -20 -20 3 -3 -20 -20 -20 -4 9 8 -18 -20 15 36 24 32 18 -12 -12 -20 -20 -20 -20 -20 -20 -20 -20 -20 -20 -20 2 -20 -20 -20 -20 -20 -20 -20 -20 -20 -20 -20 -20 -20 -20
27 16 -3 -20 -20 -20 -15 -16 -20 -20 -20 -16 5 11 18 -16 -16 19 32 -14 28 20 -12 -20 -20 -20 -20 -20 -20 -20 -20 -20 -20 -20 -20 -20 -20 -20 -20 -20 -20 -20 -20 -20 -20 -20 -20 -20 -20
25 16 -17 -20 7 -20 -20 -20 -20 -20 -20 -2 -1 12 21 1 -20 -13 35 32 25 -11 -19 -20 -20 -20 -20 -20 -20 -20 -20 -20 -20 -20 -20 -20 -20 -20 -20 -20 -20 -20 -20 -20 -20 -20 -20 -20 -20
20 -20 -15 -20 -20 -13 -20 -20 -20 -20 -20 -8 -1 1 5 13 -20 -20 -9 28 33 12 17 -1 9 8 -20 -20 -20 -20 -20 -20 -20 -20 -20 -20 -20 -20 -20 -20 -20 -20 -20 -20 -20 -20 -20 -20 -20
17 -20 -5 -5 -20 22 -20 -17 -20 -20 -20 -20 -20 -20 -2 -2 -8 -20 -0 15 32 28 -8 3 -8 9 -9 -20 -20 -20 -20 -20 -20 -20 -20 -20 -20 -20 -20 -20 -20 -20 -20 -20 -20 -20 -20 -20 -20
-14 17 1 17 10 11 -20 -12 -20 -2 -20 -20 -20 -20 -20 19 3 -3 -20 10 16 27 28 -7 -20 -15 12 1 -20 -20 -20 -20 -20 -20 -20 -20 -20 -20 -20 -20 -20 -20 -20 -20 -20 -20 -20 -20 -20
-20 -20 3 19 32 27 -15 -11 -20 -20 -20 -20 -20 -20 -20 -17 -2 7 -1 -19 8 12 13 26 6 11 12 11 -2 -8 -20 -20 -20 -20 -20 -20 -20 -20 -20 -20 -20 -20 -20 -20 -20 -20 -20 -20 -20
-18 9 14 25 -15 24 23 18 12 13 -20 -14 -20 -9 -17 -20 -11 -13 3 -1 14 2 34 2 3 -2 -17 -20 9 9 -20 -20 -20 -20 -20 -20 -20 -20 -20 -20 -20 -20 -20 -20 -20 -20 -20 -20 -20
-20 -1 19 30 30 15 27 -20 15 9 -18 -20 -20 -20 -18 -20 -19 -20 -20 -2 12 25 -10 2 3 -17 -20 10 -11 -20 1 -20 -20 -20 -20 -20 -20 -20 -20 -20 -20 -20 -20 -20 -20 -20 -20 -20 -20
18 -16 30 30 32 30 23 31 13 10 -20 -20 -20 -20 -20 -20 -20 -20 -12 -20 -13 -3 14 -7 -9 -18 3 11 -10 -20 -13 0 4 -16 -20 -20 -20 -20 -20 -20 -20 -20 -20 -20 -20 -20 -20 -19 -19
-12 9 11 27 27 5 2 40 21 21 -20 -20 -20 -20 -20 -20 -20 -20 -8 -17 -9 -2 -9 -6 -13 7 -20 -20 -13 -13 -20 -7 -20 -20 -20 -20 -20 -20 -20 -20 -20 -20 -20 -19 3 -15 -9 -7 9
-19 -20 6 -20 9 1 35 26 -7 -20 -20 -20 -20 -20 -20 -20 -20 -9 -6 -20 -20 -14 -20 -20 -9 14 -19 -20 -20 -7 -20 18 -20 -20 -20 -20 -20 -20 -20 -20 -20 -20 -9 -18 -7 3 17 -20 -20
5 9 12 25 -0 13 19 18 -12 8 7 -14 -20 -20 -20 -20 -20 -20 -20 -13 -20 -20 9 -14 -11 -4 -4 3 -15 -20 -20 -20 -20 -20 -20 -20 -2 -20 -20 -20 -20 -20 -20 1 -15 -13 6 5 -16
10 -20 7 24 -10 -15 -1 17 35 -14 -11 -19 -20 -20 -20 -20 -20 -20 -20 -20 -20 -20 -2 -20 -20 -13 -12 -16 8 -19 -20 -20 -20 -20 -20 -20 -16 -20 -20 -20 -20 -12 -19 -11 -19 4 11 10 -16
-20 -20 -0 13 -1 35 21 22 -3 3 -13 -20 -20 -20 -20 -20 -20 -20 -20 -20 -20 -20 -20 -20 -20 -18 -18 -18 -15 -6 -8 -20 -11 -4 -5 -19 15 -7 -20 -20 -20 -20 -18 -20 -20 -20 -20 -20 -20
-20 -20 -20 -4 29 3 18 -2 -20 -6 -14 -20 -20 -20 -20 -20 -20 -20 -20 -4 -19 8 -5 -19 -20 7 4 -20 -6 3 13 -1 13 16 -10 -20 -20 -20 -17 -20 -20 -20 -20 -20 -20 -20 -20 -20 -20
-20 -10 -9 -16 5 13 10 3 -20 -20 -20 -20 -20 -20 -20 -20 -20 -20 -20 -20 -20 -20 -20 -17 -20 -20 33 30 3 5 5 19 5 14 -9 -15 -20 -15 -11 -20 -20 -20 -20 -20 -20 -20 -20 -20 -20
12 -10 16 20 -3 -7 -20 3 -20 -20 -20 -20 -20 -20 -20 -20 -20 -20 -20 -20 -20 -20 -20 -20 -20 -20 -20 4 22 -6 -20 -14 -13 4 27 4 -18 -20 -20 -20 -20 -20 -20 -20 -20 -20 -20 -20 -20
-19 -2 -1 -20 -20 -20 -20 -10 -1 -20 -20 -20 -20 -12 -20 -20 -20 -20 -20 -20 -20 -20 -20 -20 -20 -20 -20 -20 -15 -16 -20 -20 11 -17 8 -20 -20 -20 10 3 -17 -20 -20 -20 -20 -20 -20 -20 -20
-17 -20 -20 -20 -20 -20 -20 -16 -11 -20 -20 -20 -20 -20 -20 -20 -20 -20 -20 -20 -20 -20 -20 -20 -20 -20 -20 -12 -8 -4 -16 -20 -20 -19 -3 -15 -5 -12 -15 9 -0 -20 -17 -20 -20 -20 -20 -20 -20
-20 -20 -20 -20 -20 -20 -20 -20 -20 -20 -20 -20 -20 -20 -20 -20 -20 -20 -20 -20 -20 -20 -20 -20 -20 -20 -20 -20 -20 -20 1 22 25 25 4 -20 -12 -12 -20 -20 -20 -15 -18 -20 -20 -20 -20 -20 -20
-20 -20 -20 -20 -20 -20 -20 -20 -20 -20 -20 -20 -20 -20 -20 -20 -20 -20 -20 -20 -20 -20 -20 -20 -20 -20 -20 -20 -20 -20 -15 -0 -20 -20 -20 -20 -20 -20 -20 -17 -17 -20 -20 -20 -20 -20 -20 -20 -20
-20 -20 -20 -20 -20 -20 -20 -20 -20 -20 -20 -20 -20 -20 -20 -20 -20 -20 -20 -20 -20 -20 -20 -20 -20 -20 -20 -20 -20 -20 -20 -20 -20 -12 -20 -20 -20 -20 -20 -9 -20 -20 -20 -20 -20 -20 -20 -20 -20

GFSSGP_prec_radar_072.txt.gz
Reflectivity
-20 -20 -20 -20 -20 -20 1 -20 2 21 32 10 -10 -20 -20 15 -20 -20 -20 -20 -20 1 -7 -20 -20 -9 10 -20 -20 -20 -20 15 -20 -20 -20 -20 -20 -20 24 14 3 -5 -20 -20 -20 -20 -20 -20 -20
-20 -20 -5 -4 -20 -20 -20 -18 -2 8 -6 -4 -14 1 -20 8 -19 -16 -13 -12 -20 -12 7 -9 12 -20 -20 -20 -7 -20 15 -20 -9 -20 -20 -20 -20 -20 -20 6 -9 -20 -20 -20 -20 -20 -20 -20 -20
-19 -20 15 0 -19 -20 -20 -1 -13 10 26 32 2 -20 -7 23 -20 -18 -20 -15 -20 -2 12 -11 -20 -20 -14 7 -10 -20 10 -20 -18 -20 -20 -20 -20 -12 -5 5 4 -20 -20 -20 -20 -20 -20 -20 -20
-13 -14 28 -14 -20 -20 -20 7 13 13 16 16 16 -20 23 -7 -15 9 11 -20 -20 3 15 -20 -20 -19 -20 5 -20 -20 7 4 -8 -20 -20 -20 -20 -20 -17 -10 -20 -20 -20 -20 -20 -20 -20 -20 -20
5 27 18 -15 -20 -20 -20 8 18 3 9 15 17 -19 6 25 -12 -15 10 -20 -20 4 -13 -20 -12 -15 -20 -20 -20 -20 -20 15 8 -20 -20 -20 -20 -20 -20 -20 -20 -20 -20 -20 -20 -20 -20 -20 -20
24 26 15 -10 -20 -20 -20 5 15 -13 -6 18 2 15 1 36 30 14 33 -1 -20 -20 -20 -20 -9 -9 -20 -20 -20 -20 -20 18 12 -19 -20 -20 -20 -20 -20 -20 -20 -20 -20 -20 -20 -20 -20 -20 -20
-3 24 -15 -20 -20 -20 -20 9 -8 -20 5 28 4 16 -2 35 31 35 32 17 4 -17 -20 17 17 -20 -20 -20 -20 -20 -20 -12 19 -20 -20 -20 -20 -20 -20 -20 -20 -20 -20 -20 -20 -20 -20 -20 -20
15 30 -20 -20 -20 -20 -20 -2 -20 -17 -5 7 8 0 -20 12 25 35 34 34 13 10 -18 -20 -7 -20 -20 -20 -20 -20 -20 -20 4 -11 -20 -20 -20 -20 -20 -20 -20 -20 -20 -20 -20 -20 -20 -20 -20
12 27 -6 -20 -20 -20 -20 -20 -13 -20 -17 -3 7 1 13 15 26 19 41 34 34 11 -13 -20 -20 -20 -20 -20 -20 -20 -20 -20 -20 -18 -20 -20 -20 -20 -20 -20 -20 -20 -20 -20 -20 -20 -20 -20 -20
3 15 -7 -20 -20 -20 -20 -20 -20 -20 -13 -5 6 14 9 6 23 21 14 33 33 30 -8 -12 -20 -20 -20 -20 -20 -20 -20 -20 -20 -20 -20 -20 -20 -20 -20 -20 -20 -20 -20 -20 -20 -20 -20 -20 -20
-16 17 -20 -20 -9 -18 -20 -20 -20 -20 -2 -4 8 12 8 17 3 3 -8 29 27 35 33 8 4 -20 -20 -20 -20 -20 -20 -20 -20 -20 -20 -20 -20 -20 -20 -20 -20 -20 -20 -20 -20 -20 -20 -20 -20
11 23 25 -20 4 4 -18 15 -20 -20 -20 -20 -11 11 11 -0 -7 8 12 5 26 36 34 36 17 8 -20 -20 -20 -20 -20 -20 -20 -20 -20 -20 -20 -20 -20 -20 -20 -20 -20 -20 -20 -20 -20 -20 -20
-17 -9 14 1 10 13 -7 24 21 -20 -20 -20 -20 -0 18 10 5 5 16 9 21 29 29 33 34 9 -19 -20 -20 -20 -20 -20 -20 -20 -20 -20 -20 -20 -20 -20 -20 -20 -20 -20 -20 -20 -20 -20 -20
-20 -20 17 22 0 6 26 11 7 -20 -20 -20 -15 -20 4 8 6 -7 9 3 18 16 18 31 30 31 4 -15 -20 -20 -20 -20 -20 -20 -20 -20 -20 -20 -20 -20 -20 -20 -20 -20 -20 -20 -20 -20 -20
12 11 3 17 23 25 5 23 -17 15 -20 -20 -19 -20 -14 9 2 -15 29 -6 14 4 -5 5 26 28 34 22 -15 -15 -20 -20 -20 -20 -20 -20 -20 -20 -20 -20 -20 -20 -20 -20 -20 -20 -20 -20 -20
25 -14 6 23 30 15 26 32 17 -13 -14 15 -20 -20 -20 -6 8 -6 -13 -20 15 -3 -20 11 -4 34 22 30 -18 -19 -20 -20 -20 -20 -20 -20 -20 -20 -20 -20 -20 -20 -20 -20 -20 -20 -20 -20 -20
18 11 -11 28 24 20 15 35 19 17 -7 -20 -8 -20 -20 -20 -4 7 0 -13 11 32 10 10 8 19 10 22 -10 7 -18 -10 -20 -20 -20 -20 -20 -20 -20 -20 -20 -20 -20 -20 -20 -20 -20 -20 -18
14 8 3 30 26 35 10 15 31 -17 -20 -20 -20 -20 -20 -20 6 -3 1 11 1 13 7 3 3 14 16 -2 -17 -4 -17 -20 -15 -3 -20 -20 -20 -20 -20 -20 -20 -20 -20 -20 -20 -20 -7 -15 -6
-20 -20 -20 27 2 17 25 21 39 23 -20 -20 -20 -20 -20 -20 -20 -20 -20 -2 -10 18 14 -1 -2 17 2 -14 -18 -1 7 -20 -18 -3 18 -20 -20 -20 -20 -20 -20 -20 -20 -20 -20 -15 -3 -12 6
-20 -19 -3 13 34 22 34 13 23 16 -13 -20 -20 -20 -20 -20 -20 -20 -20 -20 2 -16 -7 7 -2 4 13 -10 -1 -18 -20 -20 -20 -19 -20 -20 -20 -14 -20 -20 -20 -20 -20 -20 -0 -3 1 -1 -20
-19 -12 3 -10 17 33 21 24 26 32 1 -20 -20 -20 -20 -20 -20 -20 -20 -20 -20 12 -13 -4 -11 10 -5 -4 -6 -18 -20 -20 -20 -20 -20 -20 -17 3 -16 -2 -20 -20 -6 -9 -9 -12 4 5 -16
24 -5 -0 28 30 11 -1 4 19 -5 -12 -20 -20 -20 -20 -20 -20 -20 -20 -20 -20 -20 -17 -20 1 7 12 33 12 -12 -18 -0 -3 25 -15 -20 -16 -8 -20 -20 -20 9 -20 -19 -19 -20 -20 -20 -20
-20 11 5 16 38 17 -4 -20 10 3 -8 -20 -20 -20 -20 -20 -20 -20 -20 -20 -20 -20 -20 -20 -20 3 -20 17 34 -12 -9 35 34 -20 -19 0 32 30 36 30 -13 -19 -20 -20 -20 -20 -20 -20 -20
-20 -5 26 18 22 21 15 -20 -20 -20 -13 -20 -20 -20 -20 -20 -20 -20 -20 -20 -20 -20 -20 -20 -20 -6 -19 16 5 17 23 12 30 32 -9 12 13 27 22 28 30 8 -13 -20 -20 -20 -20 -20 -20
-20 -8 18 16 18 3 14 -1 -20 -20 -16 -20 -20 -20 -20 -20 -20 -20 -20 -20 -20 -20 -20 -20 -20 -20 -20 7 26 -5 -13 29 19 33 28 -3 2 8 23 14 21 15 -10 -20 -20 -19 -20 -20 -20
-12 -20 -20 5 11 -20 -20 -20 -19 -20 -20 -20 -20 -20 -20 -20 -20 -20 -20 -20 -20 -20 -20 -20 -20 -20 -20 -20 -14 -13 -20 -20 -19 7 14 26 21 16 15 16 5 -16 -20 -19 -20 -20 -20 -20 -20
-17 -20 -20 -20 3 -17 -20 -20 -20 -20 -20 -20 -20 -20 -20 -20 -20 -20 -20 -20 -20 -20 -20 -20 -20 -20 -20 -20 -20 -20 -20 -20 -20 -2 18 18 10 -8 -15 -7 23 -10 -20 -20 -20 -20 -20 -20 -20
-14 -11 -18 -20 -20 -20 -20 -20 -20 -8 -13 -20 -20 -20 -20 -20 -20 -20 -20 -20 -20 -20 -20 -20 -20 -20 -20 -20 -20 -20 -20 -20 -20 15 21 19 22 10 16 20 -7 -20 -20 -20 -20 -20 -20 -20 -20
-20 -20 -20 -20 -20 -20 -20 -20 -20 -20 -5 -5 -20 -20 -20 -20 -20 -20 -20 -20 -20 -20 -20 -20 -20 -20 -20 -20 -20 -20 -20 -20 -20 -20 -20 -20 -14 -20 -20 -20 -20 -20 -20 -20 -20 -20 -20 -20 -20
-20 -20 -20 -20 -20 -20 -20 -20 -20 -20 -20 -20 -20 -20 -20 -20 -20 -20 -20 -20 -20 -20 -20 -20 -20 -20 -20 -20 -20 -20 -20 -20 -20 -20 -20 -20 -20 -20 -16 -20 -20 -20 -20 -20 -20 -20 -20 -20 -20

GFSSGP_prec_radar_075.txt.gz
Reflectivity
-20 -20 -20 -17 -20 -20 -20 -20 -20 -2 25 31 -14 -20 5 -20 -20 -20 -15 -20 -20 -20 0 -20 -20 -2 -17 -12 -20 -20 9 -20 -20 -20 -20 -20 -1 18 21 -3 -18 -20 -20 -20 -20 -20 -20 -20 -20
-20 -20 5 22 -18 -20 -20 -20 -20 -1 2 27 -4 16 -17 -20 -20 7 12 -6 -20 -20 1 -20 -20 -20 -7 -20 -20 -20 6 -20 -20 -20 -20 -20 -13 -4 10 -1 -20 -20 -20 -20 -20 -20 -20 -20 -20
-20 2 10 12 2 -20 -20 -20 -20 5 13 33 30 -3 24 -20 -19 8 -8 -20 -5 10 -20 -20 -20 -20 4 -8 -20 -0 -20 -20 -20 -20 -20 -20 -20 -10 6 -12 -20 -20 -20 -20 -20 -20 -20 -20 -20
-20 28 -13 11 9 -20 -20 -20 -20 20 16 9 17 21 -5 26 -12 -19 2 -20 -20 13 -19 -20 -20 2 -19 -20 -7 14 -20 -20 -20 -20 -20 -10 -20 -20 -13 -20 -20 -20 -20 -20 -20 -20 -20 -20 -20
-9 -19 22 23 -13 -20 -20 -20 -20 25 -9 4 26 20 2 -7 22 30 -13 15 -20 16 18 -20 7 -19 3 -20 -20 18 4 -20 -20 -20 -20 -20 -20 -0 -20 -20 -20 -20 -20 -20 -20 -20 -20 -20 -20
-20 -4 13 9 -20 -20 -20 -20 -20 -19 -20 7 21 11 18 21 27 28 -7 14 15 -12 19 -20 -20 -20 -20 -20 -20 7 -2 -6 -20 -20 -20 -20 -20 -1 -6 -20 -20 -20 -20 -20 -20 -20 -20 -20 -20
-18 -8 17 -20 -20 -20 -20 -20 -20 -20 -20 -8 5 10 15 8 27 25 9 28 -13 1 5 -11 -12 -20 -20 -20 -20 -20 16 -17 -20 -20 -20 -20 -20 -20 -4 9 -14 -20 -20 -20 -20 -20 -20 -20 -20
10 20 7 14 -20 -20 -20 -20 -20 -20 -20 -15 9 5 -2 -4 -11 30 26 27 20 26 17 16 -20 -20 -20 -20 -20 -20 8 17 -20 -20 -20 -20 -20 -20 -20 -20 -20 -20 -20 -20 -20 -20 -20 -20 -20
15 7 3 -18 -20 -20 -20 -20 -19 -20 -20 -20 7 1 7 25 11 29 37 29 18 30 29 31 -11 -20 -20 -20 -20 -20 -20 18 -12 -20 -20 -20 -20 -20 -20 -20 -20 -20 -20 -20 -20 -20 -20 -20 -20
10 10 -16 -20 -7 -20 -20 -14 -20 -20 -19 6 3 10 11 22 16 32 34 29 35 20 17 14 11 -15 -20 -20 -20 -20 -20 -20 -4 -20 -20 -20 -20 -20 -20 -20 -20 -20 -20 -20 -20 -20 -20 -20 -20
-15 3 -20 9 25 -19 -2 -6 -20 -20 -10 -20 -4 27 -19 -5 27 31 34 29 39 35 32 13 11 -20 -20 -20 -20 -20 -20 -20 -20 -20 -20 -20 -20 -20 -20 -20 -20 -20 -20 -20 -20 -20 -20 -20 -20
19 -20 8 8 20 -9 28 10 8 -20 -20 -13 -1 10 -12 -3 14 20 15 18 37 35 39 34 28 -9 -20 -20 -20 -20 -20 -20 -20 -20 -20 -20 -20 -20 -20 -20 -20 -20 -20 -20 -20 -20 -20 -20 -20
20 -20 -13 21 3 22 1 3 19 -4 -20 5 -9 13 -16 -4 10 9 17 18 28 31 33 29 26 25 -4 -20 -20 -20 -20 -20 -20 -20 -20 -20 -20 -20 -20 -20 -20 -20 -20 -20 -20 -20 -20 -20 -20
-4 -20 -20 22 22 25 -20 -20 23 -20 -20 2 -20 -11 -20 8 6 27 -11 16 23 18 18 15 24 26 21 32 -19 -20 -20 -20 -20 -20 -20 -20 -20 -20 -20 -20 -20 -20 -20 -20 -20 -20 -20 -20 -20
-20 -20 -20 -20 23 25 -10 27 16 24 2 -10 -16 -8 -16 -19 24 -11 3 15 7 9 4 29 30 33 28 36 31 -9 -20 -20 -20 -20 -20 -20 -20 -20 -20 -20 -20 -20 -20 -20 -20 -20 -20 -20 -20
-11 26 -4 -20 20 26 23 7 19 20 3 27 -6 19 -2 17 -4 11 -1 12 5 -2 14 25 21 18 28 15 34 23 -7 -20 -20 -20 -20 -20 -20 -20 -20 -20 -20 -20 -20 -20 -20 -20 -20 -20 -20
3 27 -20 5 16 28 33 -14 -12 23 20 20 24 -3 0 34 9 -17 -13 6 12 15 34 18 15 24 2 25 17 13 20 -18 12 -20 -20 -18 -20 -20 -20 -20 -20 -20 -20 -20 -20 -20 -20 -20 -20
4 8 -7 -12 -14 23 31 -15 -20 30 -0 -10 -18 15 -10 -17 4 0 18 22 15 16 32 29 22 8 32 31 34 31 32 -1 -15 -20 -20 -20 -20 -20 -20 -20 -20 -20 -20 -20 -20 -20 -20 -20 -20
-20 -20 -20 -8 19 9 27 -20 -11 28 -1 -20 -1 -20 -20 -13 -1 17 7 13 7 -17 27 -11 11 11 9 25 27 31 34 6 -18 -17 -20 -17 17 -20 -20 -20 -20 -20 -20 -20 -20 -20 -18 -4 -11
-2 17 17 -8 0 34 10 18 18 15 34 -15 -20 -14 -20 -20 -6 -20 -7 11 -13 -12 -4 8 32 32 18 29 4 12 12 36 -14 -20 -20 -20 1 -3 -20 -20 -20 -20 -20 -20 -8 -5 -11 -14 6
-15 -19 10 -20 18 29 37 36 25 38 35 9 -18 -15 -20 -20 -20 -20 -8 -8 -15 -9 -20 -8 14 7 2 35 12 -3 -20 16 -6 -20 -20 -17 1 -19 -20 -20 -20 -20 -20 -16 -7 -13 -3 -20 -20
-20 -16 16 -11 30 32 18 25 20 3 8 33 -20 -20 -20 -20 -20 -20 -20 -8 -4 -12 -20 -20 -20 -7 23 17 17 -9 -1 23 29 30 22 32 30 29 -20 12 20 4 10 17 18 1 -6 -16 -20
-19 6 19 13 4 19 28 19 9 -11 6 -20 -20 -20 -20 -20 -20 -20 -20 -20 -9 -3 -2 -13 -20 -20 -15 -8 -7 19 -20 -20 -2 28 34 35 34 30 28 31 31 29 26 26 26 30 -20 -20 -17
24 -7 3 9 34 23 28 -20 -20 -20 3 20 8 -20 -20 -20 -20 -20 -20 -20 -20 -20 -11 -1 -8 -20 -20 -20 -18 -0 -18 -1 12 18 31 36 30 31 32 35 34 28 31 26 25 23 10 -19 -20
2 -17 13 20 19 6 13 3 -20 -5 5 -5 -20 -20 -20 -20 -20 -20 -20 -20 -20 -20 -20 -20 -9 -7 -4 -7 -20 -20 -18 -0 27 -12 -2 2 22 17 32 30 26 20 10 20 -6 -3 -20 -20 -20
-20 0 22 6 -20 -20 -9 -17 -20 -19 -20 -20 -20 -20 -20 -20 -20 -20 -20 -20 -20 -20 -20 -20 -20 -20 -20 -19 -12 -20 -18 12 24 10 21 -14 -14 10 17 24 -3 6 15 12 -0 -20 -20 -20 -20
-20 -6 -0 -19 -1 7 3 -8 -20 -12 -20 -20 -20 -20 -20 -20 -20 -20 -20 -20 -20 -20 -20 -20 -20 -20 -20 -20 -20 -20 -20 22 -20 -20 23 7 -20 -20 13 -14 -15 -8 -18 -17 -20 -20 -20 -20 -20
-20 -20 -20 -20 -20 1 -20 -20 -11 6 -3 -20 -20 -20 -20 -20 -20 -20 -20 -20 -20 -20 -20 -20 -20 -20 -20 -20 -20 -20 -20 -20 -20 -20 -1 3 -20 -12 8 1 2 1 16 -12 -11 -20 -20 -20 -20
-20 -20 -20 -20 -20 -20 -20 -20 -20 -14 3 -12 -20 -20 -20 -20 -20 -20 -20 -20 -20 -20 -20 -20 -20 -20 -20 -20 -20 -20 -20 -20 -20 -20 -20 -20 -20 -20 -20 -20 -16 -20 -20 -20 -20 -20 -20 -20 -20
-20 -20 -20 -20 -20 -20 -20 -20 -20 -19 -20 -20 -20 -20 -20 -20 -20 -20 -20 -20 -20 -20 -20 -20 -20 -20 -20 -20 -20 -20 -20 -20 -20 -20 -20 -20 -20 -19 -20 -20 -20 -20 -20 -20 -20 -20 -20 -20 -20

GFSSGP_prec_radar_078.txt.gz
Reflectivity
-20 -20 -20 -20 -20 -20 -20 -20 -20 -20 -20 -8 25 -10 -12 -10 -20 -20 -19 6 -20 -4 -20 0 -11 -20 5 5 -20 -20 -12 -20 -20 -20 -8 17 23 -11 -4 -20 -20 -20 -20 -20 3 19 1 -11 -20
-20 -20 -20 -19 -5 -1 -20 -20 -20 -20 -20 -12 7 25 12 16 -4 -1 15 -10 -20 -16 -20 -20 6 -20 -4 -9 -20 -6 -18 -20 -20 -20 -20 6 3 11 -12 6 -20 -20 -20 -6 12 -1 -20 -20 -20
-20 -20 8 14 8 -8 -20 -20 -20 -20 -20 -20 7 32 5 23 13 -5 13 3 -2 -18 -20 -20 23 -12 -17 -20 -14 11 -20 -20 -20 -20 -20 25 26 11 3 -5 -20 -20 -20 -20 -20 -20 -20 -20 -20
-20 -13 -20 23 9 -20 -20 -20 -20 -20 -20 -20 1 25 18 27 28 -7 16 -20 -20 -20 3 22 -20 -19 -15 -20 -12 11 -20 -20 -20 -20 -20 -19 17 12 -9 -20 -20 -20 -20 -20 -20 -20 -20 -20 -20
-20 -20 21 9 19 -20 -20 -20 -20 -20 -20 -20 2 11 31 -7 35 19 17 -18 -20 -4 -20 15 -20 -12 -20 -20 -14 -9 -19 -20 -20 -20 -20 -20 -2 12 7 -20 -20 -20 -20 -20 -20 -20 -20 -20 -20
-20 -20 13 -1 -20 -20 -20 -20 -20 -20 -20 -20 3 5 29 26 25 33 23 8 -8 -20 -20 -20 -8 -14 -20 -20 -2 -9 -20 -20 -20 -20 -20 -20 -20 -20 -20 -20 -20 -20 -20 -20 -20 -20 -20 -20 -20
1 -20 -16 -15 -20 -20 -20 1 -20 -20 -20 -20 -20 10 23 28 29 23 28 30 26 21 -20 -20 -13 -20 -20 -20 -20 5 3 -20 -20 -20 -20 -0 5 -20 -20 -20 -20 -20 -20 -20 -20 -20 -20 -20 -20
7 13 -13 -16 -20 -20 -20 -11 6 7 -20 -20 -20 9 15 19 7 19 30 35 32 26 24 21 -10 -20 -20 -20 -20 -6 -15 -20 -20 -20 -20 -20 -20 -7 -20 -20 -20 -20 -20 -20 -20 -20 -20 -20 -20
14 12 -5 -17 -16 -20 -20 -20 -2 12 -18 -20 -20 2 8 21 25 30 32 30 24 16 26 27 -20 -20 -20 -20 -20 -20 1 -20 -20 -20 -20 -20 -20 -20 -20 -20 -20 -20 -20 -20 -20 -20 -20 -20 -20
16 7 -20 -20 -20 -20 -20 -1 -17 16 3 -20 -20 -14 15 23 -8 16 24 39 29 4 26 29 28 -20 -20 -20 -20 -20 -20 -8 -13 -20 -20 -20 -20 -20 -20 -20 -20 -20 -20 -20 -20 -20 -20 -20 -20
-13 -20 -20 -20 -20 -20 -20 -17 11 12 23 -20 -20 -20 16 3 -1 0 23 28 22 12 28 28 11 -15 -13 -20 -20 -20 -20 -15 5 -20 -20 -20 -20 -20 -20 -20 -20 -20 -20 -20 -20 -20 -20 -20 -20
7 -20 -20 -20 -20 -20 -10 21 1 -2 -4 -15 -20 -14 16 14 9 3 -0 36 38 31 19 30 30 -1 -0 -4 -7 -5 -20 -20 -3 -20 -20 -20 -20 -20 -20 -20 -20 -20 -20 -20 -20 -20 -20 -20 -20
-4 -20 -20 -20 -20 -18 -20 -2 0 4 4 -20 -8 -12 1 0 24 -13 -5 25 30 32 39 9 25 24 3 10 -4 -20 -20 -20 -20 -20 -20 -20 -20 -20 -20 -20 -20 -20 -20 -20 -20 -20 -20 -20 -20
-20 -20 -20 -20 -20 -20 9 13 12 -5 -8 8 -20 -8 -4 1 -20 -7 -8 23 20 26 36 37 31 30 19 8 10 -2 -11 -20 -20 -20 -20 -20 -20 -20 -20 -20 -20 -20 -20 -20 -20 -20 -20 -20 -20
-20 -18 13 -20 -19 -3 9 7 6 29 15 -10 25 -12 36 30 6 7 11 1 7 23 31 36 32 30 30 27 15 10 -6 -20 -20 -20 -20 -20 -20 -20 -20 -20 -20 -20 -20 -20 -20 -20 -20 -20 -20
-13 -12 3 -20 -20 7 26 8 15 39 22 25 -20 30 10 28 3 -10 13 28 10 15 16 26 17 18 29 22 27 10 1 -4 18 -20 -20 -20 -20 -20 -20 -20 -20 -20 -20 -20 -20 -20 -20 -20 -20
-15 8 -12 15 -20 5 13 31 19 23 9 -11 21 12 27 30 22 35 22 22 14 16 14 17 10 17 23 12 24 23 10 1 32 -18 -20 -20 -20 -20 -20 -20 -20 -20 -20 -20 -20 -20 -20 -20 -20
-20 14 1 4 -10 -2 18 39 3 -20 -20 -12 23 20 23 23 35 31 26 33 34 17 14 10 21 22 32 32 19 35 14 12 5 21 -18 -20 -20 -20 -20 -20 -20 -20 -20 -20 -20 -20 -20 -20 -20
20 8 27 20 18 24 -5 24 19 33 -1 16 22 14 12 20 26 30 32 35 30 19 37 12 18 36 33 35 22 23 37 14 -8 32 29 -19 -20 -20 -20 -20 -20 -20 -20 -20 -20 -20 -20 -20 -20
39 4 21 23 25 19 -3 18 36 20 -7 9 5 -16 11 4 14 26 19 22 33 0 22 16 12 20 35 36 36 33 27 25 29 32 31 29 0 11 28 0 -20 -20 -20 -20 -20 -20 -17 -11 1
17 -18 -20 -20 0 -20 -6 7 35 4 -20 16 8 19 -1 12 10 7 9 26 27 3 -9 3 13 20 15 19 33 32 32 19 26 33 34 31 18 -20 -18 -18 32 27 27 -9 12 26 2 -2 -20
13 25 26 -2 -20 -14 -11 17 34 -6 -17 13 16 -13 -19 16 -12 -19 -12 -6 -4 -5 5 -11 -2 4 12 -0 30 44 39 37 34 35 31 34 33 24 31 31 31 29 -2 2 29 27 19 -20 -20
15 18 23 -4 -18 -8 24 31 29 -18 -14 -4 21 -5 15 1 -11 -20 -20 -20 -20 -19 -12 -20 3 -17 -0 -15 -15 27 31 31 30 33 13 -11 19 25 31 33 33 33 31 32 27 7 5 -11 -16
3 4 20 -20 -20 -4 -1 -3 13 7 12 -2 -9 -12 11 16 11 -9 -20 -20 -20 -20 -20 -20 -19 -6 -18 5 2 -14 9 23 25 29 28 -5 -11 10 18 28 34 41 38 30 27 16 27 27 27
7 -20 -20 -1 9 -19 18 17 6 -16 -12 8 11 19 -4 14 -4 -20 -20 -20 -20 -20 -20 -20 -20 -20 -20 -20 -20 -20 -3 -2 4 0 9 -12 -7 -17 10 27 27 29 32 28 19 3 5 16 1
7 18 -20 -2 -12 -0 9 9 -3 -20 -20 -20 1 -3 26 -19 -20 -20 -20 -20 -20 -20 -20 -20 -20 -20 -20 -20 -20 -20 -17 -3 -12 -20 -14 24 6 32 8 29 15 -17 -8 -3 17 9 2 -20 -17
1 12 -15 -19 4 -0 0 -19 -16 -19 -20 13 23 6 -8 -20 -20 -20 -20 -20 -20 -20 -20 -20 -20 -20 -20 -20 -20 -20 -20 -20 -18 -20 -20 11 25 19 26 16 -0 -20 -6 -1 -20 -15 -20 -20 -20
-20 -13 2 1 0 -16 -15 -15 -20 -20 -20 -20 4 -3 -20 -20 -20 -20 -20 -20 -20 -20 -20 -20 -20 -20 -20 -20 -20 -17 -16 -20 -20 -20 -20 -16 -14 12 -20 -20 -20 -15 -15 -19 -20 -20 -20 -20 -20
-20 -20 -20 -20 -20 -18 -5 -20 -17 -7 -20 -20 -20 -20 -20 -20 -20 -20 -20 -20 -20 -20 -20 -20 -20 -20 -20 -20 -20 -20 -20 -2 -13 -14 -19 -15 -2 19 2 -8 -20 -15 -20 -18 -17 -20 -20 -20 -20
-20 -20 -20 -20 -20 -20 -20 -20 -20 -20 -20 -20 -20 -20 -20 -20 -20 -20 -20 -20 -20 -20 -20 -20 -20 -20 -20 -20 -20 -20 -20 -20 -20 -20 -19 -19 -20 -14 -13 -20 -20 -15 -20 -20 -20 -20 -20 -20 -20

GFSSGP_prec_radar_081.txt.gz
Reflectivity
-20 -20 -20 -20 -20 -20 -20 -20 -20 -20 -20 -20 6 -20 8 -20 -20 -20 -20 -11 -20 -20 -20 -20 -15 -20 -20 -20 -20 -19 -20 -20 -17 8 1 -5 -6 4 -17 -20 -20 -20 -20 -20 14 11 -13 -20 -20
-20 -20 -20 -20 -20 -20 -20 -20 -20 -20 -20 -20 -19 10 -5 7 -20 -14 -9 14 -20 -20 -20 -20 -20 -9 -0 -20 -20 6 -20 -20 -12 -7 -5 -11 -20 -12 -13 -20 -20 -20 0 14 15 -12 -20 -20 -20
-20 -20 -20 -20 -20 -20 -20 -20 -20 -20 -20 -20 -20 20 8 18 -20 -20 -8 -20 5 7 -14 -20 2 -20 -20 -20 -7 5 -20 -20 -20 -12 16 19 -7 -20 -3 -20 -20 -10 11 13 4 -20 -20 -3 -5
-20 -20 -20 -20 -19 -20 -20 -20 -20 -20 -20 -20 -20 21 17 -17 -18 -20 -9 -3 -9 -19 -20 -20 -20 -20 -20 -20 10 -20 -20 -20 -20 -20 18 27 8 4 -16 -20 -20 -6 8 7 -20 -20 -20 -19 -15
-20 -20 -20 -18 -20 -20 -20 -20 -20 -20 -20 -20 -20 -8 -20 2 26 18 -11 -20 -20 -16 -20 -20 -8 -20 -20 -19 -7 -20 -20 -20 -20 -20 -20 25 8 -20 7 -20 -20 -20 -1 -20 -20 -20 -20 -20 -20
13 -20 -17 6 -20 -20 -20 -20 -20 -20 -20 -20 -19 -20 -20 7 27 25 34 -14 -19 -20 -19 -20 -3 -20 -20 -20 -5 -20 -20 -20 -17 -20 -20 7 10 11 9 -20 -20 -20 -20 -20 -20 -20 -20 -20 -20
-5 -1 -18 -20 -20 -20 -20 -20 -20 -20 -20 -20 -20 -20 -20 4 5 23 28 34 28 24 -8 -20 -20 4 -20 -20 -20 -20 -20 -20 -20 -13 -20 -20 8 -15 -7 -7 -20 -20 -20 -20 -20 -20 -20 -20 -20
8 11 -20 -20 -20 -20 -20 -20 -20 -18 -19 -20 -20 -20 -20 -1 8 18 25 50 29 27 24 -20 -10 -19 -20 -20 -19 -11 -20 -20 -20 -2 6 15 -1 3 3 -0 -2 -20 -20 -20 -20 -20 -20 -20 -20
14 5 -20 -20 -20 -20 -20 -20 -20 -8 -13 -20 -17 -20 -20 7 13 -2 24 42 36 18 24 31 24 -20 -20 -20 5 7 -20 -20 -20 -20 -20 5 -20 -10 -20 -20 -15 -20 -20 -20 -20 -20 -20 -20 -20
15 -1 -20 -20 -20 -20 -20 -20 -20 -20 -13 -15 -20 -20 -20 4 6 -10 29 41 45 30 -13 10 29 1 -20 -20 -20 13 8 -20 -20 -20 -20 -20 -20 -20 -20 -20 -20 -20 -20 -20 -20 -20 -20 -20 -20
-18 -20 -20 -20 -20 -20 -20 -20 -20 -17 18 -19 -20 -20 -19 -2 -14 11 8 34 24 36 12 24 7 13 -19 -20 -20 -20 2 -4 -20 -20 -20 -20 -20 -20 -20 -20 -20 -20 -20 -20 -20 -20 -20 -20 -20
-17 -20 -20 -20 -20 -20 -20 -18 5 -20 -20 14 -2 -20 -14 -20 7 14 15 35 27 20 30 23 15 17 3 -20 -20 -20 4 -10 -20 -20 -20 -20 -20 -20 -20 -20 -20 -20 -20 -20 -20 -20 -20 -20 -20
-18 -20 -20 -20 -20 -20 -20 -14 -20 -20 10 15 27 -0 -20 3 2 -0 13 26 20 13 26 32 26 20 -8 -20 -20 -20 -20 -20 -6 -20 -20 -20 -20 -20 -20 -20 -20 -20 -20 -20 -20 -20 -20 -20 -20
-20 -20 -20 -20 -20 -20 -20 -20 6 -20 -15 10 -3 15 -20 25 9 11 27 20 19 23 33 35 29 23 24 12 -18 -20 -20 -20 -20 -20 -20 -20 -20 -20 -20 -20 -20 -20 -20 -20 -20 -20 -20 -20 -20
-17 -20 -20 -20 -20 -20 -20 -7 -20 -20 -4 22 14 -1 -19 -13 10 9 16 -0 14 14 16 34 33 30 8 -6 3 -7 -20 -20 -19 -8 -2 -20 -20 -20 -20 -20 -20 -20 -20 -20 -20 -20 -20 -20 -20
2 3 -19 -20 -20 -20 -3 -18 -20 -20 -20 16 12 6 31 34 -5 5 11 18 6 3 11 15 33 22 -4 -20 2 3 -20 -15 -6 -17 -20 -20 -20 -20 -20 -20 -20 -20 -20 -20 -20 -20 -20 -20 -20
7 -6 -8 -20 -20 -20 -13 -14 -20 -20 -20 -19 2 13 24 31 24 8 16 -19 5 10 10 20 25 32 29 -1 -9 6 13 13 -1 -17 -20 -20 -20 -20 -20 -20 -20 -20 -20 -20 -20 -20 -20 -20 -20
-10 6 -12 -20 -20 -20 0 2 13 5 -20 -3 12 18 22 31 32 27 30 -20 -3 -8 14 20 27 22 26 6 26 23 2 -18 -20 -20 -3 -15 -20 -20 -20 -20 -20 -20 -20 -20 -20 -20 -20 -20 -20
12 24 -14 -4 -20 -20 -20 -5 7 16 6 -20 8 -20 18 17 18 37 31 27 20 3 12 18 15 25 29 21 30 25 1 -20 -13 6 29 26 11 -20 -20 -20 -20 -20 -20 -20 -20 -20 -20 -20 -20
8 -16 11 21 -20 20 -1 1 9 37 40 35 42 14 16 18 21 37 42 38 43 18 32 27 18 29 32 30 37 36 29 18 8 6 -19 -15 14 -2 29 -17 -6 -20 -20 -20 -20 -20 -12 -16 -12
28 10 20 33 17 17 16 -6 13 21 4 38 14 25 17 -1 9 34 35 38 37 34 42 35 25 18 31 10 30 35 33 31 24 13 5 5 31 33 33 33 31 28 30 27 -7 -20 -19 8 -15
15 -9 11 24 4 29 16 6 2 16 12 -15 -20 -11 2 2 12 21 22 19 22 29 28 31 24 31 35 33 19 30 33 38 34 28 21 4 23 29 36 33 29 28 25 33 30 34 29 29 26
9 -20 23 18 6 8 -15 -20 6 8 -1 -20 9 -17 17 17 30 21 17 16 -2 16 12 21 17 38 23 22 11 37 35 30 42 38 28 40 35 12 34 34 32 30 28 41 32 30 6 17 30
18 14 16 4 4 -20 -20 -1 -4 14 -17 -19 -20 -20 9 32 9 4 13 17 21 14 -10 -17 -18 9 15 13 25 34 24 32 29 36 32 30 28 37 36 32 16 11 21 30 41 33 27 31 30
17 -0 -8 1 -20 -16 7 -12 -9 6 10 -10 -20 -14 8 23 14 -7 7 23 5 -20 -20 -20 -20 -16 6 3 20 10 12 9 18 26 23 13 29 28 30 1 22 -6 13 32 38 35 34 9 -4
-20 -20 -20 -19 -20 -3 -19 -4 -1 7 -19 -20 -20 -9 -20 17 17 0 24 4 -20 -20 -20 -20 -20 -20 -19 1 -3 4 8 -2 -13 19 27 6 9 29 15 -19 0 23 29 20 25 17 17 10 5
33 -20 -20 -20 -20 -20 -20 -20 -20 -20 -20 -17 -15 -13 -8 21 22 33 -1 -20 -20 -20 -20 -20 -20 -20 -20 -20 -14 -12 3 -2 -11 -16 -20 -8 24 -6 12 28 15 26 24 -18 2 11 -1 -5 -6
19 8 -8 4 -17 -20 -20 -20 -20 -20 -20 -15 -20 -18 0 2 10 -20 -20 -20 -20 -20 -20 -20 -20 -20 -20 -20 -20 -20 -20 -12 -20 -19 -20 -20 -20 -20 -16 -20 5 -12 -12 -16 -20 -17 -19 -20 -20
-20 -8 -20 -20 -20 -20 -20 -20 -20 -20 -20 -20 -20 -20 -17 4 -18 -20 -20 -20 -20 -20 -20 -20 -20 -20 -20 -20 -20 -20 -20 -17 -18 -18 -20 -20 -20 -20 -20 -20 -20 -14 -5 -18 -14 -18 -18 -20 -18
-20 -20 -20 -20 -20 -20 -20 -20 -20 -20 -20 -20 -20 -14 -20 -19 -20 -20 -20 -20 -20 -20 -20 -20 -20 -20 -20 -20 -20 -20 -20 -20 -18 -20 -20 -20 -20 -20 -20 -20 -20 -20 -20 -6 -9 -16 -20 -20 -20

GFSSGP_prec_radar_084.txt.gz
Reflectivity
-20 -20 -20 -20 -20 -20 -20 -20 -20 -20 -20 -20 -20 -20 -20 -17 -20 -20 -20 -20 -17 -20 -1 1 0 -20 -20 -20 -20 -20 -20 -20 -17 -20 -20 7 -8 3 -20 -20 -20 -20 -20 -8 11 11 10 7 -8
-20 -20 -20 -2 -20 -20 -20 -20 -20 -20 -20 -20 -20 -20 -20 -20 9 -20 -16 -20 -5 -12 -17 11 -15 -20 -20 -20 -20 -20 -20 17 -20 -20 -20 -19 -15 -13 1 -20 -20 -20 12 12 3 8 4 -17 -20
-20 -19 -11 -1 -19 -20 -20 -20 -20 -20 -20 -20 -20 -20 -20 -20 5 -17 -20 -20 -20 6 -18 7 -20 -20 -20 -20 2 -20 -20 -20 -20 -20 -17 -20 3 -17 -13 -20 -20 3 10 10 -9 -20 -20 -20 -20
-20 -20 -1 2 -20 -20 -20 -20 -20 -20 -20 -20 -20 -20 -20 -20 3 12 14 6 -2 -20 -20 -19 -19 -20 -20 -20 6 -20 -20 -20 -20 13 26 24 8 -16 -20 -20 -0 8 10 -5 -20 -17 -3 -5 -20
-4 2 -19 -16 -20 -20 -20 -20 -20 -20 -20 -20 -20 -20 -20 -20 -20 -14 21 17 13 -20 -20 -9 17 0 -20 -12 -3 -20 -20 -20 -20 14 28 23 -19 8 -16 -20 2 11 -0 -20 -20 3 -20 -20 -20
-1 -20 -20 -20 -20 -20 -20 -17 -20 -20 -20 -20 -20 -20 -20 -20 -20 -1 22 34 22 -8 -7 21 8 4 -20 14 -20 -20 -20 -20 -20 -20 25 29 -12 8 -2 2 3 9 -12 -20 -20 -20 -20 -20 -20
-20 -20 -20 -20 -20 -20 -20 -20 -20 -20 -20 -20 -20 -20 -20 -20 -20 -8 28 9 30 26 23 12 17 2 -20 -15 -20 -20 -20 -20 -20 -20 -10 8 -13 11 8 15 10 13 6 -20 -20 -20 -20 -20 -20
-14 -0 -20 -20 -20 -20 -20 -20 -20 -20 -20 -20 -20 -20 -20 -20 -20 -8 -16 17 29 20 28 18 20 21 2 1 -20 -20 -20 -20 -20 -20 7 5 4 12 13 12 6 5 -4 -20 -20 -20 -20 -20 -20
-14 2 -20 -20 -20 -20 -20 -20 -20 -20 -20 -20 -20 -20 -20 -20 3 -4 -20 15 38 43 32 30 24 8 -20 4 -16 -17 -20 -20 -20 -20 -20 -3 -20 -20 -14 -16 -5 -17 -20 -20 -20 -20 -20 -20 -20
6 -20 -20 -20 -20 -20 -20 -20 -20 -20 -20 -20 -20 -20 -20 -20 -13 -12 -20 4 19 37 41 36 31 28 -19 -18 10 6 -18 -20 -20 -20 -20 -11 -20 -20 -20 -17 -1 -19 -20 -20 -20 -20 -20 -20 -20
-20 -9 -20 -20 -20 -20 -20 -20 -20 -20 -20 -20 -20 -20 -20 27 -12 -1 -20 -11 17 30 35 38 33 31 -1 -20 21 15 11 -7 -20 -20 -20 -20 -20 -17 -20 -20 -20 -20 -20 -20 -20 -20 -20 -20 -20
-20 -20 -20 -20 -20 -20 -20 -19 -20 -20 -20 -20 -20 18 -20 -20 22 32 -20 -20 17 31 36 39 33 30 20 -3 -20 20 6 8 -7 -20 -20 -20 -20 -20 -20 -20 -20 -20 -20 -20 -20 -20 -20 -20 -20
-20 -20 -20 -20 -20 -20 -20 -20 -20 -20 -20 -20 -20 16 -19 -20 29 33 -4 -1 20 20 31 31 34 33 33 6 -20 -20 22 3 5 -20 -20 -20 -20 -20 -20 -20 -20 -20 -20 -20 -20 -20 -20 -20 -20
-20 -20 -20 -20 -20 -20 -20 -20 -20 -20 -20 -20 -20 -20 -20 -20 4 6 28 -16 11 15 28 15 35 38 34 24 10 -16 -4 21 7 -20 -20 -20 -20 -20 -20 -20 -20 -19 -20 -20 -20 -20 -20 -20 -20
-20 -20 -20 -20 -20 -20 -20 -20 -20 -20 -20 -20 -20 -7 -13 -14 -19 -19 -8 25 21 21 25 11 17 35 27 17 17 -2 -20 -17 11 7 -20 -20 -20 -20 -20 -6 -15 -20 -20 -20 -20 -20 -20 -20 -20
-20 -20 -3 -20 -20 -20 -20 -20 -20 -20 -20 -20 -20 -20 -14 -2 -20 -3 23 31 25 32 12 13 24 35 31 12 -4 -20 -20 -20 -20 0 3 -20 -20 -20 -12 10 -20 -20 -20 -20 -20 -20 -20 -20 -20
-6 -20 -20 -20 -20 -20 -20 -20 -20 -20 -20 -20 -20 -20 9 9 -20 -12 1 29 27 17 -18 7 16 29 33 19 1 -20 -20 -18 -20 -20 -20 -5 -16 -20 5 -7 -20 -20 -20 -20 -20 -20 -20 -20 -20
6 4 -6 -20 -20 -20 -5 -20 -20 -20 -2 -16 -3 -20 -17 -13 -20 -16 9 12 24 -1 -10 16 3 20 22 20 14 -15 -20 -19 -20 -11 2 12 -13 0 14 -20 -20 -20 -20 -20 -20 -20 -20 -20 -20
7 4 6 7 -20 20 -20 -20 -20 -20 17 23 -3 -20 -20 -20 23 2 24 15 16 9 -1 9 4 9 24 21 13 -4 7 -20 -20 -11 7 -20 4 11 -6 -20 -20 -20 -20 -20 -20 -20 -20 -20 -20
19 11 -11 -17 23 21 2 -20 -20 23 -9 -20 -1 -0 13 1 31 35 33 22 34 25 16 15 15 29 20 30 15 22 25 -20 6 13 8 1 -20 -20 -2 -20 -13 -20 -20 -11 -20 -20 -20 -20 6
21 19 -2 -4 27 -14 18 11 -1 -4 -20 -20 -20 -15 -1 11 18 39 42 41 38 33 27 30 27 22 30 26 24 15 -14 -14 6 16 7 -9 -5 -17 -18 -1 4 26 -19 10 -0 -4 -2 13 -12
17 26 27 21 22 15 21 18 13 -20 -20 -20 -20 -17 -18 20 16 20 30 42 30 35 38 36 35 32 34 31 33 30 25 18 6 -7 16 21 -0 10 28 36 27 23 35 27 28 29 24 28 27
5 14 29 25 23 16 1 -4 19 -20 -20 -20 -20 4 36 44 25 16 23 24 34 38 37 35 39 36 38 34 36 40 30 34 35 34 28 2 -2 4 15 26 34 36 38 38 33 34 9 34 30
11 23 26 31 11 19 2 14 -2 -5 -20 -11 19 28 41 44 -3 16 11 17 28 28 26 26 30 34 23 31 34 40 43 40 39 37 33 34 30 24 30 33 30 36 37 34 32 28 29 34 25
20 21 17 5 21 19 -13 -9 -9 -5 6 5 4 2 -5 -8 -20 23 29 19 23 33 24 19 12 13 12 10 29 33 24 24 30 32 15 26 35 37 37 34 38 33 35 27 17 4 11 30 28
-16 -11 16 13 18 5 -7 -2 -18 -19 -20 -20 -20 -20 -20 -20 -5 29 22 6 34 20 25 15 -3 3 6 1 33 32 16 15 11 5 11 15 14 13 26 25 28 31 26 21 13 18 12 21 12
-9 17 -20 0 -5 -19 -19 -3 -20 -5 -6 -20 -20 -20 -20 -20 -20 19 38 -8 26 -5 -3 7 -5 -20 0 -5 -4 2 17 4 -17 -6 -6 -2 8 -3 2 19 13 30 31 17 -17 3 0 4 7
11 7 4 -13 4 8 -20 -20 -20 -20 5 7 13 -8 11 3 -17 30 40 32 19 16 -20 -20 -9 -20 -20 -20 -15 -5 -15 -20 -20 -20 -20 -19 -11 -9 -8 9 -11 14 -13 20 -5 5 -7 -10 -13
-20 -20 -20 -20 -20 -16 -20 -20 -20 -20 -20 -20 -20 -20 -1 -12 24 27 22 16 10 -20 -20 -20 -20 -20 -20 -20 -20 -20 -20 -20 -20 -20 -20 -19 -15 -20 -18 -20 3 -20 -20 -20 -20 -20 -20 -19 -17
-20 -20 -20 -20 -20 -20 -20 -20 -20 -20 -20 -20 -20 -20 -20 -15 14 5 -4 4 -20 -20 -20 -20 -20 -20 -20 -20 -20 -20 -20 -20 -20 -20 -20 -20 -20 -20 -20 -20 -19 -19 -20 -20 -20 13 -19 -19 -4

GFSSGP_prec_radar_087.txt.gz
Reflectivity
-20 -20 -20 -20 -20 -20 -20 -20 -20 -20 -20 -20 -20 -20 -13 -20 -3 -1 -20 -20 -20 -20 -20 -4 -13 -2 -20 -20 -20 -19 -20 -20 -20 -20 -20 -20 -9 -15 -4 -20 -1 -11 -16 12 -20 -10 8 1 -18
-20 -20 -20 -20 -20 -20 -20 -20 -20 -20 -20 -20 -20 -20 -20 -20 4 19 -20 -20 -20 -20 -20 12 -6 1 -20 -20 -20 -20 -20 -20 -11 -20 -20 -18 6 4 1 1 -20 -20 10 12 9 1 8 -20 -20
-20 -20 -20 -20 -15 -20 -20 -20 -20 -20 -20 -20 -20 -20 -20 -20 -20 -20 -20 -20 -20 -20 -1 12 -20 -3 -20 -20 -20 -20 -20 -20 5 -15 -20 -8 4 -6 15 -20 -1 3 5 0 6 4 1 -7 -20
-20 -20 -20 -5 -20 -20 -20 -20 -20 -20 -20 -20 -20 -20 -19 -20 -20 -20 -20 -2 -9 -18 12 0 -20 2 -20 -20 -20 -20 -20 -7 -20 -19 -20 21 -20 14 9 -4 1 9 6 -12 -20 -2 -5 -20 -20
-20 -20 -20 -20 -20 -20 -20 -20 -20 -20 -20 -20 -20 -20 -10 -18 -20 -20 -20 -20 7 16 8 9 7 -20 -20 -18 -20 -20 -20 19 -20 -14 -20 -11 -14 10 -20 6 11 9 6 -0 -2 10 -4 -20 -20
-12 -20 -20 -20 -20 -20 -20 -20 -20 -20 -20 -20 -20 -20 -17 28 -2 -20 -20 -20 32 26 10 27 -20 21 -20 -18 -20 -20 -20 -2 -20 17 25 28 -5 12 -11 -4 7 7 -9 -7 10 -20 -20 -20 -20
-17 -20 -20 -20 -20 -20 -20 -20 -20 -20 -20 -20 -20 -20 -20 -14 -9 -8 5 -20 -9 33 27 23 -12 -6 11 -20 -9 -20 -20 -20 19 24 25 18 -20 12 14 5 10 4 5 -11 -20 -20 -20 -20 -20
-20 -20 -20 -20 -20 -20 -20 -20 -20 -20 -20 -20 -20 -20 -20 15 -6 -14 5 28 -20 20 42 24 25 23 -20 -13 8 -20 -20 -20 -12 -5 25 2 11 13 17 12 15 13 1 -20 -20 -20 -20 -20 -20
-20 -5 -20 -20 -20 -20 -20 -20 -20 -20 -20 -20 -20 -12 -15 -10 16 -20 -9 -20 -20 17 30 24 25 27 -20 5 -4 -20 -20 -20 -20 -20 20 8 -20 -16 -3 -20 13 11 1 -20 -20 -20 -20 -20 -20
-6 -18 -20 -20 -20 -20 -20 -20 -20 -20 -20 -20 -20 -20 -20 -3 16 23 -20 -20 -20 -13 13 35 31 29 28 2 -20 -6 -20 -20 -20 -15 -20 -3 -20 -20 -20 -20 -3 6 -20 -20 -20 -20 -20 -20 -20
-20 -20 -20 -20 -20 -20 -20 -20 -20 -20 -20 -20 -20 -20 -20 -5 -20 35 -20 -20 -20 -20 -1 14 41 30 37 27 -20 24 -20 -20 -20 -20 -20 -20 -20 -20 -20 -20 -19 -20 -20 -20 -20 -20 -20 -20 -20
-20 -20 -20 -20 -20 -20 -20 -20 -20 -20 -20 -20 -19 -20 -20 20 -5 -20 -5 -20 -20 -20 -20 19 34 28 41 31 24 23 5 -20 -20 -20 -20 -20 -20 -20 -20 -20 -20 -20 -20 -20 -20 -20 -20 -20 -20
-20 -20 -20 -20 -20 -20 -20 -20 -20 -20 -20 -20 12 -4 -20 -11 2 -20 -20 -20 -20 -20 -11 7 27 34 44 38 9 28 -1 -6 -20 -20 -20 -20 -20 -20 -20 -20 -20 -20 -20 -20 -20 -20 -20 -20 -20
-20 -20 -20 -20 -20 -20 -20 -20 -20 -20 -20 -20 -20 -13 -20 -20 -20 -20 -20 8 -20 -20 -16 -17 21 25 38 38 19 -7 30 4 -10 -20 -20 -20 -20 -20 -20 -20 -20 -20 -20 -20 -20 -20 -20 -20 -20
-20 -20 -20 -20 -20 -20 -20 -20 -20 -20 -20 -20 -20 -20 -20 -20 -20 -20 -20 -20 27 -16 -18 -18 18 2 36 45 25 15 24 27 -11 -20 -20 -20 -20 -20 -20 -20 -20 -20 -20 -20 -20 -9 -20 -20 -20
-1 -20 -20 -20 -20 -20 -20 -19 -20 -20 -20 -20 -20 -20 -20 -20 -20 4 -19 -6 -2 40 19 9 9 12 15 30 33 23 -20 -20 8 1 -16 -20 -20 -20 -20 -20 -20 -20 -20 -20 -15 -20 -20 -20 -20
8 5 -5 -20 -20 -20 -16 -17 -20 -20 -20 -20 -20 -20 -20 -20 -20 -20 -20 -1 -1 34 14 7 9 -8 12 20 23 16 -20 -19 -19 9 0 5 -20 -20 -20 -20 -20 -20 -20 -6 -7 -20 -20 -20 -20
7 7 0 -1 -20 -20 -20 -20 -20 -20 -20 -20 -20 -20 -20 -20 -20 -20 6 -1 20 24 33 21 2 -20 2 15 22 16 -6 -10 4 10 -19 4 -10 -16 -20 -11 -6 -20 -20 4 -16 -20 -20 -20 -20
0 0 -5 -20 -20 18 -0 -20 -20 -20 -20 -20 -20 -20 -20 -20 -20 -16 13 -0 7 30 32 17 9 -20 8 12 15 26 16 15 6 -20 -2 1 31 24 8 3 -20 -20 -19 14 -20 -20 -20 -20 -20
-1 0 0 -17 -20 -1 2 -20 -20 -20 -20 -17 -20 -11 25 -17 -18 -0 13 26 -2 12 22 24 11 5 11 29 26 33 18 12 21 6 -16 11 5 -1 3 -4 -20 -18 -2 18 -11 -20 -20 -20 -20
-2 11 2 12 16 -20 21 4 -20 -20 -20 24 -1 -20 -20 -10 -19 5 17 -15 24 24 17 20 23 17 17 27 32 38 33 35 7 6 21 17 -6 12 9 9 2 23 11 4 -7 5 -20 -3 24
14 20 13 16 21 17 -14 15 -20 -1 -20 -10 -20 -20 -20 -20 4 13 -14 -14 34 34 30 31 23 28 33 27 33 35 36 34 24 29 9 -17 -20 -0 -5 31 3 4 -2 9 10 27 34 26 24
9 32 6 6 4 26 21 28 -20 -20 -13 -15 -20 -20 -20 -20 -20 -20 0 29 32 37 30 29 37 24 34 32 34 33 31 29 21 32 27 -19 3 13 -10 18 13 13 6 5 11 39 36 48 29
36 34 -4 6 20 19 25 10 24 25 19 -20 -20 -20 -1 -13 -20 -3 19 25 25 26 36 36 31 25 34 35 36 26 29 31 33 33 32 25 21 19 22 20 24 20 23 32 26 29 25 26 37
24 37 18 15 30 10 5 39 -8 -15 -20 -20 -20 1 15 -4 16 29 37 19 25 25 35 34 31 34 39 37 34 36 37 37 35 35 31 26 30 31 24 20 31 29 28 29 33 32 35 29 28
9 18 27 21 15 10 23 26 21 -5 -3 -19 -20 -3 4 22 29 32 37 21 14 24 27 22 23 30 27 33 36 36 31 19 15 27 21 11 11 16 3 9 19 29 32 30 30 33 28 16 22
6 18 21 22 1 18 33 14 18 23 -11 -4 14 14 15 16 39 25 34 25 7 35 22 12 5 14 15 18 15 28 17 29 30 19 10 2 7 8 8 -5 6 20 17 31 34 28 25 4 8
22 20 4 -2 13 8 -2 -20 3 27 5 16 27 -6 1 16 -1 16 24 31 9 12 23 -7 -5 5 6 5 11 12 0 5 16 17 6 5 -4 3 34 37 18 7 1 4 23 24 18 17 19
1 -15 -20 -20 -20 8 -7 -17 -20 -16 27 25 12 18 2 6 26 14 18 33 29 12 10 -18 -20 -14 1 -2 2 1 -1 -20 -15 -9 -19 -7 -17 -20 -20 -1 7 2 6 7 5 19 18 -20 -20
-20 -20 -20 -19 -20 -20 -20 -14 -20 -20 12 -17 -2 30 26 30 21 34 18 2 -11 15 5 -20 -20 -20 -20 -20 -8 -3 -12 -20 -20 -20 -20 -19 -20 -20 -20 -7 6 14 21 3 -12 27 -20 -20 -20

GFSSGP_prec_radar_090.txt.gz
Reflectivity
-20 -20 -20 -20 -20 -20 -20 -20 -20 -20 -20 -20 -20 -20 -20 -20 -19 -10 -20 -20 -16 -20 -20 -20 -20 -20 -20 -20 -20 -20 -20 -1 -20 -20 -20 -20 4 -15 -20 -20 -20 -19 9 -6 -20 -19 4 17 20
-20 -20 -20 -20 -19 -20 -20 -20 -20 -20 -20 -20 -20 -20 -20 -20 -20 -20 -20 -20 -14 -20 -20 -20 -17 -20 -20 -20 -20 -20 -20 -20 -14 -20 -20 -16 -7 2 -20 -13 -20 -11 -5 -20 -20 -12 12 16 11
-20 -20 -20 -11 -13 -20 -20 -20 -20 -20 -20 -20 -20 -20 -20 -20 -11 -20 -15 -20 -20 -20 -20 -20 -20 -14 -17 -20 -20 -20 -20 -20 0 -17 -8 -20 -12 16 13 -20 -20 5 2 -20 -19 6 -2 -20 -20
-20 -20 -20 -9 -20 -20 -20 -20 -20 -20 -20 -20 -20 -20 -20 2 -20 -20 -20 -20 -20 -20 -20 -20 -20 -19 -20 -20 -20 -20 -20 -20 -20 -20 -20 -20 27 16 4 -20 -20 6 -8 10 5 2 -20 -20 -20
-20 -15 -20 -20 -20 -20 -20 -20 -20 -20 -20 -20 -20 -20 -20 -15 -20 -20 -11 -20 -20 -20 -20 -20 -20 -5 -20 -20 -20 -20 -20 -20 -20 -20 22 28 16 12 4 -20 -15 3 14 0 -19 -14 -20 -20 -20
-20 -18 -3 -20 -20 -20 -20 -20 -20 -20 -20 -20 -20 -13 -20 -20 -20 -20 -20 7 -20 -20 -20 -20 -20 -20 2 -6 -20 -20 -20 -12 -20 -20 25 -15 18 11 -3 -20 8 8 1 -17 10 -8 -20 -20 -20
-14 -3 -20 -20 -20 -20 -20 -20 -20 -20 -20 -20 -20 -20 -7 -20 -20 -20 -19 -19 -20 3 -20 -20 -20 -20 -20 -20 -20 -20 -20 23 -20 -20 -20 28 -12 8 -17 -3 17 14 7 11 -14 -20 -20 -20 -20
-20 -20 -20 -20 -20 -20 -20 -20 -20 -20 -20 -20 -15 -20 -20 -20 -20 -20 -20 32 38 3 -20 -20 38 24 -20 -20 -20 -20 -20 -20 -20 7 24 -19 -20 0 3 16 14 11 9 -20 -20 -20 -20 -20 -20
-20 -20 -20 -20 -20 -20 -20 -20 -20 -20 -20 -20 -20 -20 -20 -20 -15 -14 -18 -0 7 -20 -20 -20 19 24 -19 14 -20 -7 -20 -20 -20 11 -10 14 -20 -17 -5 16 14 15 7 -20 -20 -20 -20 -20 -20
-20 -20 -20 -20 -20 -20 -20 -20 -20 -20 -20 -20 -20 -20 -20 -20 -20 -20 -3 33 -16 -20 -20 -20 21 38 27 -20 29 -20 -20 -20 -20 -10 14 -0 -20 -20 -14 12 17 15 -1 -20 -20 -20 -20 -20 -20
-20 -20 -20 -20 -20 -20 -20 -20 -20 -20 -20 -20 -20 -20 -20 -20 -20 -20 -20 -20 25 -16 -20 -20 -0 11 34 25 6 31 -20 -20 -20 -20 17 28 23 -13 -20 -20 -6 -16 -20 -20 -20 -20 -20 -20 -20
-20 -20 -20 -20 -20 -20 -20 -20 -20 -20 -20 -20 -19 -10 -20 -20 -17 10 -18 -20 7 -20 -20 -20 -13 16 31 43 37 17 20 -20 -20 -20 -20 12 -19 -20 -20 -20 -20 -20 -20 -20 -20 -20 -20 -20 -20
-20 -20 -20 -20 -20 -20 -20 -20 -20 -20 -20 -20 -20 -20 -20 -20 -20 -20 2 11 29 -20 -20 12 -20 -20 3 33 42 34 20 -20 -20 -20 -20 -20 -20 -20 -20 -20 -20 -20 -20 -20 -20 -20 -20 -20 -20
-20 -20 -20 -20 -20 -20 -20 -20 -20 -20 -20 -20 -20 -20 -20 -20 -20 -20 -17 33 32 -20 -20 -20 -20 -20 -4 19 33 42 42 11 -20 -20 -20 -20 -20 -20 -20 -20 -20 -20 -20 -20 -20 -20 -20 -20 -20
-20 -20 -20 -20 -20 -20 -20 -20 -20 -20 -20 -20 -20 -20 -20 -20 -20 -20 -20 27 6 9 -5 -20 -15 -5 2 8 25 39 39 37 8 -19 -20 -20 -20 -20 -20 -20 -20 -20 -20 -20 -20 -20 -20 -20 -20
-20 -20 -20 -20 -20 -20 -20 -20 -20 -20 -20 -20 -20 -20 -20 -20 -20 -20 -20 -20 -20 -20 -14 11 -18 -1 1 0 6 28 35 37 37 12 -20 -20 -20 -20 -20 -20 -20 -20 -20 -20 -20 -20 -20 -20 -20
-20 -20 -20 -20 -20 -20 -17 -20 -20 -20 -20 -20 -20 -20 -20 -20 -20 -20 -20 -20 -20 -20 -20 6 26 -10 9 14 16 13 14 15 31 31 3 -20 -20 -20 -20 -18 -20 -20 -20 -20 -20 -20 -20 -20 -20
-20 -7 -20 -18 -20 -20 -11 -20 -20 -20 -20 -20 -20 -20 -20 -20 -20 -20 -20 -20 -20 -20 -20 -20 17 1 16 14 5 10 -0 -19 31 21 31 16 -20 -20 -20 -20 -20 -20 -20 -20 -20 -10 -14 -20 9
-20 -9 -20 -20 -20 -20 -9 -20 -20 -20 -9 -19 -20 -20 -20 -20 -20 -20 -20 -20 -9 8 -20 -20 9 5 7 2 22 11 -13 -7 -15 17 23 12 7 7 7 -20 -20 -20 -20 -20 4 16 9 -8 12
-20 6 -13 -19 -19 6 9 -20 -20 -20 -20 -20 -15 -20 -6 -20 -8 -20 -17 -20 -20 -14 -16 9 27 25 29 24 20 15 16 6 13 -5 14 23 30 8 0 6 -12 -20 6 18 -0 -20 -2 -20 2
-20 4 -16 -1 10 0 -5 -17 -20 -20 -20 -20 -19 2 -20 -20 -20 -20 -16 -20 -20 -20 1 14 25 30 22 24 32 29 26 34 34 21 2 8 27 13 2 4 9 15 -6 -13 -20 -8 -20 -20 2
-12 5 12 5 18 6 14 -17 -20 -20 -20 -20 -20 -20 -20 -20 -20 -20 -4 28 -20 -20 -3 7 13 22 16 3 14 26 17 31 34 31 33 -8 -1 29 26 4 18 -8 -2 -12 -14 27 28 23 6
5 8 7 13 12 5 1 12 -20 -10 15 -20 -20 -18 -19 -4 -20 -20 -19 -19 -20 -20 8 -16 10 29 39 4 27 35 34 38 32 26 34 4 5 14 16 -8 -16 24 28 15 28 25 -18 30 29
39 11 -4 2 13 24 16 7 -20 -20 -20 6 -20 -18 -6 -20 -20 -20 -13 9 9 -6 -12 -20 -11 20 30 34 37 33 32 31 32 32 31 30 14 17 29 23 17 21 9 18 23 4 3 23 19
31 34 24 12 13 25 22 29 33 -4 -20 -10 15 4 13 -17 -15 -20 -14 -20 -20 -16 -20 -7 -8 14 31 32 26 33 20 29 36 37 34 31 24 31 20 9 13 4 -15 -3 6 13 -7 25 16
-20 14 16 21 14 16 30 19 26 -11 -20 -20 5 -1 -20 -20 -14 10 1 13 20 -2 -4 9 19 27 27 32 32 36 37 35 31 34 38 37 34 24 28 26 4 4 3 18 13 -18 16 23 30
11 23 20 27 18 23 32 36 37 25 1 8 20 -20 -13 4 0 27 35 34 20 21 32 15 10 25 27 32 32 33 32 24 34 33 25 13 -11 -11 3 18 -4 5 7 -11 28 29 21 34 32
19 -20 -19 -6 15 5 20 -3 27 28 27 30 25 4 5 16 21 28 21 35 25 36 29 10 2 6 17 6 18 18 15 21 22 15 24 5 24 19 5 32 26 24 31 11 15 29 30 28 25
-20 -18 -8 -7 -13 -11 -12 12 32 27 31 23 11 11 28 -11 -11 19 -2 28 21 31 21 11 8 1 6 3 13 12 13 16 11 -6 -0 20 22 23 20 13 26 14 2 2 19 12 22 16 28
-20 -20 -20 -20 -20 -20 -15 9 28 19 17 27 32 17 26 25 24 25 32 28 32 25 -1 -20 -12 -6 -5 -5 -3 1 3 4 6 -5 -11 -14 -20 -20 -20 -9 -6 1 3 -11 4 5 24 8 -2

GFSSGP_prec_radar_093.txt.gz
Reflectivity
-20 -20 -20 -20 -20 -20 -20 -20 -20 -20 -20 -20 -20 -20 -20 -20 -20 -20 -20 -20 -20 -20 -20 -20 -20 -20 -20 -20 -20 -20 -20 -20 -20 -20 -20 -14 2 13 -20 -20 -20 10 16 8 6 -17 -2 14 -12
-20 -20 -20 -20 -20 -20 -20 -20 -20 -20 -20 -20 -20 -20 -20 -20 -20 -20 -20 -20 -20 -20 -20 -20 -20 -20 -20 -20 -20 -20 -20 -7 -20 -20 -20 -1 -8 20 -20 -20 -20 5 11 -20 -20 -20 16 10 -20
-20 -20 -20 -20 -20 -20 -20 -20 -20 -20 -20 -20 -20 -20 -20 -20 -20 -20 -20 -20 -20 -20 -20 -20 -20 -20 -20 -20 -20 -20 -20 -13 -7 -20 9 -10 -9 -2 10 -20 -0 -20 -20 -20 -20 -19 16 -18 -20
-20 -20 -20 -20 -20 -20 -20 -20 -20 -20 -20 -20 -20 -20 -20 -20 -20 -20 -20 -20 -20 -20 -20 -20 -20 -20 -20 -20 -20 -20 -20 -20 -20 -8 -20 -20 -20 -6 5 -20 8 1 -20 -20 -20 -20 -20 -20 -20
-20 -20 -20 -20 -20 -20 -20 -20 -20 -20 -20 -20 -20 -20 -20 -20 -20 -20 -20 -20 -20 -20 -20 -20 -20 -20 -20 -20 -7 -20 -20 -20 -10 -20 13 -18 -20 21 5 -20 -20 -12 -20 -17 -5 -18 -20 -20 -20
-20 -20 -20 -20 -20 -20 -20 -20 -20 -20 -20 -20 -20 -20 -20 -20 -20 -20 -20 -20 -20 -20 -20 -20 -20 -20 -20 -20 -20 -20 -20 -20 -20 -20 -20 -0 5 21 3 -20 -20 -9 3 -5 -14 -20 -20 -20 -20
-20 -20 -20 -20 -20 -20 -20 -20 -20 -20 -20 -20 -20 -20 -20 -20 -20 -20 -5 -20 -20 -20 -9 -20 -20 -20 -20 -20 -20 -20 -20 -20 -20 -20 -20 25 27 14 5 -20 8 14 6 -12 6 -20 -20 -20 -20
-20 -20 -20 -20 -20 -20 -20 -20 -20 -20 -20 -20 -20 -20 -20 -20 -20 -20 15 -20 26 30 -20 27 -20 -20 -20 -20 -20 -20 -20 23 -20 -20 -20 23 25 -4 -13 -7 12 15 13 2 -20 -20 -20 -20 -20
-20 -20 -20 -20 -20 -20 -20 -20 -20 -20 -20 -20 -20 -20 -20 -20 -15 -20 -20 -20 -15 26 26 -2 8 -20 -20 -20 -20 -20 -20 -20 6 -20 -20 21 -20 -20 -13 -8 7 15 12 6 -11 -20 -20 -20 -20
-20 -20 -20 -20 -20 -20 -20 -20 -20 -20 -20 -20 -20 -20 -20 -20 -20 -20 -20 -20 -20 16 27 23 3 -20 -20 -20 -20 13 3 -20 -20 19 4 -20 -12 -20 -13 7 -3 17 -4 -20 -20 -20 -20 -20 -20
-20 -20 -20 -20 -20 -20 -20 -20 -20 -20 -20 -20 -20 -20 -20 -20 -8 -20 -20 -20 -20 2 -20 -20 -20 1 -20 -20 21 14 27 22 -20 -20 27 -20 -20 11 -14 5 -1 -7 5 -20 -20 -20 -20 -20 -20
-20 -20 -20 -20 -20 -20 -20 -20 -20 -20 -20 -20 -20 -20 -20 -20 -20 -20 -20 -20 -20 29 -20 -20 -20 -20 -20 -20 12 30 32 16 1 4 -20 28 17 -11 -20 6 4 -20 -20 -20 -20 -20 -20 -20 -20
-20 -20 -20 -20 -20 -20 -20 -20 -20 -20 -20 -20 -20 -20 -20 -20 -20 -20 -20 -20 -20 -20 -20 -20 -4 -20 -20 -20 7 18 24 30 -9 16 9 23 26 3 -8 -9 -20 -20 -20 -20 -20 -20 -20 -20 -20
-20 -20 -20 -20 -20 -20 -20 -20 -20 -20 -20 -20 -20 -20 -20 -20 -20 -20 -20 -20 -20 -20 -7 15 -15 3 -20 -20 17 3 32 21 28 18 -20 11 8 11 13 -5 -20 -20 -20 -20 -20 -20 -20 -20 -20
-20 -20 -20 -20 -20 -20 -20 -20 -20 -20 -20 -20 -20 -20 -20 -20 -20 -20 -20 -20 -20 -20 12 15 11 -20 -20 -20 -19 -11 25 40 40 21 -5 -20 -19 19 -20 -20 -20 -20 -20 -20 -20 -20 -20 -20 -20
-20 -20 -20 -20 -20 -20 -14 -20 -20 -20 -20 -20 -20 -20 -20 -20 -20 -20 -20 -20 -20 -20 -13 26 -2 -19 -20 -20 6 4 29 37 35 33 4 -1 5 -19 -20 -20 -20 -20 -20 -20 -20 -20 -20 -20 -20
-20 -20 -20 -20 -20 -20 -20 -20 -20 -20 -20 -20 -20 -20 -20 -20 -20 -20 -20 -20 -20 -20 -20 -8 0 -14 -20 -18 -11 2 22 29 28 22 33 14 4 -8 -20 -20 -20 -20 -20 -20 -20 -20 -20 -20 -20
-20 -20 -20 -20 -20 -20 -20 -20 -20 -20 -20 -20 -20 -20 -20 -20 -20 -20 -20 -20 -20 -3 -9 -20 -20 -20 -20 -20 -20 -19 19 22 16 -10 2 30 9 -20 -20 -20 -20 -20 -20 -20 -20 -20 -20 -20 -20
-20 -20 -20 -20 -20 -10 -20 -20 -20 -20 -20 -20 -20 -20 -20 -20 -20 -20 -20 -20 -20 30 -20 -20 -20 -20 -20 -20 14 2 21 27 10 -12 29 -1 18 -20 -20 -20 -20 -20 -20 -20 -20 -20 -20 -20 -20
-20 -14 -20 -20 -14 -11 -20 -20 -20 -20 -20 -20 -20 -20 -20 -20 -20 -20 -20 -20 -20 -20 -20 -20 -20 -20 -20 -20 7 15 22 25 23 25 29 21 26 -11 -16 -20 -20 -20 -20 -16 -9 -20 -20 -19 -16
-20 -20 -20 -12 -12 -2 -10 -20 -20 -20 -20 -20 -20 -20 -20 4 -20 -20 -20 -20 12 -5 7 4 -20 -20 -20 -15 22 28 27 22 17 24 30 28 30 30 4 -13 -12 -20 -20 10 -9 -20 -19 8 7
-18 -20 -19 19 23 -20 -17 -13 -20 -20 -20 -20 -16 -20 -20 -20 -15 -3 -20 -20 -20 -9 -10 -20 31 24 -20 -1 30 25 12 20 13 23 25 34 25 36 30 31 36 1 6 5 9 9 13 5 29
-17 3 26 22 -19 -14 -20 1 -20 -20 -20 -20 -20 -5 8 28 -20 -20 -20 5 -6 -12 17 -10 -16 -20 3 32 20 6 16 27 25 26 36 32 28 30 26 27 35 35 33 24 33 32 13 28 29
-20 12 32 18 8 -13 -15 -20 -20 -20 -20 -20 -20 -20 11 -20 -20 -20 -20 -20 18 -8 -11 -20 -20 -11 19 11 19 29 19 35 26 32 33 37 32 32 25 36 36 30 20 25 33 14 13 13 15
-20 19 13 14 14 3 26 -6 -20 -20 11 -11 -4 -20 -20 -20 -20 -20 -20 1 16 21 -20 -20 -20 -20 8 -7 10 30 37 33 29 23 25 39 37 32 22 -3 6 12 20 28 32 17 8 13 8
-7 32 20 14 23 18 27 24 24 9 -7 16 22 14 -2 -20 -20 -11 11 -1 7 0 -18 -20 -20 4 13 23 8 15 29 25 28 27 32 34 36 28 15 28 14 2 18 22 28 24 -2 -20 -20
-12 15 14 16 34 -17 7 30 7 -6 10 -18 7 -20 -10 -15 8 14 22 28 2 -12 -4 0 10 12 24 32 16 27 36 32 31 37 31 24 34 29 19 31 31 24 14 -6 24 1 -10 -9 15
-5 5 -20 -3 8 15 16 10 20 37 32 30 9 6 14 13 33 33 36 34 29 30 24 22 20 20 31 30 28 30 34 28 28 16 17 2 6 26 30 29 22 12 23 23 28 9 19 -6 22
-20 -20 -20 -20 -20 -20 -19 16 35 37 35 31 31 21 23 27 31 29 33 33 32 32 27 22 22 12 12 21 27 26 29 19 12 10 8 18 26 31 29 30 37 37 32 31 29 29 6 24 16
-20 -20 -20 -20 -20 -20 -20 19 37 32 33 31 30 37 33 36 33 28 27 31 28 32 31 34 19 3 -19 -19 3 10 8 10 11 12 10 7 -11 -20 -19 -3 -2 -7 0 5 24 0 -1 -11 3

GFSSGP_prec_radar_096.txt.gz
Reflectivity
-20 -20 -20 -20 -20 -20 -20 -20 -20 -20 -20 -20 -20 -20 -20 -20 -20 -20 -20 -20 -20 -20 -20 -20 -20 -20 -20 -20 -20 -20 -20 -20 2 -20 -17 8 -4 -15 -20 -20 -20 1 -14 -4 19 6 6 -9 -20
-20 -20 -20 -20 -20 -20 -20 -20 -20 -20 -20 -20 -20 -20 -20 -20 -20 -20 -20 -20 -20 -20 -20 -20 -20 -20 -20 -20 -20 -20 -20 -20 -20 -18 -2 2 -2 -13 -20 -20 -15 -1 -3 14 -10 5 13 -20 -20
-20 -20 -20 -20 -20 -20 -20 -20 -20 -20 -20 -20 -20 -20 -20 -20 -20 -20 -20 -20 -20 -20 -20 -20 -20 -20 -20 -20 -20 -20 -20 -9 -20 -20 -16 -11 -12 -13 -20 -16 8 12 -20 -20 -20 -20 -20 -20 -20
-20 -20 -20 -20 -20 -20 -20 -20 -20 -20 -20 -20 -20 -20 -20 -20 -20 -20 -20 -20 -20 -20 -20 -20 -20 -20 -20 -20 -20 -20 -20 -19 -20 -20 -19 -20 1 -10 0 3 11 -20 -20 -20 -20 -20 -20 -20 -20
-20 -20 -20 -20 -20 -20 -20 -20 -20 -20 -20 -20 -20 -20 -20 -20 -20 -20 -20 -20 -20 -20 -20 -20 -20 -20 -20 -20 -20 -20 -20 -20 -16 -20 -20 19 -19 -7 18 -9 5 -20 -20 -20 -20 -20 -20 -20 -20
-20 -20 -20 -20 -20 -20 -20 -20 -20 -20 -20 -20 -20 -20 -20 -20 -20 -20 -20 -20 2 -20 -20 -20 -20 -20 -20 -20 -20 -16 -20 -20 -20 -20 -20 -15 -4 2 25 22 -12 -20 -20 -20 -9 -20 -20 -20 -20
-20 -20 -20 -20 -20 -20 -20 -20 -20 -20 -20 -20 -20 -20 -20 -20 -15 17 -5 15 -20 26 -9 -20 -20 -20 -20 -20 -20 -20 -20 8 -20 -9 -20 -20 -20 21 22 13 4 3 1 3 -7 -20 -20 -20 -20
-20 -20 -20 -20 -20 -20 -20 -20 -20 -20 -20 -20 -20 -20 -20 -20 -20 -19 -20 32 22 6 29 29 -14 -20 -20 -20 -20 -20 -20 -20 -20 -20 -20 -20 -2 12 9 -20 -20 17 13 -5 -12 -20 -20 -20 -20
-20 -20 -20 -20 -20 -20 -20 -20 -20 -20 -20 -20 -20 -20 -20 -20 -18 13 -20 -20 -19 25 27 -20 27 -7 -20 -20 -20 -20 -20 -20 -20 -20 -20 19 19 -8 -15 -20 -14 6 -12 3 -20 -20 -20 -20 -20
-20 -20 -20 -20 -20 -20 -20 -20 -20 -20 -20 -20 -20 -20 -20 -20 -20 -20 -2 -20 -20 -20 -20 -20 10 -10 -20 8 1 -20 -20 -20 -20 -20 -20 -20 20 -16 -20 -1 -20 12 15 3 -14 -20 -20 -20 -20
-20 -20 -20 -20 -20 -20 -20 -20 -20 -20 -20 -20 -20 -20 -20 -20 -20 -20 -20 -20 -20 -20 -20 28 35 8 -20 -20 -15 -20 -20 -20 -20 -20 -20 -20 17 -5 -20 -20 -19 2 10 -7 -18 -20 -20 -20 -20
-20 -20 -20 -20 -20 -20 -20 -20 -20 -20 -20 -20 -20 -20 -20 -20 -20 -20 -20 -20 -20 2 -18 -20 -7 31 -6 -11 -20 -20 -20 -20 -20 -20 -20 -11 19 5 -20 -19 3 11 -3 -20 -20 -20 -20 -20 -20
-20 -20 -20 -20 -20 -20 -20 -20 -20 -20 -20 -20 -20 -20 -20 -20 -20 -20 -20 -20 -20 -20 -20 -20 -20 -19 28 14 -20 -20 -20 -20 -8 17 6 -19 13 13 9 -15 8 1 -11 -20 -20 -20 -20 -20 -20
-20 -20 -20 -20 -20 -20 -20 -20 -20 -20 -20 -20 -20 -20 -20 -20 -20 -20 -20 -20 -20 -20 -20 -20 -7 -20 -18 -4 -20 -20 -20 -20 -20 -17 28 -6 -7 28 34 34 12 -7 -20 -20 -20 -20 -20 -20 -20
-20 -20 -20 -20 -20 -20 -20 -20 -20 -20 -20 -20 -20 -20 -20 -20 -20 -20 -20 -20 -20 -20 -20 -20 -20 -20 -20 -17 25 -16 -20 -20 -20 7 16 -3 -1 -2 21 20 21 -20 -20 -19 -20 -20 -20 -20 -20
-20 -20 -20 -20 -20 -20 -20 -20 -20 -20 -20 -20 -20 -20 -20 -20 -20 -20 -20 -20 -20 -20 -20 -20 -20 -20 -20 -20 -20 -20 -20 -20 -20 6 6 28 12 -9 21 27 31 27 19 -19 -20 -20 -20 -20 -20
-20 -20 -20 -20 -20 -20 -20 -20 -20 -20 -20 -20 -20 -20 -20 -20 -20 -20 -20 -20 -20 -20 -20 -20 -20 -20 -9 29 -12 -20 -20 -20 -20 -19 5 7 26 -11 -0 15 22 -8 -8 7 -20 -20 -20 -20 -20
-20 -20 -20 -20 -20 -20 -20 -20 -20 -20 -20 -20 -20 -20 -20 -20 -20 -20 -20 -20 -20 -20 -20 -20 -20 -20 -14 -11 7 -20 -20 -20 -20 -20 8 16 22 28 16 -1 9 -1 -20 -20 -20 -20 -20 -20 -20
-20 -20 -20 -20 -20 -20 -20 -20 -20 -20 -20 -20 -20 -20 -20 -20 -20 -20 -20 -20 -20 -20 -20 -20 -20 -20 -20 -20 -3 -20 -20 -20 13 -12 29 6 12 8 29 11 5 14 -12 -20 -17 -8 -20 -20 -20
-20 -20 -20 -20 -20 -20 -20 -20 -20 -20 -20 -20 -20 -20 -20 -20 -20 -20 -20 -20 -18 -20 -20 -20 -20 -20 -20 -20 -20 -20 -20 -20 -20 25 20 24 18 11 -11 -20 -3 -1 -20 1 -12 -12 0 -13 -20
-20 -20 -20 -20 -20 7 -14 -20 -20 -20 -20 -20 -20 -20 -20 -20 -20 -20 -20 -20 -20 -20 -20 -20 27 17 10 6 -12 -9 9 -20 21 29 28 21 23 20 -5 1 -6 2 -18 -19 -19 -20 -20 -20 -20
-20 -20 -20 -20 8 -14 -18 -20 -20 -20 -20 -20 -20 -20 -20 -20 -20 -20 7 -20 -20 -20 -20 -20 -20 -20 -20 -10 -20 -20 12 -1 20 -4 35 31 27 29 23 8 -11 -17 -12 -1 -13 -7 -14 -20 -20
-20 -20 -20 9 16 -3 -5 -1 -20 -20 -20 -20 -20 -20 -20 -20 -20 -20 15 -20 -20 -20 -20 -20 -20 -20 -20 7 -19 8 6 -20 10 11 32 32 32 30 18 20 29 29 28 23 16 31 30 15 13
-20 -20 -12 3 3 -20 -4 -20 -20 -20 -1 -13 -19 12 -20 19 21 -12 -20 -20 -3 -20 -20 -20 -20 -20 -20 4 18 20 -20 3 10 -6 27 32 32 35 23 24 35 36 29 20 29 9 9 26 12
-20 -13 -13 -20 -9 -20 22 -18 -20 -20 1 -16 -20 -12 -15 1 22 20 -20 -20 -20 -20 6 -20 -20 -20 -20 -20 7 5 -9 5 11 23 28 30 35 35 25 32 29 31 31 34 34 27 12 17 1
-20 30 17 5 8 -3 -9 -1 -1 6 12 16 -14 -20 -16 22 -15 -15 -20 -20 -20 -15 1 21 -16 -20 -20 -14 26 7 -1 -5 18 37 35 26 31 32 33 34 29 28 32 35 35 33 28 17 18
-3 9 12 4 17 -2 -19 17 16 1 -16 4 15 -20 -20 -2 1 -17 -2 16 -18 8 22 -5 -15 3 -16 2 22 9 9 21 22 31 33 22 27 31 34 32 32 26 33 32 31 30 32 29 25
-11 1 2 -0 -13 12 17 -6 1 5 15 9 20 17 7 8 20 24 33 18 24 11 17 -8 28 19 20 17 16 21 28 26 32 27 29 30 29 36 36 27 26 27 29 31 31 23 22 23 21
-20 -20 -20 -14 -20 -20 -13 14 31 30 32 32 29 33 32 33 38 38 34 37 37 24 35 32 35 32 33 22 25 29 31 35 31 29 23 15 17 20 31 32 32 32 33 31 27 24 31 28 27
-20 -20 -20 -20 -20 -20 -20 18 32 30 29 34 36 40 37 36 38 37 36 36 40 38 31 21 25 24 15 11 14 20 17 26 16 11 5 -4 -15 8 8 9 15 14 15 30 34 34 27 18 22

GFSSGP_prec_radar_099.txt.gz
Reflectivity
-20 -20 -20 -20 -20 -20 -20 -20 -20 -20 -20 -20 -20 -20 -20 -20 -20 -20 -20 -20 -20 -20 -20 -2 -18 -10 9 4 -20 -20 -20 -20 -20 -9 0 18 -19 -20 -20 -20 -20 -20 -9 13 14 5 19 -20 -20
-20 -20 -20 -20 -20 -20 -20 -20 -20 -20 -20 -20 -20 -20 -20 -20 -20 -20 -20 -20 -20 -20 -20 -20 -7 -20 -20 -20 2 -20 -20 -20 -15 -3 -13 4 -6 -14 -20 -20 -10 1 3 -5 4 -8 -16 -20 -20
-20 -20 -20 -20 -20 -20 -20 -20 -20 -20 -20 -20 -20 -20 -20 -20 -20 -20 -20 -20 -20 -20 -20 -20 -20 -20 -20 -20 -19 -20 -20 -20 -20 -8 -1 7 -3 -6 -20 -17 13 8 8 -20 -20 -17 -20 -20 -20
-20 -20 -20 -20 -20 -20 -20 -20 -20 -20 -20 -20 -20 -20 -20 -20 -20 -20 -20 -20 -20 -20 -20 -20 -20 -20 -20 -20 -20 -20 -20 -20 -20 -20 -20 -20 4 -16 -20 -19 -19 15 -20 -20 -20 -20 -20 -20 -20
-20 -20 -20 -20 -20 -20 -20 -20 -20 -20 -20 -20 -20 -20 -20 -20 -20 -20 -20 -20 -20 -20 -20 -20 -20 -20 -20 -20 -20 -20 -20 4 -18 -20 -20 -12 -4 4 2 -20 -15 -20 -20 -20 -20 -20 -20 -20 -20
-20 -20 -20 -20 -20 -20 -20 -20 -20 -20 -20 -20 -20 -20 -20 -20 -1 -20 3 5 -20 -20 -20 -20 -20 -20 -20 -20 -20 -20 -20 -20 1 -0 -20 -20 -18 -2 3 -20 -8 -20 -20 -20 -20 -20 -20 -20 -20
-20 -20 -20 -20 -20 -20 -20 -20 -20 -20 -20 -20 -20 -20 -20 -20 -20 -20 -20 -9 17 30 31 -20 -8 -20 -20 -20 -20 -20 -20 -20 -10 1 6 -20 -20 -20 -20 23 -20 -20 -20 -20 -20 -20 -20 -20 -20
-20 -20 -20 -20 -20 -20 -20 -20 -20 -20 -20 -20 -20 -20 -20 -20 -20 6 -19 -20 -20 -20 12 27 31 -20 27 24 -20 -20 -20 6 -20 -20 -20 -20 -20 -20 17 22 -20 -13 9 -2 -20 -20 -20 -20 -20
-20 -20 -20 -20 -20 -20 -20 -20 -20 -20 -20 -20 -20 -20 -20 -20 -20 -20 -5 -20 -4 -0 -20 -20 -20 -20 -18 -16 -20 -20 -20 -20 -20 -20 -20 -20 -20 -20 -20 -20 -20 1 -11 -3 -20 -20 -20 -20 -20
-20 -20 -20 -20 -20 -20 -20 -20 -20 -20 -20 -20 -20 -20 -20 -20 -20 -20 -20 -20 11 -20 -20 -20 -20 -20 -20 -20 -20 -11 -20 -20 -20 -20 -20 -20 -20 -20 -20 -16 -15 -16 1 -13 -20 -20 -20 -20 -20
-20 -20 -20 -20 -20 -20 -20 -20 -20 -20 -20 -20 -20 -20 -20 -20 -20 -20 -20 -20 -20 -20 -20 -20 31 19 21 -17 -20 -20 -20 -20 -20 -20 -20 -20 -2 -10 -20 -20 -7 -18 0 13 -10 -20 -20 -20 -20
-20 -20 -20 -20 -20 -20 -20 -20 -20 -20 -20 -20 -20 -20 -20 -20 -20 -20 -20 -20 -20 -20 -20 -20 -20 8 32 -6 5 -20 -20 -20 -20 -20 -20 -20 -20 21 -4 -16 -14 -20 10 11 1 -20 -20 -20 -20
-20 -20 -20 -20 -20 -20 -20 -20 -20 -20 -20 -20 -20 -20 -20 -20 -20 -20 -20 -20 -20 -20 -20 -20 -20 -20 -7 22 17 5 4 7 -20 -20 -20 -20 -20 -20 -20 11 3 -20 14 -4 7 -12 -20 -20 -20
-20 -20 -20 -20 -20 -20 -20 -20 -20 -20 -20 -20 -20 -20 -20 -20 -20 -20 -20 -20 -20 -20 -20 -20 -20 3 21 16 17 3 -8 -20 -20 -20 -20 -20 -20 -20 -20 15 25 -19 -20 10 -16 -15 -20 -20 -20
-20 -20 -20 -20 -20 -20 -20 -20 -20 -20 -20 -20 -20 -20 -20 -20 -20 -20 -20 -20 -20 -20 -20 -20 -20 -20 -18 -14 -9 -5 17 -20 -20 -20 -20 -20 -20 -20 -4 9 27 23 28 -7 -9 -20 -20 -20 -20
-20 -20 -20 -20 -20 -20 -20 -20 -20 -20 -20 -20 -20 -20 -20 -20 -20 -20 -20 -20 -20 -20 -20 -20 -20 -20 -20 -13 -16 -19 -20 -4 -20 -20 -20 -20 -20 -20 -20 21 14 32 34 27 8 -13 -20 -20 -20
-20 -20 -20 -20 -20 -20 -20 -20 -20 -20 -20 -20 -20 -20 -20 -20 -20 -20 -20 -20 -20 -20 -20 -20 -20 -20 -20 -20 -20 -20 -20 -20 -15 -20 -20 -20 -20 -12 -20 22 32 17 5 32 27 -5 -20 -20 -20
-20 -20 -20 -20 -20 -20 -20 -20 -20 -20 -20 -20 -20 -20 -20 -20 -20 -20 -20 -20 -20 -20 -20 -20 -20 -20 -20 -20 -20 -20 -20 -20 -20 -20 -20 -20 -20 -20 22 -5 -6 29 16 14 12 -3 -4 -20 -20
-20 -20 -20 -20 -20 -20 -20 -20 -20 -20 -20 -20 -20 -20 -20 -20 -20 -20 -20 -20 -20 -20 -20 -20 -20 -20 -20 -20 -20 -20 -14 -20 -20 -20 -20 -20 -20 -16 -20 -19 29 4 35 21 12 12 30 -11 10
-20 -20 -20 -20 -20 -20 -20 -20 -20 -20 -20 -20 -20 -20 -20 -20 -20 -20 -20 -20 -20 -20 -20 -20 -20 -6 -20 -20 -20 -20 -20 -20 -20 -20 -20 -20 -12 -16 -15 4 22 26 14 24 10 -16 -16 -20 -20
-20 -20 -20 -20 -20 -20 -20 -20 -20 -20 -20 -20 -20 -20 -20 -20 -20 -20 -20 -20 -20 -20 -20 -20 -20 -18 -14 5 20 -7 -20 -20 -20 -20 -20 -19 5 28 2 -13 23 21 18 -10 -19 3 -6 -20 -12
-20 -20 -20 -20 2 -20 -8 -15 -20 -20 -20 -20 -20 -20 -20 -20 -20 -20 -20 -20 -17 -20 16 -20 -20 -20 -20 -20 -20 -20 -20 -20 -20 -20 -20 -20 14 20 24 11 16 24 24 8 -6 13 -0 -11 -20
-20 -20 -20 -18 6 11 -20 -20 -20 -20 -19 -19 -20 -20 -20 -20 -20 -20 13 3 -19 -20 -18 -8 -20 -20 -20 -20 -20 7 -20 -20 -20 -20 -20 -16 3 8 25 30 30 25 18 4 0 -12 -20 -20 -7
-20 -20 -20 -15 3 -20 -20 -20 -20 -18 -0 6 16 -20 -15 6 -2 -1 -9 12 -19 -15 -20 -20 -20 -20 -20 -20 -20 -14 10 -8 -14 -20 -20 -20 -14 -0 15 30 31 33 27 12 -2 -3 -18 -15 28
-20 -20 -20 -20 -20 -20 -13 -20 -20 -15 -18 22 31 14 -4 20 14 18 5 7 7 -7 -12 -20 -20 -20 -20 -20 -20 -20 -5 -6 -4 -13 16 -4 -14 -13 25 27 33 31 27 29 23 -2 -3 17 -11
-20 -17 -3 -10 -20 -20 8 0 -16 -17 -9 16 17 3 -4 16 6 15 13 11 -1 -9 13 -20 -3 -20 -20 -20 -20 -10 -11 11 -2 13 -8 0 22 13 18 21 25 23 30 35 35 20 18 26 26
-20 -19 -14 6 -20 3 -8 13 -7 5 -1 19 12 18 15 8 14 -20 12 -13 -15 -19 18 -20 -20 -9 -19 -17 -17 -2 20 19 24 13 8 18 12 20 31 28 32 28 32 36 35 31 30 31 27
-20 -20 -12 -3 -9 -18 -20 -4 7 -8 -8 11 17 24 11 15 20 -13 -9 13 7 8 13 4 -6 16 22 5 -20 22 24 23 23 14 13 14 17 17 17 27 30 34 34 35 37 34 29 32 34
-20 -20 -20 -16 -20 -18 -19 5 28 22 26 15 22 34 33 28 23 20 12 20 21 4 -15 -7 20 1 31 13 21 29 20 24 20 23 23 30 28 23 23 26 34 33 33 30 30 32 33 37 31
-20 -20 -20 -20 -20 -20 -19 2 21 6 23 26 33 34 36 35 33 34 31 28 22 22 13 21 10 25 11 9 24 15 11 17 32 25 1 -10 -14 -18 12 25 31 30 29 30 31 31 29 29 34

GFSSGP_prec_radar_102.txt.gz
Reflectivity
-20 -20 -20 -20 -20 -20 -20 -20 -20 -20 -20 -20 -20 -20 -20 -20 -20 -20 -20 -20 -20 -20 -10 -20 -15 -4 -14 -20 -9 2 0 -17 -18 -17 -17 10 -20 -20 -20 -20 -20 -20 -20 -7 2 3 -8 -20 -20
-20 -20 -20 -20 -20 -20 -20 -20 -20 -20 -20 -20 -20 -20 -20 -20 -20 -20 -20 -20 -20 -20 -20 -20 -16 8 -20 -20 -13 5 -20 -1 -1 -15 1 12 -15 -20 -20 -15 -20 -17 7 -12 8 1 -20 -20 -20
-20 -20 -20 -20 -20 -20 -20 -20 -20 -20 -20 -20 -20 -20 -20 -20 -20 -20 -20 -20 -20 -20 -20 -20 -7 -17 -20 -18 5 -20 -20 -20 3 -1 -20 3 -15 -20 -20 -20 10 5 26 1 -18 -20 -20 -20 -20
-20 -20 -20 -20 -20 -20 -20 -20 -20 -20 -20 -20 -20 -20 -20 -20 -20 -20 -20 -20 -20 -20 -20 -20 -18 -20 -20 -20 -20 -20 -20 -20 -1 -7 0 -20 -20 -3 -20 4 -8 -20 12 -20 -20 -20 -20 -20 -20
-20 -20 -20 -20 -20 -20 -20 -20 -20 -20 -20 -20 -20 -20 -20 -20 -20 -20 -20 -20 -20 -20 -20 -20 -17 -20 -20 -20 -20 0 -2 -4 -17 -20 -20 -20 -14 -20 -20 -20 10 -20 -20 -20 -20 -20 -20 -20 -20
-20 -20 -20 -20 -20 -20 -20 -20 -20 -20 -20 -20 -20 -20 -20 -20 -20 -20 -20 -20 4 -9 -20 -20 2 -4 -20 -20 -20 -20 -10 -5 -20 -2 -20 -20 -20 11 -20 24 2 24 -20 -20 -20 -20 -20 -20 -20
-20 -20 -20 -20 -20 -20 -20 -20 -20 -20 -20 -20 -20 -20 -20 -20 -20 -20 -20 -20 25 1 -20 -20 -20 -10 -20 -20 -20 -20 -20 -20 -12 -20 -20 -20 -14 -9 -20 22 -20 -13 -20 -20 -20 -20 -20 -20 -20
-20 -20 -20 -20 -20 -20 -20 -20 -20 -20 -20 -20 -20 -20 -20 -20 -20 -20 -20 -20 -20 23 25 -20 -20 -20 -17 -20 -20 -20 -20 -20 -20 -20 -20 -20 -2 17 10 -20 20 -12 -20 -20 -20 -20 -20 -20 -20
-20 -20 -20 -20 -20 -20 -20 -20 -20 -20 -20 -20 -20 -20 -20 -20 -20 -20 -20 -20 -20 -20 21 -6 2 -20 -20 -20 -20 -20 -20 -20 -20 -20 -20 -20 -20 -20 -20 8 -14 -20 -20 -5 -20 -20 -20 -20 -20
-20 -20 -20 -20 -20 -20 -20 -20 -20 -20 -20 -20 -20 -20 -20 -20 -20 -20 -20 -20 -20 -20 -20 28 27 26 -20 -3 -20 -20 -20 -20 -20 -20 -20 -20 -20 -20 -20 -9 -20 -11 -12 -14 -20 -20 -20 -20 -20
-20 -20 -20 -20 -20 -20 -20 -20 -20 -20 -20 -20 -20 -20 -20 -20 -20 -20 -20 -20 -20 -20 -20 -20 -20 -16 24 27 -20 -5 -20 -20 -20 -20 -20 -20 -20 -20 -20 -20 -14 -19 -20 -20 -7 -17 -20 -20 -20
-20 -20 -20 -20 -20 -20 -20 -20 -20 -20 -20 -20 -20 -20 -20 -20 -20 -20 -20 -20 -20 -20 -20 -20 -20 24 -20 29 -20 1 -19 -20 -20 -20 -20 -20 4 -8 31 -20 -18 -20 -20 18 -16 -20 -20 -20 -20
-20 -20 -20 -20 -20 -20 -20 -20 -20 -20 -20 -20 -20 -20 -20 -20 -20 -20 -20 -20 -20 -20 -20 -20 -18 -20 -20 -20 30 25 2 4 -18 -20 -20 -20 -7 24 -20 24 24 -20 -20 -18 -18 -19 -20 -20 -20
-20 -20 -20 -20 -20 -20 -20 -20 -20 -20 -20 -20 -20 -20 -20 -20 -20 -20 -20 -20 -20 -20 -20 -20 -20 -7 -20 -20 -4 30 17 9 15 10 -20 -20 -20 -16 26 10 27 -0 9 -5 1 -20 -20 -20 -20
-20 -20 -20 -20 -20 -20 -20 -20 -20 -20 -20 -20 -20 -20 -20 -20 -20 -20 -20 -20 -20 -20 -20 -20 -20 -9 -20 -20 -18 7 33 22 15 -5 -20 -20 -20 -20 -20 -20 -20 25 -17 -5 -20 -17 -20 -20 -20
-20 -20 -20 -20 -20 -20 -20 -20 -20 -20 -20 -20 -20 -20 -20 -20 -20 -20 -20 -20 -20 -20 -20 -20 -20 -20 -9 -20 -20 -20 -18 -20 -18 -15 12 -20 -20 -20 -20 -20 -20 8 -20 -1 34 16 -18 -18 -20
-20 -20 -20 -20 -20 -20 -20 -20 -20 -20 -20 -20 -20 -20 -20 -20 -20 -20 -20 -20 -20 -20 -20 -20 -20 -20 -20 -20 -20 -20 3 -11 5 -20 -20 -20 -20 -20 -20 -20 12 22 6 14 10 42 25 14 -6
-20 -20 -20 -20 -20 -20 -20 -20 -20 -20 -20 -20 -20 -20 -20 -20 -20 -20 -20 -20 -20 -20 -20 -20 -20 -20 -20 -20 -20 -20 -20 -20 -12 -20 -20 -20 -20 -7 -17 -11 -10 20 24 26 2 26 23 28 28
-20 -20 -20 -20 -20 -20 -20 -20 -20 -20 -20 -20 -20 -20 -20 -20 -20 -20 -20 -20 -20 -20 -5 -9 -20 -20 -20 -20 -20 -20 -20 -20 -20 -20 -20 -20 -20 -20 -20 2 3 23 -20 -20 12 37 25 29 10
-20 -20 -20 -20 -20 -20 -20 -20 -20 -20 -20 -20 -20 -20 -20 -20 -20 -20 -20 -20 -20 -20 -20 -12 -20 -20 -20 -20 -20 -20 -20 -20 -20 -20 -20 -20 -20 -20 -20 -20 -16 24 21 6 -20 -16 10 32 26
-20 -20 -20 -20 -20 -20 -17 -20 -20 -20 -20 -20 -20 -20 -20 -20 -20 -20 -20 -20 -20 -20 -20 -20 -20 -20 -20 -20 -20 -20 -20 -20 -20 -20 -20 -20 -20 -20 -20 -14 15 -2 20 13 19 24 21 12 29
-20 -20 -20 -20 -17 -17 7 -16 -20 -20 -20 -20 -20 -20 -20 -20 -20 -20 -20 -20 -20 -20 -20 -20 -20 -20 -20 -20 -11 -20 -20 -20 -20 -20 -20 -20 -20 -20 -20 -20 -6 10 23 26 23 18 8 22 7
-20 -20 -20 -15 2 9 -20 -20 -20 -20 -20 -20 28 -16 -1 -19 24 9 -1 -5 18 25 -19 -20 -7 -20 -20 -20 -5 -20 -20 -20 -20 -20 -20 -20 -20 -20 -20 -20 -7 14 21 23 24 20 22 19 -17
-20 -20 -20 -13 3 -20 -20 -20 -18 -11 -1 -10 27 3 13 3 38 27 28 19 24 1 14 28 3 -1 -11 -19 2 -7 9 -0 -9 -20 -20 -20 -20 -20 -20 -20 -20 -10 7 21 23 24 30 20 20
-20 -18 -20 -20 -20 -20 -20 -20 -20 -4 -20 10 26 8 5 15 8 34 28 27 8 11 -7 -1 -15 -20 -20 -20 -19 -20 -20 -20 -20 -20 -17 -2 -3 -17 -20 -18 -20 -12 -12 3 35 30 33 26 21
-20 -4 -20 -17 -20 -20 -20 -20 -4 12 -3 10 18 14 8 13 18 25 6 18 1 6 9 -8 -20 -20 -20 -20 -20 -20 -20 -20 -16 7 9 9 -1 18 -5 -11 -5 5 9 18 20 37 29 25 24
-20 -9 -5 -2 -20 -20 -20 -20 -20 20 9 14 18 26 15 17 15 -12 7 3 16 16 1 5 16 -17 3 -20 -20 -20 -5 -5 9 20 13 28 -3 1 4 14 -11 24 33 27 24 31 30 29 30
-20 -20 -20 -20 -20 -20 -20 -20 -14 -13 15 24 25 32 27 25 23 15 -11 -6 -4 -3 -11 13 16 -14 -20 -19 -7 1 -7 17 7 19 27 25 20 22 25 11 9 17 26 28 33 35 36 31 24
-20 -20 -20 -14 -20 -20 -20 -20 9 18 12 24 23 25 34 33 31 23 18 0 8 -1 25 10 3 -1 12 26 30 7 11 11 22 22 24 26 22 19 16 16 30 30 19 27 33 25 23 30 38
-20 -20 -20 -20 -20 -20 -20 -20 -20 -2 4 7 22 28 30 30 29 24 23 28 24 16 -6 -4 17 15 28 13 15 21 23 26 17 24 24 -9 -14 -17 6 14 18 17 30 22 26 27 13 29 29

GFSSGP_prec_radar_105.txt.gz
Reflectivity
-20 -20 -20 -20 -20 -20 -20 -20 -20 -20 -20 -20 -20 -20 -20 -20 -20 -20 -20 -20 -20 -20 -20 -20 -20 -20 -20 -20 8 -1 -0 0 4 8 11 11 10 -20 -20 -20 -20 -20 -20 5 9 3 -20 -11 -15
-20 -20 -20 -20 -20 -20 -20 -20 -20 -20 -20 -20 -20 -20 -20 -20 -20 -20 -20 -20 -20 -8 4 -20 -20 -20 -20 -20 -20 -14 -0 -6 -16 -18 10 11 -7 -20 -20 -20 -20 -20 8 11 -8 -18 -20 -20 -20
-20 -20 -20 -20 -20 -20 -20 -20 -20 -20 -20 -20 -20 -20 -20 -20 -20 -20 -20 -20 -17 8 -18 -20 -20 -12 -20 -20 -20 -20 -15 1 -1 -13 -12 12 -20 -20 -5 -11 -20 -13 24 25 -18 -20 -20 -20 -20
-20 -20 -20 -20 -20 -20 -20 -20 -20 -20 -20 -20 -20 -20 -20 -20 -20 -20 -20 -20 2 12 -20 -20 -20 -5 -20 -20 -20 -20 -20 -20 -20 -2 -19 -20 -20 -8 5 4 -20 -19 22 24 -20 -20 -20 -20 -20
-20 -20 -20 -20 -20 -20 -20 -20 -20 -20 -20 -20 -20 -20 -20 -20 -20 -20 -20 5 -13 -17 -20 -20 8 2 -20 -20 -20 -20 9 -20 -20 -20 -20 -20 -20 14 -2 -20 -20 -20 23 -13 -20 -20 -20 -20 -20
-20 -20 -20 -20 -20 -20 -20 -20 -20 -20 -20 -20 -20 -20 -20 -20 -20 -20 -20 -7 -4 25 -13 -20 -17 -2 -20 -18 -1 -20 -20 -20 -20 -20 -20 -20 -20 -20 -20 -20 -8 -20 -19 10 -20 -20 -20 -20 -20
-20 -20 -20 -20 -20 -20 -20 -20 -20 -20 -20 -20 -20 -20 -20 -20 -20 -20 -20 -20 -15 -13 14 18 9 -20 -20 -20 -20 -20 -20 -20 8 -20 -20 -20 -20 -17 -20 -20 -20 -18 -11 -20 -20 -20 -20 -20 -20
-20 -20 -20 -20 -20 -20 -20 -20 -20 -20 -20 -20 -20 -20 -20 -20 -20 -20 -20 -20 -20 -20 -20 23 26 5 14 -20 -20 -20 -20 -20 -20 -20 -18 -20 -20 -20 -20 -20 28 26 26 -20 -20 -20 -20 -20 -20
-20 -20 -20 -20 -20 -20 -20 -20 -20 -20 -20 -20 -20 -20 -20 -20 -20 -20 -20 -20 -20 -20 -20 -20 -9 25 23 -20 -20 -6 -20 -20 -20 -20 -20 -18 -20 -20 -20 -20 -20 -20 10 -20 -20 -20 -20 -20 -20
-20 -20 -20 -20 -20 -20 -20 -20 -20 -20 -20 -20 -20 -20 -20 -20 -20 -20 -20 -20 -20 -20 -20 -20 -19 -9 23 -20 7 7 -20 -20 -20 -20 -20 -20 -20 -20 -20 -20 -20 -20 -2 -20 -20 -20 -20 -20 -20
-20 -20 -20 -20 -20 -20 -20 -20 -20 -20 -20 -20 -20 -20 -20 -20 -20 -20 -20 -20 -20 -20 -20 -20 -20 -20 -4 -20 -9 7 -20 -20 -20 -20 -20 -20 -20 -20 -20 -20 -20 -20 -20 -20 -20 -19 -20 -20 -20
-20 -20 -20 -20 -20 -20 -20 -20 -20 -20 -20 -20 -20 -20 -20 -20 -20 -20 -20 -20 -20 -20 -20 -20 -20 -20 -11 -19 -20 7 18 -20 -20 -20 -20 -20 -20 -20 -20 -20 -20 -20 -20 -20 -20 -20 -20 -20 -19
-20 -20 -20 -20 -20 -20 -20 -20 -20 -20 -20 -20 -20 -20 -20 -20 -20 -20 -20 -20 -20 -20 -20 -20 -20 -20 -2 -3 -20 22 -4 13 -20 -20 -20 -20 -20 -1 28 -2 25 -20 -20 -20 -20 -20 -15 -20 -20
-20 -20 -20 -20 -20 -20 -20 -20 -20 -20 -20 -20 -20 -20 -20 -20 -20 -20 -20 -20 -20 -20 -20 -20 -20 -20 -20 3 -9 -20 -12 6 3 4 -12 -20 -20 -20 -20 28 3 28 -20 -20 -20 -20 -20 -20 -20
-20 -20 -20 -20 -20 -20 -20 -20 -20 -20 -20 -20 -20 -20 -20 -20 -20 -20 -20 -20 -20 -20 -20 -20 -20 -20 -20 -4 4 -20 -20 34 35 25 10 -18 -13 -20 -20 -20 -20 -20 -20 16 21 20 -20 -18 12
-20 -20 -20 -20 -20 -20 -20 -20 -20 -20 -20 -20 -20 -20 -20 -20 -20 -20 -20 -20 -20 -20 -20 -20 -20 -20 -20 -20 -18 -14 32 27 22 29 9 1 -13 -16 -20 -20 -20 -20 -18 -20 -14 12 25 22 19
-20 -20 -20 -20 -20 -20 -20 -20 -20 -20 -20 -20 -20 -20 -20 -20 -20 -20 -20 -20 -20 -20 -20 -20 -20 -20 -20 -20 -2 -4 24 4 -6 2 32 6 -20 -20 -20 -20 -20 -20 -20 -20 -15 -0 2 19 28
-20 -20 -20 -20 -20 -20 -20 -20 -20 -20 -20 -20 -20 -20 -20 -20 -20 -20 -20 -20 -20 -20 -20 -20 -20 -20 -14 -20 -2 -7 -20 34 19 14 -15 18 -2 -20 -20 -6 -11 6 13 2 3 1 12 19 14
-20 -20 -20 -20 -20 -20 -20 -20 -20 -20 -20 -20 -20 -20 -20 -20 -20 -20 -20 -20 -20 -20 -20 -20 -20 -20 -20 -20 -17 12 -4 -20 -18 11 31 -20 -14 -20 -2 -20 9 -3 10 -8 -20 0 19 -14 30
-20 -20 -20 -20 -20 -20 -20 -20 -20 -20 -20 -20 -20 -20 -20 -20 -20 -20 -20 -20 -20 -20 -20 -20 -19 -20 -15 -20 -7 -4 -20 -20 -20 -20 -20 -20 10 -7 -9 -8 7 -4 -14 -20 -20 -20 -20 -20 -20
-20 -20 -20 -20 -20 -20 -20 -20 -20 -20 -20 -20 -20 -20 -20 -20 -20 -20 -20 -20 -20 -20 -20 -20 -20 -17 -18 5 6 -20 -20 -20 -20 -20 -20 -20 -20 -20 -20 -20 10 -15 -20 -20 -20 -20 -16 -20 -20
-20 -20 -20 -20 -20 -20 -20 -20 -20 -20 -20 -20 -20 -20 -20 -20 -20 -17 -19 -20 -20 -20 -20 -20 -12 -4 21 33 9 -16 -20 -20 -20 -20 -20 -20 -20 -20 -20 -20 -20 16 -19 -8 7 5 -12 5 -5
-20 -20 -20 -20 -0 0 -20 6 -20 -20 -20 -20 -19 -20 2 -4 -4 -19 12 -7 -0 -15 -17 4 -14 15 -4 -19 -17 -6 -6 -20 -9 -20 -20 -20 -20 -20 -20 -20 -20 -20 3 -19 5 17 12 21 22
-20 -20 -20 -9 -20 -20 -20 -20 -20 -19 -13 -20 -14 -20 -1 11 13 25 30 31 -20 14 19 20 -5 25 31 28 -11 6 9 -3 -20 -17 -16 -17 -20 -20 -20 -1 5 14 11 -4 -14 -20 6 12 -2
-20 -20 -20 -20 -20 -20 -20 -20 -20 -20 -20 -5 7 3 5 17 13 31 34 26 25 19 1 8 22 20 -3 13 7 15 14 1 7 -15 -3 12 12 3 5 4 -16 10 9 11 4 3 -20 6 -0
-20 -20 -10 -15 -20 -20 -20 -17 -20 -20 -8 -1 15 -7 21 17 28 19 21 11 6 11 23 26 22 24 23 20 14 12 -20 -18 -8 -17 -19 -12 17 -3 -3 -20 16 15 14 15 3 18 -1 6 -2
-20 -20 -0 -7 -20 -17 -20 -20 -20 -20 -16 -8 13 -5 24 17 16 22 -0 7 15 27 4 12 23 25 22 -20 -5 0 -19 4 -5 0 12 14 13 -6 24 14 0 -20 -1 -4 27 30 16 14 10
-20 -20 -20 -20 -20 -20 -20 -20 -20 -19 -6 -8 -6 20 23 29 32 29 18 8 4 4 15 5 -20 -20 -20 18 -15 -5 -20 -19 -5 9 12 -1 11 8 22 4 -8 22 19 20 16 6 14 17 36
-20 -20 -20 -20 -20 -20 -20 -20 -16 -4 -8 -11 -10 11 19 24 26 27 19 11 10 3 12 1 21 19 9 -13 -15 -19 8 -20 -20 -5 16 21 4 26 23 24 18 19 21 18 26 14 10 3 18
-20 -20 -20 -20 -20 -20 -20 -20 -20 -19 -19 -3 -20 -20 -9 7 14 23 28 27 25 21 21 25 6 3 11 7 8 33 5 2 -5 -14 16 21 27 -9 3 -5 -19 -13 -1 3 4 22 -13 4 16

GFSSGP_prec_radar_108.txt.gz
Reflectivity
-20 -20 -20 -20 -20 -20 -20 -20 -20 -20 -20 -20 -20 -20 -20 -20 -20 -20 -20 -20 -2 4 10 -20 11 -16 -20 -20 -20 -20 -20 -20 -20 -20 -20 0 8 -20 -20 -20 -20 -20 17 -20 -20 -20 -20 -10 -5
-20 -20 -20 -20 -20 -20 -20 -20 -20 -20 -20 -20 -20 -20 -20 -20 -20 -20 -14 -20 0 4 16 10 1 2 -20 -20 -20 -20 -20 -20 -17 -20 -20 -3 7 -20 -20 -20 -20 -20 28 13 7 -20 -20 -20 -20
-20 -20 -20 -20 -20 -20 -20 -20 -20 -20 -20 -20 -20 -20 -20 -20 -20 -20 -20 -20 8 11 15 17 8 -19 -5 -20 -20 -20 -10 -9 -11 -20 -20 -2 -13 -1 -20 -20 -20 -20 27 26 -20 -20 -20 -20 -20
-20 -20 -20 -20 -20 -20 -20 -20 -20 -20 -20 -20 -20 -20 -20 -20 -20 -20 -20 -20 12 14 16 -19 -20 -20 21 -20 13 -20 -1 1 3 3 1 -3 -20 -4 -3 -20 -20 -20 21 25 -20 -20 -20 -20 -20
-20 -20 -20 -20 -20 -20 -20 -20 -20 -20 -20 -20 -20 -20 -20 -20 -20 -20 -20 -20 4 14 15 12 -20 -17 2 -8 -20 2 -18 -20 -20 -8 -20 -20 -20 4 -10 -20 -20 -11 14 22 -20 -20 -20 -20 -20
-20 -20 -20 -20 -20 -20 -20 -20 -20 -20 -20 -20 -20 -20 -20 -20 -20 -20 -20 -20 -20 -11 17 15 -20 -20 -0 -18 -20 -20 -20 -20 -5 -20 -20 -20 -20 -20 24 -20 -20 -20 -20 28 -20 -20 -20 -20 -20
-20 -20 -20 -20 -20 -20 -20 -20 -20 -20 -20 -20 -20 -20 -20 -20 -20 -20 -20 -20 -20 3 3 15 10 -1 -11 -20 -11 8 -20 -20 -20 -5 11 15 -15 -20 -20 -20 -4 -20 24 8 -20 -20 -20 -20 -20
-20 -20 -20 -20 -20 -20 -20 -20 -20 -20 -20 -20 -20 -20 -20 -20 -20 -20 -20 -20 -20 -20 -20 2 14 -19 -15 -20 -20 -20 -20 -20 -20 -20 -20 -20 -16 -20 23 -20 28 -18 21 9 -20 -20 -20 -20 -20
-20 -20 -20 -20 -20 -20 -20 -20 -20 -20 -20 -20 -20 -20 -20 -20 -20 -20 -20 -20 -20 -20 -20 -20 -18 19 10 -20 -20 -20 -20 -20 -20 -20 -14 -15 -20 -20 4 -15 -20 -20 22 11 25 -20 -20 -20 -20
-20 -20 -20 -20 -20 -20 -20 -20 -20 -20 -20 -20 -20 -20 -20 -20 -20 -20 -20 -20 -20 -20 -20 -20 -20 -12 8 12 -13 -8 -20 -20 -20 -20 -20 -14 -20 -20 -20 -13 -20 1 -20 6 25 -20 -20 -20 -20
-20 -20 -20 -20 -20 -20 -20 -20 -20 -20 -20 -20 -20 -20 -20 -20 -20 -20 -20 -20 -20 -20 -20 -20 -20 -20 -20 18 19 16 -14 -20 -20 -20 1 -4 -20 8 2 3 -5 -13 -20 15 -16 -2 -20 -20 -20
-20 -20 -20 -20 -20 -20 -20 -20 -20 -20 -20 -20 -20 -20 -20 -20 -20 -20 -20 -20 -20 -20 -20 -20 -20 -20 -20 -7 22 21 20 -20 -20 -20 -20 -20 -11 6 -1 -20 8 5 2 16 23 17 -20 -20 -20
-20 -20 -20 -20 -20 -20 -20 -20 -20 -20 -20 -20 -20 -20 -20 -20 -20 -20 -20 -20 -20 -20 -20 -20 -20 -20 -20 -19 -1 9 -14 -20 -13 1 -16 -20 -20 -0 -6 -20 7 8 10 17 28 23 -12 -20 -20
-20 -20 -20 -20 -20 -20 -20 -20 -20 -20 -20 -20 -20 -20 -20 -20 -20 -20 -20 -20 -20 -20 -20 -20 -20 -20 -20 -20 -6 4 4 -20 -20 12 24 -6 3 7 4 11 1 -20 -20 -20 -16 -2 -20 -14 -19
-20 -20 -20 -20 -20 -20 -20 -20 -20 -20 -20 -20 -20 -20 -20 -20 -20 -20 -20 -20 -20 -20 -20 -20 -20 -20 -20 -20 -15 -3 2 -20 -20 -14 26 3 -12 18 -20 -20 -20 -20 1 -0 0 26 5 20 -1
-20 -20 -20 -20 -20 -20 -20 -20 -20 -20 -20 -20 -20 -20 -20 -20 -20 -20 -20 -20 -20 -20 -20 -20 -20 -20 -20 -20 -20 -0 4 25 -20 -12 -12 31 24 32 21 -20 -20 -18 -1 -1 4 -5 -15 20 9
-20 -20 -20 -20 -20 -20 -20 -20 -20 -20 -20 -20 -20 -20 -20 -20 -20 -20 -20 -20 -20 -20 -20 -20 -20 -20 -20 -20 -20 -1 15 4 -0 -20 -20 21 35 31 5 -19 -20 -15 7 13 19 15 10 -14 -2
-20 -20 -20 -20 -20 -20 -20 -20 -20 -20 -20 -20 -20 -20 -20 -20 -20 -20 -20 -20 -20 -20 -20 -20 -20 -20 -20 -20 -20 -5 12 27 -5 -20 -20 -15 27 27 5 -20 -20 -20 -19 2 14 20 -5 19 19
-20 -20 -20 -20 -20 -20 -20 -20 -20 -20 -20 -20 -20 -20 -20 -20 -20 -20 -20 -20 -20 -20 -20 -20 -20 -20 -20 -20 -20 10 3 -13 -13 23 -4 -20 25 36 36 8 -2 2 -13 0 -17 -18 22 12 16
-20 -20 -20 -20 -20 -20 -20 -20 -20 -20 -20 -20 -20 -20 -20 -20 -20 -20 -20 -20 -20 -20 -20 -20 -20 -20 -20 -20 -10 -12 -19 -6 9 -4 -2 -20 -20 17 13 15 14 8 2 6 6 9 8 12 16
-20 -20 -20 -20 -20 -20 -20 -20 -20 -20 -20 -20 -20 -18 -1 -19 -20 -8 -20 -20 -20 -20 -20 -20 -20 -20 -20 -5 -6 4 9 2 -7 -14 -19 -20 -20 -17 5 -19 5 4 5 -15 7 21 10 16 10
-20 -20 -20 -20 -20 -20 -20 -20 -20 -20 -20 -20 -20 -20 -17 -19 -20 0 -20 -3 10 -20 -20 -20 -20 -20 -20 7 20 9 6 -13 -11 -6 5 3 -4 -2 3 8 -7 -3 2 10 7 24 20 21 -20
-20 -20 -20 -20 1 3 -20 -0 -20 -20 -20 -20 -20 -6 4 -14 -9 -13 11 4 10 -20 -13 4 -16 -19 5 -2 -1 16 34 16 -6 14 26 5 4 0 -1 5 5 11 7 8 7 11 6 7 17
-20 -20 -20 -20 -20 -8 -20 -20 -20 -20 -18 -4 -20 -7 -13 -16 -20 -20 -16 -5 7 11 15 -10 -11 11 19 25 28 41 41 29 16 -13 4 -8 11 24 7 14 8 10 12 11 15 2 12 21 -17
-20 -19 -17 -15 -12 -20 -20 -11 -20 -20 -20 0 8 -16 -1 -4 -20 -9 -9 12 18 -4 0 8 5 -5 -20 29 44 35 28 12 18 -17 21 -20 -10 20 1 -20 -11 13 7 15 -0 14 4 21 12
-20 -13 -11 -4 -20 -20 -20 -20 -20 -20 -20 -4 1 -10 -20 -3 -20 -7 9 17 18 9 -20 17 -10 8 26 26 21 22 20 7 -20 -20 -20 -17 -12 -20 -20 -12 -17 -3 11 4 7 17 11 11 8
-20 -18 -20 -8 0 2 -20 -20 -20 -20 -20 -18 10 -20 -20 -10 -11 -1 13 -1 13 8 25 13 -8 -7 -20 -20 -20 -20 -20 -20 -20 -20 -20 -17 4 5 2 -15 -20 -4 8 0 -5 -20 -17 17 27
-20 -20 -5 6 -19 -20 -20 -20 -20 -20 -20 1 -10 -20 -20 7 2 -1 17 14 -8 -11 -7 10 8 -9 -2 3 -2 -4 -20 -0 -16 -20 -14 -5 4 6 3 5 -4 8 5 -5 13 -17 8 -7 -4
-20 -13 -20 -20 -20 -20 -20 -20 -20 -20 -20 -11 -4 -6 -20 8 -8 -2 8 -5 9 -9 -1 28 16 10 -11 -8 -8 5 14 7 0 -2 -14 -9 22 19 12 9 16 6 16 9 10 10 14 8 11
-20 -20 -20 -20 -20 -20 -20 -20 -20 -20 -20 -9 -20 -19 -20 -10 -13 7 16 14 18 21 7 29 -20 0 -1 4 -19 -2 5 3 11 -8 -8 -19 -10 19 26 14 16 18 27 30 -12 15 23 1 24

GFSSGP_prec_radar_111.txt.gz
Reflectivity
-20 -20 -20 -20 -20 -20 -20 -20 -20 -20 -20 -20 -20 -20 -20 -20 -20 -20 -20 -20 -20 1 3 -16 -16 2 -20 -20 -20 -20 -20 -20 -9 -20 -20 -4 7 -15 -20 -20 -20 -20 -13 -20 -20 -19 -9 -20 -15
-20 -20 -20 -20 -20 -20 -20 -20 -20 -20 -20 -20 -20 -20 -20 -20 -20 -20 -20 -20 -20 -1 15 -10 -11 -20 -1 -20 -20 -20 -20 -20 -20 -13 -20 -20 -8 -14 -20 -20 -20 -20 8 -4 -19 -8 -20 -20 -20
-20 -20 -20 -20 -20 -20 -20 -20 -20 -20 -20 -20 -20 -20 -20 -20 -20 -20 -20 -20 -20 -9 13 12 5 -20 -7 -20 -20 -20 -14 -16 1 3 -20 -20 -7 2 -20 -20 -20 -20 -10 19 -2 -20 -20 -20 -20
-20 -20 -20 -20 -20 -20 -20 -20 -20 -20 -20 -20 -20 -20 -20 -20 -20 -20 -20 -20 -20 -20 30 13 -19 -20 -20 29 13 -20 -20 -20 -20 -20 -20 -20 -20 -20 -20 -20 -20 -20 -20 24 -20 -20 -20 -20 -20
-20 -20 -20 -20 -20 -20 -20 -20 -20 -20 -20 -20 -20 -20 -20 -20 -20 -20 -20 -20 -20 -20 -6 -6 -20 -20 -20 -20 -8 -20 -20 -20 -20 -20 -20 -20 -17 -20 -20 9 -20 -20 22 4 -2 -20 -20 -20 -20
-20 -20 -20 -20 -20 -20 -20 -20 -20 -20 -20 -20 -20 -20 -20 -20 -20 -20 -20 -20 -20 -20 -20 12 -7 -20 -20 -20 -20 -20 -20 4 -20 -20 -20 -20 -10 -20 -20 -20 -10 -20 26 27 15 -20 -20 -20 -20
-20 -20 -20 -20 -20 -20 -20 -20 -20 -20 -20 -20 -20 -20 -20 -20 -20 -20 -20 -20 -20 -20 -20 -19 8 9 -20 -20 -20 -20 -20 -20 -20 -20 -9 -20 -20 -13 -20 -20 1 7 -20 -20 23 20 -20 -20 -20
-20 -20 -20 -20 -20 -20 -20 -20 -20 -20 -20 -20 -20 -20 -20 -20 -20 -20 -20 -20 -20 -20 -20 -20 -20 -20 8 -17 -20 -20 -20 -20 -20 -20 -20 -20 -20 -20 -20 -20 -20 -20 24 23 21 27 -20 -20 -20
-20 -20 -20 -20 -20 -20 -20 -20 -20 -20 -20 -20 -20 -20 -20 -20 -20 -20 -20 -20 -20 -20 -20 -20 -20 -20 -20 -13 6 -20 -20 -20 -20 -20 -20 -20 -20 -20 -20 -20 -20 -20 -0 -5 25 25 -20 -20 -20
-20 -20 -20 -20 -20 -20 -20 -20 -20 -20 -20 -20 -20 -20 -20 -20 -20 -20 -20 -20 -20 -20 -20 -20 -20 -20 -20 -8 -0 -12 -20 -20 -20 -20 -20 -20 -20 -20 -20 -20 -20 -20 4 -2 21 25 21 -20 -20
-20 -20 -20 -20 -20 -20 -20 -20 -20 -20 -20 -20 -20 -20 -20 -20 -20 -20 -20 -20 -20 -20 -20 -20 -20 -20 -20 -20 -20 13 6 5 -20 -20 -20 -20 -20 -20 -20 -20 -20 9 -20 24 -14 -12 -11 -20 -20
-20 -20 -20 -20 -20 -20 -20 -20 -20 -20 -20 -20 -20 -20 -20 -20 -20 -20 -20 -20 -20 -20 -20 -20 -20 -20 -20 -20 -20 2 20 21 3 -20 -20 -20 -20 -20 -8 5 -20 -16 -5 13 19 16 -20 -20 -20
-20 -20 -20 -20 -20 -20 -20 -20 -20 -20 -20 -20 -20 -20 -20 -20 -20 -20 -20 -20 -20 -20 -20 -20 -20 -20 -20 -20 -20 -17 4 1 22 -14 -20 -20 -20 -20 -8 -20 -20 15 -7 18 9 -2 19 -20 -20
-20 -20 -20 -20 -20 -20 -20 -20 -20 -20 -20 -20 -20 -20 -20 -20 -20 -20 -20 -20 -20 -20 -20 -20 -20 -20 -20 -20 -20 -17 2 -20 -17 -20 -20 -20 -12 12 4 16 16 14 21 21 22 5 17 -1 -20
-20 -20 -20 -20 -20 -20 -20 -20 -20 -20 -20 -20 -20 -20 -20 -20 -20 -20 -20 -20 -20 -20 -20 -20 -20 -20 -20 -20 -20 -20 -7 1 2 -20 -20 -20 -20 -2 10 22 19 18 23 24 25 26 23 28 12
-20 -20 -20 -20 -20 -20 -20 -20 -20 -20 -20 -20 -20 -20 -20 -20 -20 -20 -20 -20 -20 -20 -20 -20 -20 -20 -20 -20 -20 -20 1 7 5 -9 -20 -20 -16 -18 -20 1 23 28 -8 10 -20 -17 19 27 7
-20 -20 -20 -20 -20 -20 -20 -20 -20 -20 -20 -20 -20 -20 -20 -20 -20 -20 -20 -20 -20 -20 -20 -20 -20 -20 -20 -20 -20 -20 -1 -10 25 -7 -20 -1 -20 -20 12 -4 32 27 5 28 19 26 10 19 21
-20 -20 -20 -20 -20 -20 -20 -20 -20 -20 -20 -20 -20 -20 -20 -20 -20 -20 -20 -20 -20 -20 -20 -20 -20 -20 -20 -20 -20 -20 25 16 25 -20 -20 -20 -20 -1 8 6 30 34 14 9 -5 25 18 13 20
-20 -20 -20 -20 -20 -20 -20 -20 -20 -20 -20 -20 -20 -20 -20 -20 -20 -20 -20 -20 -20 -20 -20 -20 -20 -20 -20 -20 -20 -20 -17 -12 -8 24 -20 -20 -20 -20 -20 -20 5 33 29 1 -12 9 14 12 24
-20 -20 -20 -20 -20 -20 -20 -20 -20 -20 -20 -20 -20 -20 -20 -20 -20 -20 -20 -20 -20 -20 -20 -20 -20 -20 -20 -20 -20 -20 -2 3 13 27 -19 -20 -20 -20 -20 -20 -20 4 14 27 2 -19 9 -12 5
-20 -20 -20 -20 -20 -20 -20 -20 -20 -20 -20 -20 -20 -20 -20 -20 -20 -20 -20 -20 -20 -11 6 -20 -20 -20 -20 -20 -20 7 -20 -10 19 27 9 -9 9 -19 2 -20 -20 -20 23 8 11 16 4 9 13
-20 -20 -20 -20 -20 -20 -20 -20 -20 -20 -20 -20 -20 -20 -20 -20 -20 -20 -20 -20 3 -6 7 5 -20 -20 -20 -20 -20 -20 -13 7 -6 -19 10 2 -9 12 22 3 5 7 -19 13 12 9 2 8 25
-20 -20 -20 -20 -20 -10 -20 -20 -20 -20 -20 -20 -20 -20 -20 -20 -20 -18 -0 -20 -20 -19 -1 5 13 4 -20 -20 14 27 32 31 5 33 9 6 4 21 25 15 25 20 29 24 15 4 8 9 -15
-20 -20 -20 -18 -20 -20 -20 -20 -20 -20 -20 -20 -20 -12 -19 -4 -20 -19 -20 -20 -19 -19 4 -8 -16 -10 -20 -18 -20 16 28 28 33 38 33 27 28 26 -10 10 7 11 1 11 21 11 10 25 22
-20 -20 -15 -9 -20 -20 -20 -20 -20 -20 -20 -20 -19 2 -20 -7 -20 -19 -18 -20 -20 6 -3 5 8 13 11 12 27 28 25 34 43 43 43 25 -10 -20 7 -5 4 -5 -3 -1 2 5 -9 23 8
-20 -20 -20 -20 -20 -18 -20 -20 -20 -20 -20 -20 -20 -20 -15 -18 -16 -3 -16 -10 -14 -8 24 -1 25 17 -4 26 28 36 30 24 34 38 5 -19 -20 -20 -10 -7 -3 -13 -20 -20 12 5 14 7 -3
-20 -16 -20 -17 -8 -6 -20 -20 -20 -20 -20 -20 -20 -12 -3 -20 5 -1 -20 2 -20 3 -0 -9 -3 19 2 25 26 29 28 28 27 18 -1 -20 -19 -12 8 -6 13 3 -20 -7 14 -12 22 10 12
-20 -20 -20 -9 -15 -20 -20 -20 -20 -20 -20 -20 -20 -11 -20 -1 -12 -12 -5 -20 -17 -20 -20 22 26 -3 -20 -20 -20 -20 -20 -20 -20 -20 -20 -20 -20 -15 2 1 -17 -7 -7 -17 10 11 -20 6 21
-20 -20 -20 -20 -20 -16 -20 -20 -20 -20 -20 -20 -20 -18 -20 -8 -20 -20 -20 -20 -20 -19 -2 -9 25 20 26 -10 12 -9 5 4 5 -6 -20 -18 11 12 10 18 -3 -12 -13 9 4 -9 -16 6 -20
-20 -20 -20 -20 -20 -20 -20 -20 -20 -20 -20 -20 -20 -20 -20 -20 -20 -20 -20 -20 -12 -11 -6 -2 -20 -14 -4 -13 -19 -9 -19 -19 -20 -19 -10 -12 -20 -20 -19 -15 -8 -11 23 -9 16 13 24 8 11

GFSSGP_prec_radar_114.txt.gz
Reflectivity
-20 -20 -20 -20 -20 -20 -20 -20 -20 -20 -20 -20 -20 -20 -20 -20 -20 -20 -20 -20 -20 -12 6 -1 -20 -20 -20 -20 -20 -20 -20 -20 -20 -17 -17 -4 7 -15 -20 -20 -20 -20 -20 -20 -20 25 3 -20 -19
-20 -20 -20 -20 -20 -20 -20 -20 -20 -20 -20 -20 -20 -20 -20 -20 -20 -20 -20 -20 -20 3 15 -20 -13 5 -20 -20 -20 -20 -20 -20 -20 -20 -18 -20 -2 -10 -20 -20 -20 -20 18 0 -20 12 6 -20 -20
-20 -20 -20 -20 -20 -20 -20 -20 -20 -20 -20 -20 -20 -20 -20 -20 -20 -20 -20 -20 -20 8 9 8 10 -20 -20 -20 -20 -20 -20 -20 -20 5 -20 -20 -20 -20 -20 -20 -20 -20 2 -1 -0 -20 -20 -20 -20
-20 -20 -20 -20 -20 -20 -20 -20 -20 -20 -20 -20 -20 -20 -20 -20 -20 -20 -20 -20 -20 -15 -19 -20 -5 14 -20 -20 -20 -20 -20 -20 -19 4 5 -20 -20 17 -20 -20 -20 -20 -20 -20 -19 -20 -20 -20 -20
-20 -20 -20 -20 -20 -20 -20 -20 -20 -20 -20 -20 -20 -20 -20 -20 -20 -20 -20 -20 -20 -7 -12 5 -12 -20 -20 -20 -20 -20 -20 -20 -20 -20 -20 -20 -20 33 16 -20 -20 -20 -20 -9 28 -20 -20 -20 -20
-20 -20 -20 -20 -20 -20 -20 -20 -20 -20 -20 -20 -20 -20 -20 -20 -20 -20 -20 -20 -20 -20 -14 -16 -8 3 -20 -20 -20 -20 -20 7 -20 -20 -20 -20 -20 -20 -20 28 -9 -20 5 7 -6 -14 -20 -20 -20
-20 -20 -20 -20 -20 -20 -20 -20 -20 -20 -20 -20 -20 -20 -20 -20 -20 -20 -20 -20 -20 -20 -20 -20 -1 -5 -20 -20 -20 -20 -20 -20 -12 -20 -20 -20 -20 -20 -20 -20 -20 13 -20 23 18 -11 -20 -20 -20
-20 -20 -20 -20 -20 -20 -20 -20 -20 -20 -20 -20 -20 -20 -20 -20 -20 -20 -20 -20 -20 -20 -20 -20 -20 -20 -14 -18 8 -19 -20 -20 -20 -20 -20 -20 -20 -20 -20 -20 -20 -20 -20 -20 3 21 25 -20 -20
-20 -20 -20 -20 -20 -20 -20 -20 -20 -20 -20 -20 -20 -20 -20 -20 -20 -20 -20 -20 -20 -20 -20 -20 -20 -20 -20 -19 -15 -18 -20 -20 -20 -20 -20 -20 -20 -20 -20 -20 -20 -20 -20 -20 -8 21 22 -20 -20
-20 -20 -20 -20 -20 -20 -20 -20 -20 -20 -20 -20 -20 -20 -20 -20 -20 -20 -20 -20 -20 -20 -20 -20 -20 -20 -20 -20 -20 -20 -20 -20 -20 -20 -20 -20 -20 -20 -20 -20 -20 -20 -20 -20 -20 20 -5 -20 -20
-20 -20 -20 -20 -20 -20 -20 -20 -20 -20 -20 -20 -20 -20 -20 -20 -20 -20 -20 -20 -20 -20 -20 -20 -20 -20 -20 -20 -20 -20 -17 -18 -0 -20 -20 -20 -20 -20 -20 -20 -6 -20 -20 -20 -20 -10 -8 -20 -20
-20 -20 -20 -20 -20 -20 -20 -20 -20 -20 -20 -20 -20 -20 -20 -20 -20 -20 -20 -20 -20 -20 -20 -20 -20 -20 -20 -20 -20 -20 -20 -2 -19 -20 -20 -20 -20 -20 -20 -20 6 -19 -20 -20 -20 -20 -20 -20 -20
-20 -20 -20 -20 -20 -20 -20 -20 -20 -20 -20 -20 -20 -20 -20 -20 -20 -20 -20 -20 -20 -20 -20 -20 -20 -20 -20 -20 -20 -20 -20 1 -12 -20 -20 -20 -20 -20 -20 -20 -20 12 5 -20 -20 -20 -20 -3 -20
-20 -20 -20 -20 -20 -20 -20 -20 -20 -20 -20 -20 -20 -20 -20 -20 -20 -20 -20 -20 -20 -20 -20 -20 -20 -20 -20 -20 -20 -20 -20 -20 8 -20 -17 -20 -20 -20 -20 -20 -20 -16 -20 22 -20 -20 -14 16 26
-20 -20 -20 -20 -20 -20 -20 -20 -20 -20 -20 -20 -20 -20 -20 -20 -20 -20 -20 -20 -20 -20 -20 -20 -20 -20 -20 -20 -20 -20 -20 -20 6 -5 20 18 -18 12 -20 -20 -20 13 24 26 4 18 24 7 19
-20 -20 -20 -20 -20 -20 -20 -20 -20 -20 -20 -20 -20 -20 -20 -20 -20 -20 -20 -20 -20 -20 -20 -20 -20 -20 -20 -20 -20 -20 -20 -20 -20 -4 16 -20 -20 -3 -20 -20 1 -20 29 26 22 29 27 26 26
-20 -20 -20 -20 -20 -20 -20 -20 -20 -20 -20 -20 -20 -20 -20 -20 -20 -20 -20 -20 -20 -20 -20 -20 -20 -20 -20 -20 -20 -20 -20 -20 -20 -20 -20 18 5 -20 -20 -20 -20 -5 0 -20 6 27 28 28 26
-20 -20 -20 -20 -20 -20 -20 -20 -20 -20 -20 -20 -20 -20 -20 -20 -20 -20 -20 -20 -20 -20 -20 -20 -20 -20 -20 -20 -20 -20 -20 -20 10 -20 -20 23 6 -20 -8 14 -5 -20 -20 8 -12 32 26 25 21
-20 -20 -20 -20 -20 -20 -20 -20 -20 -20 -20 -20 -20 -20 -20 -20 -20 -20 -20 -20 -20 -20 -20 -20 -20 -20 -20 -20 -20 -20 -20 -20 -20 14 26 -20 -20 -20 -20 -20 -20 -20 1 3 8 16 32 15 20
-20 -20 -20 -20 -20 -20 -20 -20 -20 -20 -20 -20 -20 -20 -20 -20 -20 -20 -20 -20 -20 -20 -20 -20 -20 -20 -20 -20 -20 -20 -20 -20 -20 -20 -20 31 23 -20 -17 -20 -20 -20 -2 6 -7 -20 24 20 27
-20 -20 -20 -20 -20 -20 -20 -20 -20 -20 -20 -20 -20 -20 -20 -20 -20 -20 -20 -20 -20 -20 -20 -20 -20 -20 -20 -20 -20 -20 -20 -20 -20 -20 -20 -15 5 30 6 25 0 -20 -20 -20 -20 -20 -20 6 19
-20 -20 -20 -20 -20 -20 -20 -20 -20 -20 -20 -20 -20 -20 -20 -20 -20 -20 -20 -20 -20 -20 -20 -20 -15 5 -20 -20 -20 -20 -20 -20 -0 17 -6 -20 -20 -3 33 46 23 -18 -9 -20 -20 -20 -13 31 20
-20 -20 -20 -20 -20 -20 -20 -20 -20 -20 -20 -20 -20 -20 -20 -20 -20 -20 -20 -20 -20 -20 -20 -20 -20 -20 -20 -20 30 -0 -20 -20 -20 -20 -20 -17 32 32 27 2 8 -20 -20 -19 -20 -18 27 22 31
-20 -20 -20 -20 -20 -20 -20 -20 -20 -20 -20 -20 -20 -20 -20 -20 -20 -20 -20 -20 -20 -20 -20 -20 -20 -20 -20 -7 -20 -20 -20 25 31 10 -19 29 32 30 40 36 27 26 -3 -10 -20 -20 -10 -1 9
-20 -20 -20 -20 -20 -20 -20 -20 -20 -20 -20 -20 -20 -20 -20 -20 -20 -20 -20 -20 -16 -18 -20 -20 -20 -19 9 17 -20 -17 -20 3 14 15 10 34 39 44 45 35 19 -10 -20 -3 -7 -13 3 15 -5
-20 -20 -20 -20 -20 -20 -20 -20 -20 -20 -20 -20 -20 -20 -20 -20 -20 -9 -20 -13 8 -11 -20 -20 4 -20 -14 24 23 26 15 34 32 3 13 29 42 38 37 21 -14 -20 -19 -15 -20 -20 -16 -17 -6
-20 -20 -20 -20 -20 -18 -20 -20 -20 -20 -20 -20 -20 -20 -20 -20 -20 -20 -20 -19 -0 -20 -20 -20 2 7 16 7 6 -2 11 18 12 -3 18 32 36 12 17 -4 -20 -20 -20 4 -14 -20 -1 -0 13
-20 -20 -20 -18 -20 -20 -20 -20 -20 -20 -20 -20 -20 -20 -20 -20 -20 -20 -20 -20 -20 -16 -20 -17 -11 5 17 -15 -6 -13 15 3 3 -6 7 8 -2 -5 -20 -20 -20 -17 1 -18 -20 -20 -16 -20 15
-20 -20 -20 -20 -20 -20 -20 -20 -20 -20 -20 -20 -20 -20 -20 -20 -20 -20 -20 -20 -20 -20 -19 2 -1 -11 14 11 10 -2 5 0 -15 -20 -20 -20 -20 -20 -20 -20 -17 -1 -4 11 11 9 3 10 11
-20 -20 -20 -20 -20 -20 -20 -20 -20 -20 -20 -20 -20 -20 -20 -20 -20 -20 -20 -20 -20 -20 -20 -14 -6 -12 -8 -18 -19 -4 4 -5 -13 -12 -20 -20 -20 -20 -20 -20 -20 -20 -19 -20 -19 -19 -11 11 -4

GFSSGP_prec_radar_117.txt.gz
Reflectivity
-20 -20 -20 -20 -20 -20 -20 -20 -20 -20 -20 -20 -20 -20 -20 -20 -20 -20 -20 -20 -20 -5 14 17 7 -20 -20 -20 -20 -20 -20 -20 -20 -20 -20 -20 9 -12 -20 -20 -20 -20 -20 -20 -20 12 19 -20 -9
-20 -20 -20 -20 -20 -20 -20 -20 -20 -20 -20 -20 -20 -20 -20 -20 -20 -20 -20 -20 -20 7 -11 7 18 -10 -20 -20 -20 -20 -20 -20 -20 -20 -20 3 -20 -19 -20 -20 -20 -20 -20 -14 -20 17 -20 -20 -20
-20 -20 -20 -20 -20 -20 -20 -20 -20 -20 -20 -20 -20 -20 -20 -20 -20 -20 -20 -20 -20 -15 -10 -20 7 0 -20 -20 -20 -20 -20 -20 -20 -20 -20 -20 -20 -20 -20 -20 -20 -20 -13 -20 -20 -18 -20 -20 -20
-20 -20 -20 -20 -20 -20 -20 -20 -20 -20 -20 -20 -20 -20 -20 -20 -20 -20 -20 -20 -20 -17 -19 -20 -20 -20 20 -20 -20 -20 -20 -20 -20 10 6 -20 -20 -20 12 -20 -20 -20 -20 -20 -20 -20 -20 -20 -20
-20 -20 -20 -20 -20 -20 -20 -20 -20 -20 -20 -20 -20 -20 -20 -20 -20 -20 -20 -20 -20 -9 -20 -20 -20 -20 5 -20 -20 -20 -20 -20 -20 -20 -20 -20 -20 -20 -20 -20 -20 -20 -20 -20 24 -20 -20 -20 -20
-20 -20 -20 -20 -20 -20 -20 -20 -20 -20 -20 -20 -20 -20 -20 -20 -20 -20 -20 -20 -20 -20 -12 6 8 -20 -20 -18 -20 -4 -20 -20 -20 -20 -20 -20 -20 -20 -20 -20 -20 -20 -20 -20 24 -17 -20 -20 -20
-20 -20 -20 -20 -20 -20 -20 -20 -20 -20 -20 -20 -20 -20 -20 -20 -20 -20 -20 -20 -20 -20 -20 -16 1 -5 -14 -20 -20 -20 -20 -8 -20 -20 -20 -20 -20 -20 -20 -20 -20 -20 -20 -20 -20 24 6 -20 -20
-20 -20 -20 -20 -20 -20 -20 -20 -20 -20 -20 -20 -20 -20 -20 -20 -20 -20 -20 -20 -20 -20 -20 -20 -20 -20 -19 -20 -14 -20 -20 -20 -20 10 33 -20 -20 -20 -20 -20 -20 -20 -20 -20 -20 -20 -15 -20 -20
-20 -20 -20 -20 -20 -20 -20 -20 -20 -20 -20 -20 -20 -20 -20 -20 -20 -20 -20 -20 -20 -20 -20 -20 -20 -20 -20 -20 -20 -20 -20 -20 -20 -20 -20 -20 -20 -20 -20 -20 -20 -20 -20 -20 -20 16 -20 -20 -20
-20 -20 -20 -20 -20 -20 -20 -20 -20 -20 -20 -20 -20 -20 -20 -20 -20 -20 -20 -20 -20 -20 -20 -20 -20 -20 -20 -20 -20 -20 -20 -20 -20 -20 -20 -20 -20 -20 -20 -20 -20 -20 -20 -20 -20 -20 -20 -20 -20
-20 -20 -20 -20 -20 -20 -20 -20 -20 -20 -20 -20 -20 -20 -20 -20 -20 -20 -20 -20 -20 -20 -20 -20 -20 -20 -20 -20 -20 -20 -20 -20 -20 -20 -20 -20 -20 -20 -20 -20 -20 -8 -20 -7 -20 -13 -20 -20 -20
-20 -20 -20 -20 -20 -20 -20 -20 -20 -20 -20 -20 -20 -20 -20 -20 -20 -20 -20 -20 -20 -20 -20 -20 -20 -20 -20 -20 -20 -20 -20 -20 2 6 -20 -20 -20 -20 -20 -20 -20 -20 -20 4 -20 -20 -20 -20 -20
-20 -20 -20 -20 -20 -20 -20 -20 -20 -20 -20 -20 -20 -20 -20 -20 -20 -20 -20 -20 -20 -20 -20 -20 -20 -20 -20 -20 -20 -20 -20 -20 -20 -11 -20 10 -11 -20 -20 -20 -20 -20 -20 -20 -20 -20 -20 -20 -20
-20 -20 -20 -20 -20 -20 -20 -20 -20 -20 -20 -20 -20 -20 -20 -20 -20 -20 -20 -20 -20 -20 -20 -20 -20 -20 -20 -20 -20 -20 -20 -20 -20 -20 -20 -18 19 -20 -8 -20 -20 -20 -20 -20 -20 12 -20 -20 -20
-20 -20 -20 -20 -20 -20 -20 -20 -20 -20 -20 -20 -20 -20 -20 -20 -20 -20 -20 -20 -20 -20 -20 -20 -20 -20 -20 -20 -20 -20 -20 -20 -20 -20 -20 -20 -20 -20 -20 16 5 -20 -20 -10 24 22 28 -20 6
-20 -20 -20 -20 -20 -20 -20 -20 -20 -20 -20 -20 -20 -20 -20 -20 -20 -20 -20 -20 -20 -20 -20 -20 -20 -20 -20 -20 -20 -20 -20 -20 -20 -20 -20 -20 -17 -13 27 14 -4 -11 -20 -20 -20 -20 -7 27 25
-20 -20 -20 -20 -20 -20 -20 -20 -20 -20 -20 -20 -20 -20 -20 -20 -20 -20 -20 -20 -20 -20 -20 -20 -20 -20 -20 -20 -20 -20 -20 -20 -20 -20 -20 -20 -16 -2 2 -20 23 21 1 -20 30 -20 -20 6 16
-20 -20 -20 -20 -20 -20 -20 -20 -20 -20 -20 -20 -20 -20 -20 -20 -20 -20 -20 -20 -20 -20 -20 -20 -20 -20 -20 -20 -20 -20 -20 -20 -20 -20 -20 -20 -20 -14 26 -20 -13 21 9 14 -3 -20 -20 -20 3
-20 -20 -20 -20 -20 -20 -20 -20 -20 -20 -20 -20 -20 -20 -20 -20 -20 -20 -20 -20 -20 -20 -20 -20 -20 -20 -20 -20 -20 -20 -20 -20 -20 -20 -20 -20 -20 -20 -20 19 1 -20 -20 24 22 -20 -20 -20 -20
-20 -20 -20 -20 -20 -20 -20 -20 -20 -20 -20 -20 -20 -20 -20 -20 -20 -20 -20 -20 -20 -20 -20 -20 -20 -20 -20 -20 -20 -20 -20 -20 -20 -20 -20 -20 -20 -20 27 -20 -3 25 16 27 22 -20 -20 -13 -14
-20 -20 -20 -20 -20 -20 -20 -20 -20 -20 -20 -20 -20 -20 -20 -20 -20 -20 -20 -20 -20 -20 -20 -20 -20 -20 -20 -20 -20 -20 -20 -20 -20 -20 -20 -20 -20 -20 3 31 -20 -16 1 20 -1 3 -20 8 -18
-20 -20 -20 -20 -20 -20 -20 -20 -20 -20 -20 -20 -20 -20 -20 -20 -20 -20 -20 -20 -20 -20 -20 -20 -20 -20 -20 -20 -20 -20 -20 -20 -20 -20 -20 -20 -20 -20 -20 -11 32 27 23 12 7 26 -20 18 -20
-20 -20 -20 -20 -20 -20 -20 -20 -20 -20 -20 -20 -20 -20 -20 -20 -20 -20 -20 -20 -20 -20 -20 -20 -20 -20 -20 -20 -20 -20 -20 -20 -20 -20 -20 21 -20 -20 -20 -18 22 38 32 26 30 33 -16 -20 -3
-20 -20 -20 -20 -20 -20 -20 -20 -20 -20 -20 -20 -20 -20 -20 -20 -20 -20 -20 -20 -20 -20 -20 -20 -20 -20 -20 -13 -20 -20 -20 -20 -17 12 14 16 17 23 19 -7 18 41 43 27 36 36 31 12 -17
-20 -20 -20 -20 -20 -20 -20 -20 -20 -20 -20 -20 -20 -20 -20 -20 -20 -20 -20 -20 -20 -20 -20 -20 -20 -20 -20 -20 -20 -18 -16 -15 -0 -7 38 19 5 3 -9 -12 25 40 43 39 33 30 23 12 -15
-20 -20 -20 -20 -20 -20 -20 -20 -20 -20 -20 -20 -20 -20 -20 -20 -20 -20 -20 -20 -20 -20 -20 -20 -19 -12 -3 -14 -2 1 9 -20 25 21 26 -9 2 11 17 18 32 33 43 39 32 20 7 -20 -20
-20 -20 -20 -20 -20 -20 -20 -20 -20 -20 -20 -20 -20 -20 -20 -20 -20 -20 -20 -20 -20 -20 -20 -20 -20 6 -13 9 -16 15 5 -10 -2 31 24 -9 -20 5 24 32 33 37 33 23 9 -3 -20 -20 -20
-20 -20 -20 -20 -20 -20 -20 -20 -20 -20 -20 -20 -20 -20 -20 -20 -20 -20 -20 -20 -20 -20 -20 -20 -19 -19 -10 7 5 3 1 -8 15 -19 -20 -17 -20 11 0 -8 -5 7 11 -5 -20 -20 -20 -20 -20
-20 -20 -20 -20 -20 -20 -20 -20 -20 -20 -20 -20 -20 -20 -20 -20 -20 -20 -20 -20 -20 -20 -20 -20 -20 -5 -16 -15 -18 -20 -20 -10 -5 -18 -20 -20 -20 -20 -16 -18 -17 -20 -20 -20 -20 -20 -20 -15 -19
-20 -20 -20 -20 -20 -20 -20 -20 -20 -20 -20 -20 -20 -20 -20 -20 -20 -20 -20 -20 -20 -20 -20 -20 -20 -20 -20 -20 -20 -20 -20 -20 -20 -20 -20 -20 -20 -20 -20 -20 -20 -20 -20 -20 -20 -20 -20 -20 -19

GFSSGP_prec_radar_120.txt.gz
Reflectivity
-20 -20 -20 -20 -20 -20 -20 -20 -20 -20 -20 -20 -20 -20 -20 -20 -20 -20 -20 -20 -20 -5 9 -20 12 -20 -20 -20 -20 -20 -20 -20 -14 -20 -20 -19 11 -13 -20 -20 -20 -20 -20 -20 -20 6 0 -20 -20
-20 -20 -20 -20 -20 -20 -20 -20 -20 -20 -20 -20 -20 -20 -20 -20 -20 -20 -20 -20 -20 1 16 -8 -11 -20 -20 -20 -20 -20 -20 -20 -20 -20 -20 -20 -20 -20 -20 -20 -20 -20 -20 -14 -20 2 -10 -20 -20
-20 -20 -20 -20 -20 -20 -20 -20 -20 -20 -20 -20 -20 -20 -20 -20 -20 -20 -20 -20 -20 9 5 -13 1 8 -20 -20 -20 -20 -20 -20 -20 -20 -20 -7 9 2 -20 -20 -20 -20 -20 -20 -11 2 -20 -20 -20
-20 -20 -20 -20 -20 -20 -20 -20 -20 -20 -20 -20 -20 -20 -20 -20 -20 -20 -20 -20 -20 -20 14 16 -20 -20 -20 -20 -20 -20 -20 -20 -20 -20 5 -20 -20 11 -19 -20 -20 -20 -20 -20 -20 -20 -20 -20 -20
-20 -20 -20 -20 -20 -20 -20 -20 -20 -20 -20 -20 -20 -20 -20 -20 -20 -20 -20 -20 -20 -2 -8 -19 -2 35 -20 -20 -20 -20 -20 -20 -20 -20 -20 -20 -20 -20 -20 -20 -20 -20 -20 -20 -20 -20 -20 -20 -20
-20 -20 -20 -20 -20 -20 -20 -20 -20 -20 -20 -20 -20 -20 -20 -20 -20 -20 -20 -20 -20 -20 -15 3 15 -18 -20 -20 -20 -20 -20 -20 -20 -20 -20 -20 -20 -20 -20 -20 -20 -20 -20 -20 -13 -19 -20 -20 -20
-20 -20 -20 -20 -20 -20 -20 -20 -20 -20 -20 -20 -20 -20 -20 -20 -20 -20 -20 -20 -20 -20 -20 -20 1 11 16 -2 9 -20 -20 -20 -20 -20 -20 -20 -20 -20 -20 -20 -20 -20 -20 -20 -20 -10 -20 -20 -20
-20 -20 -20 -20 -20 -20 -20 -20 -20 -20 -20 -20 -20 -20 -20 -20 -20 -20 -20 -20 -20 -20 -20 -20 -20 -20 -20 13 12 -13 12 -19 -20 -20 -20 -20 -20 -20 -20 -20 -20 -20 -20 -4 -20 -20 -20 9 -20
-20 -20 -20 -20 -20 -20 -20 -20 -20 -20 -20 -20 -20 -20 -20 -20 -20 -20 -20 -20 -20 -20 -20 -20 -20 -20 -20 -20 -20 -20 -20 3 13 -9 -20 -20 -20 -20 -20 -20 -20 -20 -20 -20 -20 -20 -20 -20 -20
-20 -20 -20 -20 -20 -20 -20 -20 -20 -20 -20 -20 -20 -20 -20 -20 -20 -20 -20 -20 -20 -20 -20 -20 -20 -20 -20 -20 -20 -20 -20 -20 -15 -3 13 -20 -20 -20 -20 -20 -20 -20 -20 -20 -20 -20 -20 -20 -20
-20 -20 -20 -20 -20 -20 -20 -20 -20 -20 -20 -20 -20 -20 -20 -20 -20 -20 -20 -20 -20 -20 -20 -20 -20 -20 -20 -20 -20 -20 -20 -20 -20 -20 12 -18 -7 -20 -20 -20 -20 -20 -20 -20 -20 -20 -20 -20 -20
-20 -20 -20 -20 -20 -20 -20 -20 -20 -20 -20 -20 -20 -20 -20 -20 -20 -20 -20 -20 -20 -20 -20 -20 -20 -20 -20 -20 -20 -20 -20 -20 -20 -20 -20 -1 6 -20 -20 -20 -20 -20 -20 -20 -20 4 -17 -20 -20
-20 -20 -20 -20 -20 -20 -20 -20 -20 -20 -20 -20 -20 -20 -20 -20 -20 -20 -20 -20 -20 -20 -20 -20 -20 -20 -20 -20 -20 -20 -20 -20 -20 -20 -20 -20 9 17 15 -20 -14 -20 -20 -20 -20 -20 -20 -20 -20
-20 -20 -20 -20 -20 -20 -20 -20 -20 -20 -20 -20 -20 -20 -20 -20 -20 -20 -20 -20 -20 -20 -20 -20 -20 -20 -20 -20 -20 -20 -20 -20 -20 -20 -20 -20 -20 -20 -11 30 -20 2 -20 -20 -17 24 -16 -20 -20
-20 -20 -20 -20 -20 -20 -20 -20 -20 -20 -20 -20 -20 -20 -20 -20 -20 -20 -20 -20 -20 -20 -20 -20 -20 -20 -20 -20 -20 -20 -20 -20 -20 -20 -20 -20 -20 -20 -20 -12 18 6 9 22 23 -20 -13 29 -20
-20 -20 -20 -20 -20 -20 -20 -20 -20 -20 -20 -20 -20 -20 -20 -20 -20 -20 -20 -20 -20 -20 -20 -20 -20 -20 -20 -20 -20 -20 -20 -20 -20 -20 -20 -20 -20 -20 -20 -20 -11 25 18 20 19 19 26 13 -20
-20 -20 -20 -20 -20 -20 -20 -20 -20 -20 -20 -20 -20 -20 -20 -20 -20 -20 -20 -20 -20 -20 -20 -20 -20 -20 -20 -20 -20 -20 -20 -20 -20 -20 -20 -20 -20 -20 -20 -20 -20 9 23 25 20 23 27 10 1
-20 -20 -20 -20 -20 -20 -20 -20 -20 -20 -20 -20 -20 -20 -20 -20 -20 -20 -20 -20 -20 -20 -20 -20 -20 -20 -20 -20 -20 -20 -20 -20 -20 -20 -20 -20 -20 -20 -20 -20 -20 -11 -8 24 24 22 23 19 22
-20 -20 -20 -20 -20 -20 -20 -20 -20 -20 -20 -20 -20 -20 -20 -20 -20 -20 -20 -20 -20 -20 -20 -20 -20 -20 -20 -20 -20 -20 -20 -20 -20 -20 -20 -20 -20 -20 -20 -20 -20 -20 -20 -20 22 25 25 23 25
-20 -20 -20 -20 -20 -20 -20 -20 -20 -20 -20 -20 -20 -20 -20 -20 -20 -20 -20 -20 -20 -20 -20 -20 -20 -20 -20 0 -20 -20 -20 -20 -20 -20 -20 -20 -20 -20 -20 -20 -20 -0 -16 -17 21 23 23 26 20
-20 -20 -20 -20 -20 -20 -20 -20 -20 -20 -20 -20 -20 -20 -20 -20 -20 -20 -20 -20 -20 -20 -20 -20 -20 -20 7 -9 -20 -20 -20 -20 -20 -20 -20 -20 -20 -20 -20 -20 -20 -14 7 -6 21 23 21 22 -12
-20 -20 -20 -20 -20 -20 -20 -20 -20 -20 -20 -20 -20 -20 -20 -20 -20 -20 -20 -20 -20 -20 -20 -20 -20 -20 -17 -17 -3 17 6 -14 4 -20 13 7 -19 -20 -20 -20 -20 -20 -20 16 -1 23 20 22 20
-20 -20 -20 -20 -20 -20 -20 -20 -20 -20 -20 -20 -20 -20 -20 -20 -20 -20 -20 -20 -20 -20 -20 -20 -20 -20 -20 -20 -20 -20 -20 -4 -20 -20 -20 -20 -20 -18 -6 -20 -20 -20 -20 -20 30 22 23 26 11
-20 -20 -20 -20 -20 -20 -20 -20 -20 -20 -20 -20 -20 -20 -20 -20 -20 -20 -20 -20 -20 -20 -20 -20 -20 -20 -20 -20 -20 -20 -20 -20 -20 -17 -17 -14 -20 -20 16 15 15 -20 -20 -20 -4 42 42 31 -1
-20 -20 -20 -20 -20 -20 -20 -20 -20 -20 -20 -20 -20 -20 -20 -20 -20 -20 -20 -20 -20 -20 -20 -20 -20 -20 -20 -20 -20 -20 -20 -19 -17 -4 19 26 34 -12 -11 -20 -20 -15 -20 -20 -17 30 40 40 43
-20 -20 -20 -20 -20 -20 -20 -20 -20 -20 -20 -20 -20 -20 -20 -20 -20 -20 -20 -20 -20 -20 -20 -20 -20 -20 -20 -20 -20 -20 -20 -20 -20 -17 24 33 21 23 2 11 24 -13 -20 -20 3 32 39 42 40
-20 -20 -20 -20 -20 -20 -20 -20 -20 -20 -20 -20 -20 -20 -20 -20 -20 -20 -20 -20 -20 -20 -20 -20 -20 -20 -20 -20 -20 -20 -20 -20 -20 -20 -20 -20 -9 -20 -20 2 25 31 11 14 3 21 37 38 32
-20 -20 -20 -20 -20 -20 -20 -20 -20 -20 -20 -20 -20 -20 -20 -20 -20 -20 -20 -20 -20 -20 -20 -20 -20 -20 -20 -20 -20 -20 -20 -20 -20 -20 -20 -20 -20 -20 -20 -9 -3 12 1 -2 13 26 25 20 12
-20 -20 -20 -20 -20 -20 -20 -20 -20 -20 -20 -20 -20 -20 -20 -20 -20 -20 -20 -20 -20 -20 -20 -20 -20 -20 -20 -20 -20 -20 -20 -20 -20 -20 -20 -20 -20 -20 -20 -20 -20 -20 -18 -19 -18 -6 -15 -15 -18
-20 -20 -20 -20 -20 -20 -20 -20 -20 -20 -20 -20 -20 -20 -20 -20 -20 -20 -20 -20 -20 -20 -20 -20 -20 -20 -20 -20 -20 -20 -20 -20 -20 -20 -20 -20 -20 -20 -20 -20 -20 -20 -20 -20 -20 -20 -20 -20 -20